GFSGBSN_850_spd_000.txt.gz
Wind_Speed
28 28 27 25 23 21 20 19 19 19 19 21 20 20 21 19 19 17 16 14 12 11 8 7 6 5 6 6 7 6 1 6 11 14 16 14 13 8 5 7 5 3 4 4 9 11 16
29 28 28 25 23 20 20 19 18 19 19 19 19 18 18 18 17 14 14 11 9 7 7 8 6 5 5 5 3 3 6 7 10 12 17 18 9 15 9 5 6 8 5 5 3 13 11
31 29 28 24 23 20 19 18 17 18 18 17 16 16 16 16 13 12 11 8 6 6 7 7 5 6 9 13 3 11 8 4 6 9 11 11 18 12 8 4 6 9 5 6 7 4 4
32 30 28 25 22 20 20 17 17 17 17 15 15 14 13 13 9 8 6 5 6 7 7 5 5 5 9 3 7 5 3 4 4 4 7 9 7 15 5 12 6 6 5 4 3 3 3
34 32 29 26 23 21 20 17 16 16 15 14 14 12 11 8 6 5 6 6 7 7 5 4 4 5 8 2 4 2 3 3 3 2 3 4 12 6 8 5 5 6 3 3 1 3 3
35 34 31 27 24 23 20 18 15 15 14 14 13 10 8 6 6 8 10 9 7 4 5 3 4 3 7 1 6 5 3 5 2 4 0 3 6 5 5 5 4 5 3 1 4 1 12
37 35 33 28 26 24 21 18 15 14 13 12 11 7 6 8 10 12 13 9 2 2 10 7 1 3 5 5 5 6 4 3 3 5 3 7 8 4 3 4 4 4 4 3 2 4 8
39 36 34 30 28 25 22 18 15 14 13 10 8 7 10 12 15 14 12 4 1 1 4 13 15 13 11 5 1 5 2 1 3 3 1 7 4 2 3 4 6 6 6 3 3 4 9
42 39 35 31 31 26 23 19 16 14 12 11 8 11 14 15 14 14 9 1 2 5 1 2 3 4 2 4 4 5 3 3 2 3 5 6 2 2 1 5 6 4 4 3 5 10 6
45 41 37 33 33 28 24 20 17 15 12 12 11 15 16 16 11 8 5 1 3 2 5 5 1 1 2 5 4 2 2 3 4 5 6 5 3 3 5 6 4 3 1 5 7 4 4
48 43 38 35 34 30 26 22 19 17 14 14 16 18 18 15 7 7 2 3 2 0 4 4 3 1 3 3 6 3 7 3 4 4 5 3 2 5 7 1 3 3 6 6 3 5 5
51 45 39 38 35 32 28 24 21 19 16 16 20 21 19 11 7 5 3 4 2 6 3 2 2 1 3 4 3 3 5 11 7 6 6 3 3 4 1 3 2 4 6 6 4 3 2
49 46 40 39 37 34 29 26 24 22 19 18 21 21 19 10 8 5 5 1 5 4 1 2 3 2 3 5 6 5 5 6 4 5 4 6 4 4 2 3 3 6 5 3 3 3 4
49 47 42 40 39 35 30 27 26 24 22 21 21 20 16 10 8 6 2 6 2 3 5 1 3 3 4 2 4 5 3 3 5 5 3 4 5 3 4 2 4 2 5 5 6 3 3
50 47 43 41 40 35 31 29 28 26 25 23 22 20 14 12 10 7 3 4 6 6 3 5 4 4 1 2 5 4 3 2 1 1 5 4 1 3 2 1 3 2 2 3 7 3 3
52 46 43 42 40 36 31 30 30 28 27 25 24 19 15 14 11 7 5 4 3 4 2 3 4 3 4 3 3 3 1 1 2 1 3 5 4 2 3 2 7 2 5 3 3 3 2
53 47 44 42 39 35 31 31 32 30 29 26 22 11 16 15 12 6 4 5 5 7 4 3 5 4 3 4 3 2 3 1 0 2 3 3 4 4 1 3 2 2 2 6 5 3 4
51 47 46 42 38 34 30 31 33 32 31 29 16 3 18 17 5 1 4 4 4 4 1 2 4 3 5 3 4 3 5 2 2 1 3 1 5 2 2 2 2 1 3 4 5 3 1
50 48 45 41 38 33 31 31 33 35 35 32 15 5 17 19 4 2 2 2 3 3 2 2 2 3 3 4 5 2 3 0 1 1 5 5 1 3 6 5 4 2 3 4 5 3 4
48 48 44 41 36 32 30 31 34 36 37 29 14 2 4 8 4 9 4 3 4 2 0 3 3 4 4 3 5 5 3 2 2 3 6 4 3 5 6 4 2 3 4 4 5 3 3
48 46 43 38 34 31 30 31 35 38 39 29 13 5 8 3 1 5 5 3 3 2 2 3 3 3 5 4 2 3 2 2 4 2 4 4 4 2 2 4 2 1 4 6 6 5 6
47 43 39 35 31 29 29 31 36 40 41 26 12 7 6 3 19 7 5 7 6 2 2 1 5 2 2 5 6 8 6 3 4 4 3 4 3 0 0 4 5 3 5 6 4 3 7
44 39 36 32 29 28 29 32 38 42 43 18 12 11 12 2 4 6 6 6 8 5 3 1 6 5 4 1 7 14 11 12 6 5 3 3 5 3 3 3 5 6 8 8 5 4 6
40 36 33 29 27 27 28 31 37 43 44 22 17 13 6 2 3 6 7 6 6 5 7 3 6 6 9 28 28 23 25 23 21 14 5 4 4 3 2 3 2 6 2 4 5 4 6
36 33 29 27 26 25 25 29 35 41 43 25 16 9 7 2 5 4 6 6 12 9 4 4 3 7 26 6 5 5 5 6 5 6 7 5 4 3 4 3 5 5 5 7 8 7 9
32 30 28 26 23 23 24 28 33 39 40 29 18 10 5 12 7 12 6 7 5 4 4 4 11 30 3 5 4 4 3 4 2 2 4 5 6 4 3 4 6 6 3 5 4 5 13
30 28 26 24 23 23 24 28 32 36 39 27 19 13 8 5 10 15 5 8 9 6 4 5 9 3 2 3 3 3 3 2 3 4 2 3 3 4 2 3 8 7 3 5 5 7 12
29 27 25 23 22 22 23 26 30 34 32 24 23 13 8 5 13 11 9 13 12 9 5 11 5 1 4 4 3 4 3 5 2 4 6 7 6 4 3 2 8 8 4 7 6 5 13
27 24 23 21 21 21 22 22 27 32 29 24 16 11 9 7 9 10 9 11 6 8 15 20 6 6 7 4 1 3 2 2 2 3 2 2 6 4 8 6 5 15 8 15 6 7 12

GFSGBSN_850_spd_003.txt.gz
Wind_Speed
27 27 27 25 25 21 20 20 20 18 19 19 20 20 20 20 21 18 15 14 12 9 7 8 8 7 8 7 7 9 5 8 12 14 14 15 12 7 5 6 7 4 3 2 2 11 17
30 27 28 27 25 20 20 18 18 17 19 18 19 18 19 19 19 15 13 12 9 7 7 8 6 7 7 5 2 1 6 3 11 14 16 16 7 12 4 3 5 6 7 8 8 12 8
33 30 28 27 26 21 20 18 17 17 18 17 17 16 18 18 16 12 9 8 7 7 8 6 7 8 11 11 3 9 9 4 8 11 11 16 17 7 6 3 5 8 7 6 8 4 4
33 32 30 28 25 22 20 18 17 17 18 16 14 16 16 16 14 9 6 6 7 7 7 6 5 9 8 2 6 8 4 3 3 6 8 8 8 12 2 8 5 4 4 4 2 2 4
33 34 31 29 27 24 20 19 17 18 16 15 13 15 14 13 11 8 7 7 7 7 7 5 6 6 7 3 4 2 2 3 5 1 4 1 15 6 6 4 3 7 3 3 4 11 2
34 35 33 31 28 25 22 21 18 18 15 14 12 13 12 12 8 7 8 9 9 6 6 4 5 2 4 2 5 3 3 3 1 7 11 8 3 3 3 3 4 4 4 2 5 4 11
35 34 36 32 29 27 24 22 20 18 15 13 12 11 11 10 9 9 12 12 5 2 11 6 3 2 1 3 5 5 4 4 4 5 4 1 4 4 3 3 3 5 3 6 3 3 7
37 36 36 34 31 28 26 24 22 18 15 12 10 10 10 12 11 14 15 5 3 2 2 14 16 16 11 2 2 5 2 0 3 3 2 6 5 2 5 5 6 5 6 4 5 4 6
47 40 36 36 33 29 27 25 23 19 16 12 10 11 12 14 15 16 13 3 2 4 1 4 7 5 0 7 3 4 4 4 4 3 2 6 2 3 5 4 7 4 7 4 5 7 8
47 44 35 37 34 31 29 27 24 20 16 13 12 13 15 15 13 11 8 4 2 3 4 4 3 1 4 6 3 2 5 3 4 4 3 6 2 4 4 3 1 4 4 11 11 2 3
49 45 39 37 36 32 30 30 26 23 18 15 15 16 18 19 8 12 5 3 4 5 3 4 2 3 5 3 5 3 3 4 6 4 2 0 3 3 5 2 1 4 6 7 3 4 3
43 47 42 38 40 34 32 31 28 24 20 18 18 20 21 21 10 6 5 5 6 6 3 2 2 2 4 5 3 1 4 7 7 5 5 3 3 2 3 2 4 10 6 6 3 2 0
46 45 44 39 42 36 34 33 29 26 22 21 21 24 25 18 11 9 5 7 5 4 2 2 3 3 4 2 4 4 4 4 3 4 3 4 2 1 1 5 3 5 4 2 1 1 3
45 43 46 40 43 38 36 35 31 27 24 23 23 26 25 19 13 7 5 4 3 3 5 1 3 3 4 2 3 4 3 3 5 4 3 4 0 2 4 2 4 2 4 4 5 4 2
44 45 46 44 44 39 38 37 33 29 27 25 25 25 24 17 13 10 5 4 6 6 3 6 3 5 1 1 4 3 3 2 1 1 4 3 1 2 3 1 1 3 2 2 6 2 1
43 45 47 44 45 40 39 38 34 30 29 27 27 21 23 16 17 13 5 5 3 4 1 2 4 2 3 2 3 3 1 1 2 1 1 5 3 1 1 2 7 1 6 3 2 4 3
41 45 43 43 46 41 41 39 36 32 30 27 25 11 18 19 18 10 4 5 5 6 6 5 5 3 3 4 3 2 5 1 2 1 3 3 3 2 1 0 4 3 2 5 4 1 3
39 46 43 44 46 42 41 39 36 35 32 31 19 3 23 21 4 2 4 5 3 3 3 4 4 3 5 3 4 4 6 1 2 2 4 1 4 3 1 0 1 1 3 4 3 4 1
40 40 49 43 45 43 42 39 36 37 36 37 15 5 21 22 4 0 2 2 2 2 1 2 2 3 2 4 4 2 3 2 3 3 5 5 1 3 3 2 1 2 2 4 5 2 5
39 40 52 44 45 44 43 40 37 37 38 34 17 3 5 8 6 9 5 3 1 3 2 3 5 3 4 3 3 4 3 2 2 3 4 3 3 4 7 3 1 4 4 4 3 3 4
34 37 37 46 46 45 42 40 37 38 41 32 13 4 9 3 1 5 4 6 5 2 2 2 3 2 5 4 2 3 2 2 3 4 3 2 4 2 1 1 1 2 4 8 7 4 6
28 33 41 44 45 42 40 39 38 39 44 30 11 7 6 4 18 7 1 6 6 2 1 2 5 3 2 5 6 8 6 4 4 2 2 2 4 2 4 1 3 3 5 7 6 3 10
36 35 41 43 41 39 39 38 39 42 47 19 10 14 19 1 4 6 6 6 8 6 1 3 6 4 3 1 4 10 8 11 6 5 3 2 6 3 3 2 2 5 9 10 5 5 7
34 38 40 40 38 37 36 36 39 43 48 22 18 20 8 2 2 6 8 5 6 6 5 3 6 4 8 27 29 24 26 22 18 12 4 5 4 2 2 1 1 4 2 2 9 6 12
36 38 38 36 34 34 33 34 38 44 48 22 22 21 8 3 6 4 7 5 12 8 4 4 3 7 30 6 4 4 4 5 5 7 7 4 4 3 3 3 5 4 3 5 6 5 10
36 36 34 32 31 30 31 33 38 44 45 20 25 18 14 13 7 16 8 9 5 4 3 4 9 30 4 4 3 4 3 4 1 1 2 4 5 3 3 2 4 4 2 4 3 4 2
33 32 30 29 27 26 27 31 38 43 45 23 19 19 8 4 4 18 9 9 9 6 4 7 11 4 1 2 3 3 3 1 3 4 2 2 3 3 2 3 7 6 1 4 3 4 2
31 29 27 25 24 25 27 31 36 41 46 27 21 15 8 4 15 10 14 15 10 10 5 11 6 1 3 3 3 3 3 4 2 3 5 5 5 3 3 1 6 6 4 5 4 4 6
29 28 26 24 22 21 24 30 35 39 43 29 21 17 8 6 8 12 12 13 10 14 16 22 8 6 8 4 1 3 2 1 2 2 1 3 4 3 7 4 4 13 9 11 10 9 11

GFSGBSN_850_spd_006.txt.gz
Wind_Speed
30 27 26 24 24 22 22 20 19 17 17 17 17 17 18 18 18 18 17 16 14 12 11 10 8 7 7 5 8 5 6 11 13 18 14 14 14 10 12 12 9 11 2 1 4 9 11
32 30 27 26 25 23 22 19 18 16 17 17 16 16 17 16 17 17 16 13 11 10 9 9 8 7 6 7 4 3 3 7 12 14 15 15 7 10 6 7 11 4 3 6 6 11 9
32 31 29 27 26 24 22 19 16 17 17 17 15 14 16 15 16 15 14 12 10 9 7 8 7 7 10 12 2 6 7 5 10 16 14 15 11 6 2 7 7 11 13 13 10 8 7
40 34 31 29 27 25 22 20 18 18 18 17 15 14 15 14 14 14 11 11 9 7 6 6 6 6 9 4 7 7 6 3 7 12 13 8 11 10 3 8 7 6 6 9 7 6 3
43 39 32 30 28 26 23 20 19 19 18 17 15 14 14 14 12 11 9 9 6 6 5 5 7 4 8 5 6 2 1 1 2 7 10 6 9 7 4 9 9 5 8 12 7 4 5
43 41 40 33 29 27 25 21 20 21 18 17 15 13 14 13 10 8 7 6 5 6 7 4 7 2 6 3 5 3 1 1 3 12 8 6 5 7 6 9 10 9 10 14 13 4 6
35 38 37 39 31 28 27 23 21 22 19 17 15 13 12 11 10 7 7 8 2 3 12 7 2 4 2 6 5 4 3 2 5 6 4 6 6 9 13 5 3 7 8 13 9 5 6
37 41 40 39 37 30 30 25 23 22 20 17 15 14 11 10 9 10 15 10 6 2 5 16 16 12 13 7 3 3 1 4 2 3 5 6 5 4 5 5 6 6 10 9 6 4 3
37 39 41 40 37 30 31 27 24 23 21 18 16 13 12 9 10 14 20 12 3 3 4 4 10 7 3 7 4 5 1 2 1 3 1 7 7 5 7 8 9 6 6 10 7 7 4
38 39 44 42 38 33 32 28 26 24 22 20 17 15 14 9 10 17 18 5 8 5 5 6 5 4 4 4 4 2 4 2 3 3 4 6 4 6 8 6 2 7 3 9 13 12 8
41 41 37 49 42 36 34 30 27 25 23 21 18 17 14 15 8 17 8 7 5 6 6 7 6 4 5 5 6 2 5 2 4 5 5 4 7 7 6 3 1 3 11 10 8 7 6
45 44 41 43 46 38 36 32 28 26 25 23 20 19 16 21 19 14 9 3 9 4 4 7 6 7 8 3 2 2 3 5 6 3 6 6 3 2 3 5 2 13 11 7 3 3 7
45 45 43 41 48 40 38 35 29 28 27 25 22 22 22 26 16 14 9 10 4 6 2 7 10 7 7 5 4 3 6 8 6 8 8 7 4 5 6 11 8 7 11 5 6 6 8
46 44 44 44 45 44 39 37 31 30 28 26 23 23 26 29 16 8 13 5 7 3 8 2 6 8 9 4 3 3 8 8 2 3 9 10 6 6 3 2 6 9 7 4 5 6 6
44 43 43 44 43 46 40 38 33 32 30 27 25 24 29 31 25 12 3 6 7 5 6 8 8 13 6 5 3 5 3 5 2 1 4 5 4 4 2 2 3 5 7 3 2 0 4
44 43 43 42 45 45 41 40 35 34 31 29 27 25 30 26 24 19 6 8 4 3 3 6 13 10 12 9 8 7 8 3 4 1 2 4 4 2 5 3 7 3 7 3 3 3 5
42 43 41 40 44 42 43 41 38 36 32 29 22 10 19 24 19 11 9 9 4 6 6 8 8 6 9 8 6 8 7 4 3 4 1 5 2 5 3 6 6 4 4 1 0 2 3
42 39 41 40 42 42 44 42 39 38 33 31 17 7 21 25 12 10 11 6 4 4 4 6 4 5 10 9 8 8 9 1 4 5 5 3 2 4 7 3 2 2 3 6 4 4 0
38 38 39 39 41 43 42 43 41 42 41 38 19 13 19 29 9 6 4 6 5 4 5 7 7 2 2 7 5 5 6 2 4 5 6 6 4 4 5 5 4 7 6 3 5 1 5
32 36 40 41 40 39 42 43 43 43 40 34 20 8 10 15 10 15 12 11 9 3 2 3 4 3 6 4 0 6 7 3 4 3 3 4 3 5 7 0 1 6 11 10 8 3 4
32 37 38 39 38 43 40 43 44 42 42 35 14 10 18 9 11 13 15 12 14 5 4 5 3 5 6 5 4 5 5 5 4 5 3 3 5 4 1 1 3 4 8 13 15 12 7
35 34 34 35 37 33 41 45 44 43 44 35 14 8 12 23 19 12 10 11 16 7 5 6 6 7 6 5 6 9 9 6 4 6 5 1 3 3 4 2 2 6 10 11 15 14 15
32 31 34 36 47 36 44 46 46 45 52 25 14 15 23 6 11 14 9 13 13 10 1 0 5 6 4 3 5 10 8 9 6 5 6 3 6 4 3 1 2 5 15 17 11 11 12
30 32 31 44 47 37 43 47 47 47 51 29 16 14 15 6 9 13 13 10 11 10 6 4 5 3 5 20 21 19 18 15 12 10 4 5 4 1 1 2 3 1 1 2 12 15 13
31 29 41 24 32 39 44 46 45 46 50 32 19 16 9 4 12 9 14 13 8 6 4 5 4 3 24 4 3 3 2 2 4 7 5 1 4 3 3 4 6 9 4 4 5 5 4
30 38 32 30 38 40 42 42 42 46 50 29 23 18 13 11 9 12 19 15 7 6 5 4 8 22 4 2 2 3 4 2 4 4 3 4 3 1 3 3 4 3 3 1 2 6 6
27 27 35 36 36 38 38 40 43 46 49 28 24 18 17 9 6 16 16 14 8 6 5 8 11 4 2 2 2 2 3 1 3 5 3 2 1 4 4 4 5 1 2 3 3 3 3
32 31 30 32 34 36 37 40 43 46 47 27 25 23 17 8 6 16 14 12 10 11 6 11 7 3 2 2 2 3 2 4 3 2 4 4 5 3 2 3 4 6 5 3 3 4 4
27 27 29 32 33 34 36 39 41 46 46 28 25 21 18 7 6 11 20 17 18 17 12 20 2 7 8 3 1 3 2 1 1 2 3 3 3 1 6 1 3 10 7 4 6 10 11

GFSGBSN_850_spd_009.txt.gz
Wind_Speed
31 29 28 25 24 21 20 21 20 18 16 17 17 16 17 17 18 19 19 21 18 16 15 12 9 8 8 6 10 6 2 8 14 16 13 12 12 13 12 13 16 12 4 2 3 5 7
38 34 31 29 27 24 21 20 20 17 16 17 17 16 16 17 17 18 19 19 16 14 13 10 8 7 6 9 1 2 2 9 8 14 14 12 10 11 8 12 13 12 9 3 7 7 7
36 39 34 30 29 26 24 20 19 18 17 18 18 15 16 16 17 17 17 17 14 13 11 7 7 7 9 15 1 3 5 5 11 15 13 13 11 6 5 6 4 5 7 11 3 10 10
26 36 39 33 31 28 25 22 20 18 18 19 18 15 15 15 16 17 15 13 12 10 8 6 5 5 10 6 8 9 10 9 11 14 13 7 10 12 10 2 9 12 12 13 19 12 8
31 28 38 39 34 31 27 24 21 19 19 19 18 15 15 15 15 16 12 9 9 7 6 4 4 3 7 7 7 4 9 4 6 8 10 8 5 11 7 11 10 7 9 14 9 8 12
36 32 28 40 37 33 30 25 23 20 20 19 18 16 16 14 15 13 9 4 5 4 5 5 6 6 8 9 3 4 5 7 4 10 8 6 10 8 10 11 8 6 11 15 13 10 10
43 40 34 30 40 37 31 28 24 22 21 20 17 16 16 14 14 10 4 2 4 4 11 12 2 7 4 3 7 8 5 6 7 12 7 8 6 11 8 10 7 13 9 13 15 6 9
45 43 38 33 36 37 34 30 27 22 22 20 18 17 15 14 13 10 10 8 7 3 8 19 17 13 12 6 4 10 6 9 9 7 8 8 13 19 7 10 9 4 5 12 9 9 9
40 40 39 34 35 40 38 32 29 24 23 21 19 17 15 14 12 14 15 17 3 5 7 12 16 11 7 9 12 16 9 8 10 15 9 8 12 6 8 10 11 8 10 11 13 11 13
41 41 38 34 36 36 40 35 31 26 24 22 21 18 16 12 9 8 12 10 10 8 5 11 9 9 8 8 8 7 6 5 7 8 12 3 6 11 13 7 5 8 4 11 4 11 13
47 44 43 38 37 38 38 36 32 29 25 23 23 19 17 12 7 9 2 4 6 4 5 16 13 8 8 13 2 11 7 7 12 7 7 8 9 9 9 5 5 17 10 7 7 11 12
52 45 45 43 39 36 41 40 35 30 26 25 24 21 18 20 23 16 7 4 6 5 7 8 10 11 11 12 7 6 12 6 7 7 7 7 3 4 7 3 2 5 4 6 6 10 7
49 49 46 42 39 41 43 43 37 29 28 26 25 22 23 21 8 11 9 6 6 9 7 12 16 14 15 10 9 11 14 14 11 8 10 7 7 4 6 7 7 9 9 8 9 8 10
43 43 47 44 41 42 39 45 40 30 30 28 26 23 25 24 14 8 10 8 12 14 13 3 15 14 12 10 9 9 12 16 17 16 13 10 9 12 8 10 5 10 13 9 7 7 11
49 44 42 45 41 43 39 47 43 31 32 29 26 24 28 31 25 12 13 10 14 9 11 9 11 13 12 9 6 11 14 14 16 12 13 10 5 6 2 3 8 9 8 7 7 3 7
47 40 38 43 42 42 41 41 44 34 35 32 24 24 30 31 28 13 8 16 19 2 5 11 16 15 14 14 11 13 12 4 7 5 5 1 2 4 5 5 6 8 2 5 6 6 11
41 52 43 42 40 41 43 39 43 37 38 30 21 11 18 27 23 16 11 17 16 9 9 11 16 12 13 13 14 15 12 9 6 7 5 6 8 7 4 10 11 7 10 7 5 3 5
40 48 40 42 42 42 43 41 42 39 38 33 25 11 21 28 16 20 14 22 11 11 10 8 7 9 11 11 13 11 13 6 8 8 10 6 5 5 13 5 5 10 8 11 5 6 3
39 48 36 42 41 41 40 41 40 41 46 39 28 18 20 28 13 13 20 21 13 10 12 12 11 9 8 10 10 11 11 6 6 8 5 7 7 7 7 6 7 9 10 9 4 1 7
38 45 42 39 40 44 39 39 40 41 46 38 28 11 11 15 30 19 23 18 17 7 9 12 10 11 10 8 6 7 8 4 5 5 0 0 12 10 10 5 1 12 12 12 13 7 9
34 33 42 41 38 43 40 38 43 41 46 35 27 15 20 13 21 21 21 19 21 12 10 15 11 15 13 8 9 8 9 6 6 6 6 5 8 12 12 5 5 8 9 13 16 15 13
30 31 38 41 42 41 38 35 44 40 46 36 22 22 28 27 33 20 19 22 23 18 14 14 10 15 11 8 11 10 12 10 7 10 9 5 5 2 5 8 8 11 12 13 14 16 16
31 32 35 38 42 41 40 32 44 45 54 30 25 21 29 21 23 18 17 19 21 15 3 5 12 8 10 5 8 10 9 4 3 7 10 5 5 4 5 3 4 6 15 16 15 16 12
32 34 34 37 37 34 40 45 45 50 57 34 18 17 16 13 17 18 19 20 17 16 11 6 7 8 6 16 16 15 13 10 7 6 5 5 4 2 1 1 1 4 1 4 8 14 16
35 33 35 34 38 36 38 46 49 53 55 37 18 16 18 4 15 24 20 18 19 11 9 13 5 5 21 10 4 4 2 2 3 3 3 3 4 2 3 6 8 9 5 1 3 6 6
32 33 35 34 33 34 44 41 50 53 55 38 13 16 18 12 13 28 19 24 10 10 7 5 10 17 6 2 2 5 4 4 5 6 3 4 1 4 3 3 4 4 4 1 1 6 7
31 32 34 31 36 47 43 37 47 52 54 35 10 15 19 14 22 18 15 17 20 12 6 8 10 5 2 2 2 3 4 2 4 5 4 3 1 5 6 3 5 3 3 2 4 3 5
30 30 31 41 50 46 37 42 51 51 50 33 9 16 19 13 10 13 14 17 22 19 7 12 8 3 3 3 3 3 1 4 2 1 5 6 6 3 2 2 5 7 6 1 4 6 7
33 33 40 43 31 39 44 45 47 52 49 28 12 20 17 11 7 7 11 15 14 18 17 20 8 13 10 4 2 2 2 2 0 3 2 3 3 1 5 1 5 7 4 4 6 9 11

GFSGBSN_850_spd_012.txt.gz
Wind_Speed
35 34 29 26 26 23 21 20 20 19 19 19 18 17 17 18 18 19 20 22 22 22 18 15 10 8 8 6 11 7 5 3 8 14 9 12 11 12 15 16 11 13 17 2 5 14 8
24 32 36 32 29 27 25 23 22 20 19 19 18 17 17 17 18 18 20 22 20 19 15 11 7 7 6 8 2 5 4 3 6 13 7 8 8 10 15 13 12 9 14 6 6 8 20
25 23 27 37 35 30 27 24 23 21 20 20 18 17 17 17 18 18 19 20 19 15 12 8 6 7 10 15 1 1 4 3 7 9 13 7 11 9 5 12 8 3 9 2 2 4 5
29 26 24 27 37 32 28 25 24 22 20 20 19 18 16 16 18 18 19 18 16 12 7 5 5 6 11 1 8 10 10 9 8 13 13 12 7 13 13 16 5 10 10 7 6 10 5
35 32 29 26 29 36 32 29 26 23 21 20 20 18 16 16 16 17 18 15 12 8 4 3 2 4 11 6 10 7 10 11 7 8 10 9 4 10 14 10 9 10 8 6 7 19 6
37 37 35 30 28 31 36 31 28 24 23 21 19 18 17 16 16 16 14 11 8 6 3 3 5 5 13 10 11 6 5 6 4 6 4 7 6 6 8 7 4 7 6 15 14 13 9
42 40 39 37 30 28 33 34 30 27 24 21 19 18 17 15 15 14 10 6 7 4 11 12 2 12 6 6 5 9 8 7 4 8 7 8 5 5 7 7 2 8 16 16 14 10 10
41 42 40 40 38 32 30 34 32 28 24 22 19 18 17 15 14 13 11 7 7 7 11 17 20 16 16 6 8 15 12 11 11 7 8 4 7 7 11 8 15 14 13 9 10 7 10
41 43 44 39 38 35 32 33 33 30 25 23 20 18 17 14 14 15 15 18 3 16 7 12 22 19 16 14 16 16 15 16 8 6 9 3 11 9 13 16 18 14 3 7 7 8 7
39 40 43 42 38 37 31 32 36 34 28 24 21 19 17 11 10 9 11 4 9 5 5 9 15 15 17 11 17 20 9 14 7 5 9 5 19 17 15 15 14 7 13 6 8 6 10
43 44 45 43 37 36 33 34 37 36 31 25 23 20 18 11 8 9 3 5 5 5 4 14 19 17 17 17 14 12 9 11 10 4 5 4 13 14 10 6 5 7 15 9 12 11 2
46 48 47 47 43 37 35 34 36 36 32 26 25 22 18 19 20 14 6 6 6 4 6 9 14 12 15 16 16 5 17 15 12 5 3 5 17 10 6 5 2 8 8 15 10 9 2
49 47 46 47 47 41 36 35 38 36 33 26 26 24 23 18 4 6 13 4 5 7 6 9 14 15 16 14 13 10 14 16 10 9 9 7 17 4 10 7 5 8 9 7 3 5 7
45 51 47 45 45 43 38 37 39 38 34 25 27 24 25 24 14 4 8 5 12 13 19 2 14 16 17 15 13 12 14 15 16 15 10 11 14 11 9 9 6 14 10 4 6 4 10
48 43 46 44 42 46 40 37 39 40 37 26 28 25 28 29 23 9 8 10 10 12 20 9 13 13 17 16 9 11 15 17 18 18 12 4 4 11 2 6 3 5 9 8 4 16 6
47 51 45 47 42 43 43 38 41 41 39 29 31 22 33 30 26 13 8 17 18 21 6 13 15 15 16 15 10 12 14 16 19 15 16 11 7 20 6 4 5 6 9 3 3 3 5
45 47 45 42 40 41 45 39 42 40 39 30 22 11 16 29 26 15 11 17 20 28 9 6 15 16 17 13 15 12 9 9 6 8 4 7 19 7 7 8 10 7 8 8 7 4 1
48 45 43 46 43 36 44 42 42 40 41 33 27 7 19 33 15 18 14 21 28 22 11 9 13 16 15 13 14 13 6 14 12 7 7 8 3 3 8 5 4 9 9 12 3 5 2
50 41 38 37 41 38 41 43 43 43 46 43 30 19 31 34 12 12 19 25 27 23 14 15 12 15 10 11 9 11 6 4 5 4 1 2 3 4 8 8 7 8 12 9 4 3 4
42 39 38 37 38 43 43 43 43 45 47 40 26 9 15 26 24 20 23 23 23 29 16 16 15 12 8 10 8 9 7 3 4 3 4 4 5 8 7 11 7 13 12 12 11 3 3
36 37 38 40 40 44 45 44 44 47 46 41 20 13 16 11 19 18 21 19 24 16 16 20 17 18 12 9 10 9 8 7 4 3 1 2 7 11 14 16 2 12 7 11 13 10 10
36 33 36 37 37 44 45 42 44 48 45 43 18 16 24 19 27 21 21 26 25 21 16 13 14 13 14 10 10 11 12 8 7 8 8 4 2 4 3 10 14 12 14 13 14 12 13
35 34 35 38 38 44 45 44 42 47 47 30 32 23 19 22 21 19 19 23 24 19 20 18 19 15 15 8 12 12 11 7 5 10 9 7 3 2 2 5 7 5 8 15 15 14 10
34 35 33 36 43 45 44 42 44 42 51 31 36 15 11 16 20 22 24 24 21 21 12 10 14 13 11 20 20 17 16 10 9 5 8 4 3 2 1 1 1 9 1 5 5 9 11
32 26 28 35 43 43 44 41 47 42 52 39 38 23 12 9 17 26 25 24 26 26 14 13 7 9 24 12 4 4 2 3 1 4 4 6 4 1 2 4 7 11 2 2 1 3 11
34 33 32 34 38 38 41 43 45 41 53 50 31 29 11 9 18 41 22 23 11 7 7 5 12 15 10 2 2 4 4 5 6 6 3 3 4 1 3 2 4 1 4 3 1 3 9
35 32 32 31 32 36 39 36 35 49 48 50 41 28 13 14 26 39 16 17 21 13 7 12 5 4 2 2 2 2 3 3 5 6 4 3 1 4 3 2 5 2 4 2 2 3 6
31 29 28 30 33 33 33 34 34 52 44 48 45 19 11 8 24 26 24 24 14 17 6 14 7 4 3 2 3 2 2 3 2 5 6 5 5 3 1 2 6 5 5 3 5 4 9
26 26 30 32 31 33 32 33 44 42 44 50 39 20 13 18 10 18 16 14 16 18 17 21 8 13 9 4 1 3 2 2 3 2 3 2 4 2 7 3 5 7 4 3 2 4 6

GFSGBSN_850_spd_015.txt.gz
Wind_Speed
22 26 32 32 28 26 25 22 18 17 18 18 19 18 16 15 16 17 19 21 23 23 21 17 12 10 9 6 7 6 7 7 5 9 10 9 10 16 7 7 15 8 8 14 14 15 12
23 23 23 28 33 31 27 25 21 20 19 19 19 18 16 15 16 16 19 20 22 22 18 14 9 8 7 6 2 2 6 2 5 9 6 10 11 12 17 11 6 10 13 5 7 15 9
26 24 24 23 24 33 34 28 24 22 20 19 19 18 17 16 16 16 18 19 20 18 14 10 8 8 10 15 6 6 6 2 4 3 5 8 14 16 18 9 23 7 3 1 5 15 3
32 29 27 25 24 24 32 32 26 23 19 19 19 18 17 16 16 16 17 18 18 15 10 8 7 7 9 3 10 10 11 8 4 5 11 8 13 14 9 15 14 4 4 2 5 5 9
36 33 31 29 26 25 24 29 28 25 23 18 20 19 18 16 15 16 15 16 15 11 9 7 3 6 11 5 10 5 10 15 11 11 10 15 10 5 7 4 5 3 2 5 2 18 3
39 38 37 33 30 28 25 23 28 27 24 23 21 20 19 16 15 15 14 14 12 10 9 8 8 8 10 9 12 4 9 11 7 7 3 5 2 2 2 2 2 5 8 3 7 6 4
42 41 40 39 35 30 27 25 24 28 26 24 20 20 19 16 15 15 13 10 7 3 7 12 5 10 6 7 13 10 11 8 6 7 3 7 2 5 9 2 6 4 2 7 8 10 6
44 42 41 41 40 36 31 31 29 27 28 24 21 19 18 16 15 14 13 7 12 7 12 19 24 28 19 12 6 9 14 12 10 6 4 0 4 7 1 8 7 9 7 10 9 6 5
40 37 39 40 39 40 37 32 31 28 29 27 23 20 17 15 14 14 14 15 9 12 4 14 20 22 19 10 10 15 17 19 6 6 1 3 4 6 4 13 6 4 6 3 5 3 3
43 44 42 41 39 38 38 35 33 29 29 27 25 21 18 12 10 8 4 7 4 8 3 6 12 12 15 19 12 18 19 18 6 6 5 5 6 6 8 11 8 3 4 6 3 5 2
48 44 41 37 38 38 37 35 32 31 31 30 27 22 19 12 7 9 2 3 5 3 3 6 12 8 14 15 3 13 18 1 3 2 4 6 2 6 10 13 6 6 7 2 2 4 7
52 48 44 41 36 37 35 33 30 33 35 33 30 23 20 20 21 10 3 4 8 1 6 5 12 11 10 17 16 16 16 10 5 5 2 7 7 3 4 6 6 2 2 3 3 3 3
45 46 47 43 42 40 37 36 31 34 34 33 31 26 25 21 14 7 14 5 2 4 6 6 13 10 11 7 8 5 5 4 5 4 3 4 5 5 7 3 3 1 3 3 4 5 3
55 51 49 47 40 40 40 39 34 33 34 35 31 27 27 26 19 10 11 3 7 10 11 2 9 12 10 8 10 9 6 8 9 6 4 4 5 6 3 5 6 3 6 5 5 1 5
64 53 45 47 42 47 40 37 40 34 34 34 31 28 30 29 24 12 9 9 8 7 13 4 8 9 9 11 7 8 9 9 11 9 7 4 1 7 14 10 4 3 1 5 6 4 2
49 56 47 39 41 44 44 39 41 35 34 34 29 32 37 31 27 17 6 11 6 15 10 8 8 8 8 10 4 9 9 9 9 14 11 6 3 1 13 17 9 4 3 5 3 5 4
55 49 43 46 44 41 45 38 41 39 37 35 27 17 23 31 28 16 11 9 13 28 21 7 11 8 9 7 17 7 7 10 13 6 12 6 5 5 6 9 9 1 3 3 3 5 4
54 51 46 46 44 42 45 40 43 41 40 38 23 8 19 33 13 9 12 10 15 20 22 14 2 5 7 6 8 9 9 4 17 10 10 7 5 3 11 14 7 6 4 6 5 4 2
57 51 45 44 43 44 43 43 45 45 47 44 14 15 27 39 12 11 8 14 19 19 19 7 3 3 2 4 4 7 5 5 5 6 5 2 1 2 6 5 6 4 5 4 4 3 5
51 54 50 44 43 46 46 45 46 48 50 45 15 8 16 28 24 18 17 17 20 22 21 22 6 8 5 8 16 9 2 3 6 4 5 5 2 6 6 7 3 3 5 6 5 4 3
47 49 49 47 47 43 46 51 49 48 51 47 16 11 15 11 18 10 19 15 21 14 19 18 7 8 7 4 2 5 5 3 3 5 3 5 4 1 3 5 5 1 5 7 5 6 7
44 44 43 44 44 44 44 52 50 51 52 49 10 18 23 7 25 16 19 20 25 20 16 14 6 10 7 5 7 5 8 5 6 2 4 1 2 2 2 5 7 4 8 7 6 3 2
39 39 40 42 35 38 40 42 44 51 53 27 28 22 26 14 18 17 22 22 21 20 18 21 10 5 7 5 11 13 10 16 8 7 5 5 5 3 3 4 6 6 7 5 6 5 3
39 37 35 38 39 43 39 40 46 51 56 23 36 11 12 8 15 21 21 17 25 21 11 17 20 7 14 27 24 22 26 22 21 12 3 5 4 3 2 3 2 8 4 3 4 3 7
34 36 36 37 40 41 41 41 47 51 52 47 33 19 4 3 15 20 22 24 23 26 17 4 3 19 30 8 4 4 5 5 6 8 5 3 4 2 4 4 5 8 3 3 3 4 5
32 32 36 35 39 42 42 47 50 51 47 53 34 12 7 2 17 32 24 29 10 7 3 5 8 29 20 3 4 5 4 6 5 4 6 6 5 4 2 4 6 6 2 4 4 2 6
30 30 33 37 38 41 45 50 48 48 38 48 44 33 10 6 13 29 24 22 21 6 6 6 2 6 8 3 3 3 3 6 5 8 4 3 3 5 2 2 7 6 6 2 6 6 7
30 26 24 29 35 46 43 46 43 41 38 40 49 33 10 6 18 12 36 22 18 18 6 21 9 2 3 4 4 3 3 4 4 7 7 6 5 3 3 2 5 7 4 6 6 11 10
27 25 23 24 36 35 39 39 35 41 43 41 37 40 23 19 10 10 30 34 29 29 21 25 13 9 8 4 2 4 2 2 3 2 3 1 6 5 6 5 8 6 12 12 10 9 6

GFSGBSN_850_spd_018.txt.gz
Wind_Speed
23 22 22 25 29 29 27 25 22 21 17 16 16 16 16 16 15 15 16 17 19 20 19 17 14 12 11 7 5 3 6 5 7 9 9 5 2 2 2 5 3 7 10 20 20 17 10
25 24 23 22 22 26 30 28 25 23 21 18 17 17 17 16 14 15 16 17 18 19 17 14 12 11 10 4 1 2 6 2 6 8 7 7 3 13 11 4 3 13 12 6 21 20 8
29 27 25 24 24 22 22 28 29 27 23 22 18 17 17 16 15 14 15 16 18 17 15 12 10 10 13 12 4 2 1 5 2 4 8 5 8 8 10 8 16 14 4 7 8 15 6
34 32 29 26 26 24 22 20 26 28 26 23 20 17 17 17 16 15 15 16 17 15 13 10 9 10 10 5 12 12 7 7 5 4 8 4 10 13 5 9 8 4 4 4 5 10 10
37 37 35 31 28 26 23 21 20 23 26 22 20 17 17 17 16 15 15 15 17 14 12 8 7 7 10 11 13 10 14 7 7 8 4 11 10 6 6 3 5 5 0 2 6 9 4
42 41 38 36 33 31 28 23 19 22 23 23 22 19 17 17 16 15 15 15 16 13 12 8 10 7 11 6 13 12 12 8 9 6 11 5 1 3 3 4 2 1 4 2 4 6 5
38 38 41 39 39 35 31 27 25 21 21 22 22 19 18 17 15 15 14 11 7 3 6 9 4 10 7 5 7 13 12 13 10 6 3 2 4 3 6 8 4 5 2 5 5 4 4
43 41 37 36 37 37 34 31 29 25 21 20 22 21 18 17 14 14 12 8 3 5 12 19 21 26 26 19 10 8 15 11 8 5 2 3 4 6 7 1 5 4 6 8 7 9 4
47 45 42 39 37 36 38 36 32 31 27 24 24 21 18 16 14 13 10 9 8 13 6 14 17 21 22 11 10 12 12 17 6 5 7 6 6 1 4 5 3 5 3 4 5 4 6
51 50 46 42 37 35 32 33 35 33 30 25 27 24 21 13 11 9 1 7 1 8 2 6 8 10 14 11 6 17 16 10 4 9 7 4 2 5 2 4 3 6 12 6 2 4 4
51 50 47 45 42 39 34 34 30 32 32 29 27 25 23 15 8 8 5 7 7 2 3 5 7 5 13 12 3 9 18 10 10 3 6 6 4 4 4 6 4 10 7 2 1 5 4
55 52 50 49 46 41 37 35 31 29 29 29 29 27 24 21 19 9 8 2 5 4 7 4 10 8 7 11 7 2 11 14 5 5 1 4 2 5 7 7 8 3 2 5 5 4 3
59 56 58 51 47 43 38 33 32 29 26 27 31 28 28 21 18 15 12 3 3 4 5 5 6 8 8 7 5 6 3 4 5 3 2 1 4 3 2 0 3 4 5 3 3 4 4
59 47 55 53 49 47 40 37 32 30 28 26 31 30 28 25 15 13 13 2 10 8 8 4 7 10 9 7 8 6 5 6 2 4 3 4 4 3 4 4 3 5 7 5 4 3 4
57 51 56 51 51 46 41 36 37 31 29 26 28 31 29 32 24 15 12 9 6 6 5 4 2 8 6 6 7 7 9 8 9 9 7 5 4 5 5 3 5 3 2 3 6 3 1
54 59 43 52 43 39 41 39 34 33 32 28 32 30 32 33 25 19 7 15 7 10 6 2 7 7 9 9 8 8 8 7 7 10 10 6 3 2 4 4 1 3 3 3 3 4 2
53 62 64 53 53 48 44 42 37 34 36 30 29 17 20 37 25 15 12 12 16 30 13 4 5 3 9 8 10 7 8 6 8 6 10 5 3 5 3 4 9 4 3 1 4 4 4
57 54 60 64 54 51 46 39 34 40 39 35 32 8 28 40 14 12 16 12 12 24 14 8 5 10 9 10 8 8 10 7 8 13 9 8 5 4 9 7 7 2 6 5 5 4 0
59 55 55 52 51 54 51 39 31 43 46 45 20 16 32 41 11 14 7 18 22 13 6 5 5 7 3 5 5 4 4 4 9 5 8 7 2 2 6 3 3 6 6 4 5 4 6
59 56 53 55 49 48 45 42 38 46 49 50 17 9 15 27 30 21 19 15 20 22 20 16 8 6 2 3 2 6 4 3 4 11 6 10 4 7 7 7 4 3 3 5 5 4 4
61 54 50 52 51 51 41 41 46 52 52 54 23 10 18 14 19 15 20 14 21 14 17 14 10 16 8 5 2 3 5 2 2 8 4 4 5 4 4 2 2 0 2 1 5 5 6
63 53 51 51 52 47 41 42 49 51 56 54 19 8 25 5 24 20 19 23 25 20 13 18 12 12 8 6 8 8 8 6 6 2 5 2 3 1 4 3 1 3 5 4 4 3 5
59 52 50 52 51 45 42 45 48 48 56 31 39 22 26 16 19 19 20 24 26 19 19 37 11 12 5 9 9 17 21 16 11 7 3 4 6 3 5 4 5 5 7 6 5 3 5
53 48 48 48 45 45 46 46 52 49 57 34 38 22 13 9 13 21 24 22 25 19 21 16 31 10 6 25 29 24 25 19 14 6 7 6 4 3 3 3 2 7 4 5 8 4 7
44 43 47 47 46 45 41 50 46 51 50 43 33 25 6 4 12 15 26 20 22 28 21 30 17 20 34 11 5 6 5 5 5 5 5 2 5 2 4 3 4 6 3 6 5 1 3
41 41 44 44 42 37 45 45 49 44 51 57 34 28 7 2 14 23 21 30 15 13 13 7 15 23 24 4 4 5 5 6 4 3 5 7 5 4 2 4 6 7 4 4 7 2 6
39 39 40 41 43 41 42 42 45 42 56 56 48 34 7 7 8 35 18 24 34 8 9 4 9 6 8 3 3 3 3 7 6 8 4 3 3 5 2 2 7 8 6 3 6 6 10
37 37 37 37 38 42 41 40 41 42 57 49 49 40 13 8 12 17 34 31 31 28 8 7 6 2 3 4 4 4 4 5 4 6 7 6 6 3 3 3 6 8 4 7 7 13 17
31 31 32 35 36 39 42 43 41 46 48 48 29 45 37 10 8 12 16 33 44 35 20 14 10 7 6 4 1 4 2 3 5 3 3 1 6 6 8 6 6 8 6 22 21 18 13

GFSGBSN_850_spd_021.txt.gz
Wind_Speed
24 24 24 24 25 30 31 29 25 24 22 24 20 17 16 16 16 15 15 16 17 18 20 19 17 16 12 5 4 2 5 2 5 10 10 6 3 2 3 3 2 3 6 9 20 13 7
28 26 26 25 24 23 25 29 29 27 24 23 23 20 18 17 16 16 15 16 17 18 19 18 15 14 9 5 1 2 4 1 3 8 8 6 1 6 9 6 3 9 8 6 7 12 10
34 32 29 28 27 24 23 22 24 28 25 25 23 21 20 17 17 16 15 17 17 18 18 16 14 14 12 13 6 6 3 2 2 4 6 3 4 7 9 6 8 7 2 4 1 8 4
37 36 35 32 30 28 26 22 20 22 25 26 25 22 21 17 16 16 16 16 18 18 17 15 13 13 9 4 14 11 8 6 5 5 7 6 6 11 4 9 8 3 5 4 0 6 4
37 38 37 37 35 32 29 27 22 21 22 23 23 24 21 17 16 16 16 16 18 18 16 14 11 8 10 7 14 9 12 9 6 7 10 8 4 3 4 2 4 6 3 3 2 5 6
39 37 37 38 37 37 34 31 27 23 19 22 20 22 19 17 16 16 16 16 18 16 13 12 12 7 8 3 8 12 12 12 11 7 9 3 1 2 3 3 1 3 2 2 5 4 5
45 43 40 37 34 37 37 34 31 26 22 22 22 19 18 17 17 16 15 11 9 5 6 9 2 7 10 5 6 14 12 13 8 4 2 1 4 4 6 6 3 5 1 2 4 6 3
41 44 43 41 37 34 33 36 33 30 26 23 22 20 15 17 17 15 13 8 6 3 11 16 19 26 27 26 8 9 11 11 7 4 2 3 3 8 5 1 3 1 4 5 5 3 5
48 42 44 44 41 38 35 33 30 31 29 26 24 20 16 17 15 15 11 4 9 9 7 12 16 19 21 15 10 12 10 12 4 5 6 5 5 3 2 3 4 4 1 3 4 3 5
52 51 42 45 44 42 39 36 33 31 31 30 26 23 16 17 15 16 6 2 5 7 3 6 5 8 14 9 5 18 12 13 2 10 5 5 5 3 1 1 4 5 2 4 3 1 3
50 54 56 42 45 43 41 37 32 26 30 30 29 25 21 19 9 8 8 6 10 4 3 4 5 3 18 17 5 15 21 11 6 5 6 8 3 4 4 7 4 8 5 4 1 3 5
48 49 57 55 45 46 42 40 35 32 25 24 27 27 21 23 24 10 9 2 4 5 7 5 9 7 7 10 4 2 16 15 6 5 3 6 3 6 8 3 5 2 2 7 5 3 2
49 46 55 56 52 47 45 41 38 33 27 25 25 28 27 27 25 16 13 5 2 4 4 5 6 7 6 6 4 4 4 5 6 3 3 2 2 3 4 1 1 3 5 2 2 3 4
55 48 47 53 56 50 46 43 42 34 30 26 25 29 30 28 25 14 11 3 9 7 8 6 2 4 8 6 6 6 5 4 2 3 3 5 4 3 2 3 5 3 6 5 3 3 3
59 54 46 51 59 59 47 47 41 35 29 26 23 29 28 32 27 17 12 11 6 6 4 4 3 5 4 4 6 6 8 7 9 8 7 5 5 0 2 4 5 1 2 3 6 3 3
65 59 52 46 52 64 52 51 44 38 32 30 28 31 29 34 29 22 8 16 7 7 3 5 8 5 8 7 7 7 8 5 6 10 8 7 1 1 4 2 2 4 5 2 3 2 3
62 66 55 47 48 58 59 52 48 36 37 35 27 15 22 33 31 15 13 12 15 23 4 3 4 3 7 7 9 6 7 5 6 5 6 6 4 4 2 5 8 0 2 4 4 4 4
65 68 60 50 47 54 49 55 49 36 41 38 27 7 24 39 13 11 15 8 9 20 12 4 3 6 5 8 8 9 11 10 15 15 9 7 6 4 8 3 2 4 5 5 4 4 2
61 69 65 53 50 54 46 57 48 41 42 45 22 13 30 41 12 16 9 19 16 9 7 6 5 4 1 7 6 7 7 7 15 9 9 8 1 2 7 5 1 2 4 5 4 3 6
57 70 69 57 52 57 57 47 41 41 43 40 18 8 16 33 38 17 19 12 23 17 15 4 3 3 2 3 2 7 5 2 7 2 16 13 4 8 9 8 4 3 5 5 5 3 4
58 70 71 59 55 56 61 51 44 42 48 48 16 11 16 15 24 21 19 15 19 16 17 16 6 8 3 4 1 4 3 4 3 9 1 4 6 5 3 4 4 4 5 6 7 6 6
53 73 71 59 57 56 59 58 48 46 52 48 15 10 25 5 27 25 17 23 25 23 7 10 16 6 12 9 8 9 6 4 6 2 3 2 3 4 3 2 3 4 7 7 5 3 7
50 75 70 60 55 53 54 55 58 50 57 31 36 18 22 16 18 19 28 23 27 17 21 20 19 11 5 11 21 21 9 13 12 10 5 5 7 4 4 2 2 6 8 8 6 5 6
56 71 68 59 54 51 53 50 50 55 62 38 38 16 9 10 13 21 20 21 24 25 20 21 35 4 6 7 12 14 18 20 14 8 5 6 5 3 3 3 2 7 2 4 5 3 4
71 67 62 56 53 54 56 54 48 53 56 63 26 26 6 3 16 13 23 25 21 28 19 24 17 34 16 12 3 5 5 5 4 7 5 3 5 3 4 4 4 5 4 7 6 4 2
66 63 54 51 52 52 54 51 50 53 52 60 35 38 12 2 11 18 20 28 18 16 12 18 31 26 13 3 3 5 5 5 2 4 6 6 6 4 3 4 8 8 4 5 6 2 4
61 52 49 49 51 51 50 48 51 48 49 57 22 27 17 3 6 31 15 19 27 17 7 7 12 10 21 3 3 3 3 5 7 10 6 3 3 5 3 3 7 7 5 10 5 7 17
46 45 44 44 46 45 48 46 46 44 44 50 39 29 16 1 14 5 22 22 26 30 12 9 7 2 3 4 4 4 3 6 4 6 7 7 7 4 3 2 6 8 6 8 7 11 24
35 38 40 42 42 42 39 41 40 41 44 40 29 30 22 10 8 14 15 26 23 41 32 20 6 8 12 3 2 3 3 2 5 3 2 2 6 6 8 6 4 8 2 8 25 29 22

GFSGBSN_850_spd_024.txt.gz
Wind_Speed
28 26 26 25 25 25 26 29 31 28 25 23 24 24 23 21 20 19 18 17 17 18 19 20 20 17 15 6 3 2 4 3 5 8 9 5 3 1 1 3 2 3 5 8 11 5 3
30 31 30 27 26 25 25 24 26 28 28 26 25 24 23 22 21 20 19 17 18 19 19 19 19 16 12 6 5 3 0 2 5 10 8 4 2 5 5 5 4 6 9 8 4 9 8
33 32 33 32 31 28 26 26 24 22 24 26 26 24 23 22 22 20 19 18 18 19 19 19 18 15 16 17 8 8 4 3 4 6 4 4 5 6 8 4 5 7 3 5 3 7 4
33 33 32 31 34 32 30 28 26 23 21 21 24 25 23 21 21 20 18 18 19 19 20 18 17 14 11 6 15 13 8 4 2 4 5 5 5 12 4 7 6 5 2 3 2 4 4
35 36 34 33 30 31 32 31 29 26 24 20 20 23 22 19 21 18 17 19 19 21 20 18 14 8 10 6 13 13 12 7 4 5 6 6 6 3 4 3 4 6 1 1 1 8 3
35 34 38 36 33 31 28 30 30 28 25 22 21 20 20 17 19 18 17 19 19 19 17 12 13 6 10 3 6 9 10 11 9 3 5 5 0 2 3 4 2 3 1 1 2 4 2
42 39 34 39 39 33 32 30 28 28 26 23 22 20 19 18 17 16 15 15 10 8 5 9 2 6 9 3 7 9 10 10 8 2 2 2 4 5 8 6 2 1 2 1 2 3 5
40 42 43 38 39 38 35 31 29 27 26 25 24 22 20 16 16 17 13 10 7 8 12 18 19 28 28 25 7 9 12 8 7 5 3 5 5 8 5 3 4 5 2 2 2 3 1
39 40 42 48 41 38 37 35 31 26 25 25 25 23 20 13 14 17 12 11 10 11 7 13 18 18 25 18 10 11 17 12 4 6 4 5 5 1 5 4 4 3 1 2 3 2 4
50 43 41 41 50 43 39 36 35 29 25 23 24 24 18 11 14 16 13 6 11 5 4 6 6 8 15 11 5 17 17 12 2 8 8 5 4 5 5 5 5 1 3 0 4 3 2
52 49 44 41 42 50 42 41 38 35 31 29 26 23 20 16 8 4 4 2 6 6 4 3 4 4 16 18 8 15 15 10 8 6 6 7 3 4 3 6 4 4 5 2 3 3 4
55 51 49 44 42 46 50 42 41 37 32 25 24 23 20 22 24 13 9 3 2 4 7 5 7 6 7 7 4 8 14 9 6 5 1 6 1 3 5 3 3 4 3 5 4 3 2
56 54 51 48 43 45 51 47 41 38 35 29 23 22 28 25 24 19 13 7 2 5 4 4 5 5 5 6 5 4 7 7 6 5 3 1 3 3 3 3 4 6 5 3 3 3 4
57 55 53 50 46 42 45 56 44 42 36 32 28 23 31 28 22 16 10 4 9 6 11 4 2 4 9 5 6 4 6 6 2 5 3 6 5 3 1 4 6 4 7 5 3 2 3
55 56 54 53 48 46 42 51 51 45 37 34 24 26 29 35 26 22 10 9 5 5 4 3 4 4 4 5 5 5 8 8 8 7 7 5 5 2 2 2 4 4 3 4 7 3 3
55 54 54 53 54 46 41 45 53 44 38 36 31 29 34 35 29 26 7 16 9 5 2 2 5 5 9 6 6 9 8 6 7 10 6 7 0 1 2 2 1 4 7 4 3 3 3
54 52 52 54 58 50 45 43 53 47 39 33 32 15 16 34 32 16 15 13 19 21 4 2 2 4 5 7 8 6 10 3 8 5 6 5 4 3 0 5 7 2 2 5 5 4 4
46 50 50 57 59 53 48 43 53 54 42 36 30 7 22 40 17 15 19 10 20 21 13 6 2 4 5 6 6 7 10 10 15 14 9 6 6 5 8 1 2 3 6 6 5 4 1
48 47 46 53 58 57 51 45 48 53 46 44 17 12 31 45 13 16 12 21 10 17 11 6 5 5 2 2 3 7 7 6 16 8 9 8 1 1 8 4 2 3 4 4 5 3 6
50 49 49 48 61 62 54 48 48 53 57 51 11 8 17 40 36 18 22 16 23 13 7 5 2 3 1 4 4 4 7 2 14 11 7 12 4 9 10 7 5 4 6 5 6 4 4
53 51 50 50 63 64 57 50 50 57 61 53 17 8 14 13 24 17 22 15 21 17 19 16 3 6 3 2 2 4 2 3 3 6 5 7 7 5 6 6 5 6 5 8 7 6 6
54 53 52 51 63 63 57 48 51 66 57 44 14 8 16 4 27 22 16 24 25 23 10 10 8 8 7 5 5 1 1 4 6 5 5 0 4 4 2 3 2 4 6 7 5 4 4
52 51 51 50 69 65 57 53 58 61 62 37 28 21 10 17 19 19 28 20 21 17 21 12 18 11 3 16 23 22 16 10 4 7 8 7 7 4 4 2 3 6 7 8 6 5 7
52 49 49 43 68 67 60 60 70 65 68 37 41 17 8 5 14 21 21 19 22 23 9 27 20 3 9 16 1 4 7 7 9 6 3 7 7 3 3 3 1 7 1 4 9 6 5
47 47 48 46 69 65 62 62 62 64 60 42 39 24 5 5 10 13 20 23 19 23 18 16 19 20 18 5 2 1 4 3 3 6 4 2 6 3 5 4 5 4 5 7 8 8 7
40 45 42 62 70 62 64 61 63 62 55 52 32 40 11 3 9 17 18 20 18 15 7 19 27 31 9 3 2 5 6 5 4 3 3 6 7 4 3 4 8 8 5 7 5 4 8
41 43 46 70 67 60 62 58 59 60 56 50 47 34 13 3 3 20 14 18 24 17 4 8 23 11 15 2 2 3 5 4 6 10 6 3 3 5 2 3 7 8 3 10 6 8 20
34 48 67 64 53 54 54 53 51 53 56 54 54 38 14 6 20 7 17 22 24 32 9 8 10 12 3 6 4 4 4 6 4 4 7 7 7 4 3 3 7 11 5 9 7 3 28
54 61 61 53 50 51 51 49 49 52 53 47 37 40 17 11 7 13 10 16 25 30 31 23 9 10 14 4 1 4 3 1 3 3 1 3 7 6 9 7 5 15 5 16 9 15 27

GFSGBSN_850_spd_030.txt.gz
Wind_Speed
21 23 23 23 24 23 22 21 21 20 20 22 25 26 25 23 22 20 19 18 17 18 19 20 19 19 17 8 8 7 3 6 10 12 10 8 7 4 2 2 3 10 8 7 8 2 1
24 21 23 25 24 24 24 24 23 21 20 19 20 21 23 24 24 22 21 18 17 17 18 19 19 18 15 10 7 7 6 9 12 13 9 7 3 1 2 5 5 4 12 10 1 6 5
25 26 24 22 26 25 25 23 25 25 22 20 20 19 18 20 23 23 21 19 18 18 19 19 18 18 17 16 8 9 9 9 13 12 8 6 3 3 2 4 3 10 7 3 6 8 3
26 26 26 27 23 24 26 24 25 26 25 22 21 20 18 17 19 21 20 18 19 18 20 20 17 16 10 12 10 13 12 10 12 13 7 5 4 4 3 5 5 5 4 3 6 6 4
27 26 26 27 28 28 23 26 25 24 25 24 23 21 19 18 16 18 17 17 16 19 21 20 14 7 8 9 13 16 15 7 9 11 10 6 5 5 4 7 8 6 4 2 4 7 3
31 31 28 26 27 27 30 24 26 27 23 24 23 21 20 18 14 15 14 14 14 18 20 16 13 7 13 5 7 14 19 13 3 9 5 8 8 8 7 8 7 3 6 5 9 9 8
33 32 33 31 28 26 29 32 25 26 26 23 24 23 21 18 15 12 12 9 7 5 7 10 3 6 2 4 9 11 18 17 9 9 11 10 10 11 12 7 2 3 4 5 1 4 5
38 37 35 36 35 33 28 28 31 22 27 24 21 22 20 17 15 12 9 5 4 5 11 18 22 25 20 5 5 12 16 15 13 14 9 6 12 6 4 6 8 8 6 4 4 2 5
41 40 39 37 36 36 34 30 25 33 23 25 22 20 17 16 13 15 11 9 9 5 7 12 17 17 16 22 14 20 23 16 17 16 14 13 4 5 7 7 9 8 8 4 3 2 4
44 46 44 43 40 37 36 35 28 25 33 23 23 21 16 12 12 13 12 9 7 3 5 6 8 10 14 14 13 21 27 21 8 17 12 11 4 7 7 7 9 10 9 3 4 5 4
43 43 46 47 47 43 37 35 34 29 30 31 22 25 19 16 8 8 6 8 5 7 7 6 5 5 9 22 14 21 27 16 18 13 9 9 10 10 9 8 9 5 8 4 4 3 4
43 43 44 43 44 44 42 38 35 31 26 39 25 23 22 18 21 15 15 12 8 5 9 4 7 9 9 18 10 20 19 15 15 13 13 10 3 5 6 3 8 8 7 4 3 2 6
42 43 44 44 44 44 43 40 37 33 30 27 39 26 26 21 17 13 18 8 6 9 3 7 7 8 14 12 12 17 21 22 17 17 17 16 13 6 6 7 6 13 10 9 7 6 7
47 46 45 45 45 45 44 42 39 35 31 27 38 31 29 27 22 12 15 6 13 12 17 3 4 10 11 13 14 15 22 22 24 21 14 15 15 13 10 12 9 17 16 8 6 6 4
50 50 47 46 46 47 45 44 41 38 33 28 29 36 31 29 27 18 19 14 15 19 19 8 8 8 11 12 8 14 20 26 25 22 17 16 17 5 5 4 7 7 11 3 3 1 4
53 52 49 48 47 48 47 46 44 39 35 31 30 31 35 28 29 29 8 25 17 14 12 17 23 11 11 15 14 16 17 19 25 24 20 9 12 7 7 6 4 7 11 6 5 6 7
51 50 50 49 50 49 49 47 46 42 38 33 28 17 24 33 31 16 10 25 29 19 16 12 13 19 12 10 17 15 14 7 23 20 20 13 11 7 7 11 13 5 6 3 3 3 6
51 46 50 47 51 55 52 50 48 46 43 39 30 10 21 40 17 13 11 32 37 25 22 10 9 11 10 12 13 18 19 14 20 25 22 20 11 12 12 3 6 9 12 13 7 8 1
38 43 43 41 43 58 54 52 51 51 51 47 25 16 28 47 14 14 25 31 29 18 22 12 13 13 8 8 8 15 12 9 18 19 15 14 12 12 14 7 4 9 11 11 4 0 9
43 42 41 42 40 44 52 54 53 58 58 50 21 7 14 39 39 27 32 27 28 28 23 21 12 9 7 10 4 3 8 4 13 19 15 25 15 19 13 15 12 12 13 14 14 9 11
46 45 47 46 44 40 45 51 55 65 61 51 26 9 16 14 24 30 30 28 30 32 27 18 15 19 13 8 5 4 3 5 5 6 9 13 19 16 18 17 18 19 16 18 18 16 15
49 48 47 48 48 45 43 46 59 69 64 46 20 11 27 22 37 30 30 30 31 28 26 25 19 15 14 13 4 5 5 8 1 5 9 7 10 12 16 16 13 16 18 19 19 20 14
47 48 48 48 50 49 47 44 61 71 68 35 32 29 28 18 27 21 24 32 28 29 33 25 23 16 17 17 15 4 7 10 11 3 8 7 8 7 14 7 7 6 17 17 18 17 16
42 47 48 49 51 51 49 45 52 72 72 48 42 31 18 13 18 24 34 29 31 28 26 23 19 17 7 3 5 2 7 7 9 12 11 6 8 5 5 5 7 9 2 17 19 18 16
36 41 49 53 52 50 49 43 44 75 68 44 43 25 18 10 18 25 27 28 25 26 26 24 11 17 14 1 6 5 3 4 8 6 10 10 7 4 5 9 11 4 6 8 12 16 17
23 25 45 53 51 49 47 49 52 75 68 39 39 25 15 13 14 19 24 27 20 19 18 27 19 14 11 3 4 6 7 10 6 5 2 6 6 7 4 8 9 10 13 13 5 13 13
12 24 37 44 46 50 44 43 67 70 68 37 30 39 17 12 10 19 15 21 39 22 14 20 18 11 10 3 4 4 6 8 12 4 5 5 4 11 10 6 7 4 9 14 9 13 1
15 30 37 40 49 46 42 43 65 54 68 42 29 42 24 10 8 5 8 24 30 28 16 20 12 7 7 9 6 4 4 5 8 12 5 9 10 5 7 6 10 14 11 11 13 4 5
29 30 38 41 44 47 45 41 70 52 64 45 30 29 27 15 6 6 8 14 19 42 29 28 14 18 12 8 6 5 2 1 7 6 4 5 6 4 9 7 4 28 19 22 9 8 7

GFSGBSN_850_spd_033.txt.gz
Wind_Speed
23 22 17 18 21 22 22 23 22 22 21 20 20 21 23 24 24 25 24 24 21 20 21 21 20 19 16 8 14 13 7 4 8 8 8 8 9 11 12 4 5 10 8 8 8 3 3
22 21 24 22 18 21 23 22 22 23 23 21 20 20 20 20 20 23 24 25 22 21 21 20 20 18 11 17 6 12 9 7 9 10 8 8 8 6 12 9 10 6 11 13 5 5 5
20 22 23 21 26 20 19 22 23 22 23 24 22 21 21 19 17 18 22 24 22 22 22 20 19 19 14 23 6 7 11 11 11 12 8 8 7 10 9 12 5 12 13 10 10 8 6
22 22 21 21 22 23 25 19 21 22 22 23 23 22 21 20 17 18 19 18 19 21 22 20 19 15 12 10 9 12 14 12 13 13 10 6 8 11 14 14 16 14 13 4 14 8 7
24 25 25 24 22 21 22 26 24 21 22 22 22 22 23 21 18 18 17 16 18 19 19 19 15 6 11 13 14 16 18 15 12 13 10 8 7 14 13 13 15 13 11 11 17 7 9
27 27 27 26 26 23 23 23 22 26 20 22 22 21 21 21 18 18 16 14 15 17 17 12 10 8 18 9 10 17 20 14 15 14 11 12 11 13 13 14 13 10 14 10 5 8 9
30 29 29 28 27 28 27 25 22 23 26 21 22 22 21 20 18 16 14 10 9 6 15 13 4 13 3 6 7 15 23 18 14 16 15 17 13 14 18 15 16 10 8 12 10 14 8
35 34 33 32 30 30 30 30 28 24 22 27 21 20 20 20 17 14 12 6 6 6 14 20 27 26 19 5 10 18 23 21 19 17 17 13 14 16 17 8 8 11 12 13 5 4 5
38 37 37 36 35 33 31 28 29 27 23 29 19 19 18 17 17 17 15 12 8 5 9 20 25 30 26 24 18 22 28 31 21 20 18 16 8 11 7 12 13 13 16 3 7 4 10
35 35 35 34 35 36 34 32 29 29 25 20 29 19 18 15 15 14 14 12 11 5 6 16 8 11 25 23 21 24 29 31 18 21 20 16 12 9 12 16 15 15 12 5 4 8 5
37 38 37 36 37 35 36 35 32 29 28 23 22 28 19 17 7 7 2 9 8 4 7 3 15 4 11 23 9 30 29 33 23 20 15 17 16 14 15 15 12 8 10 7 12 12 7
39 39 39 38 37 36 35 34 33 31 28 25 23 29 22 20 19 16 8 6 10 7 16 9 10 11 12 26 24 14 33 34 28 19 20 19 18 17 16 14 7 6 6 9 13 12 9
39 39 39 40 38 35 36 35 34 29 29 26 24 24 28 20 18 17 12 6 7 14 10 15 9 14 17 17 24 19 27 28 23 22 22 22 15 14 12 10 12 11 12 10 8 9 10
43 40 40 39 41 39 37 36 35 31 28 28 23 24 29 29 21 15 15 6 16 21 29 4 9 13 17 15 23 21 23 25 28 25 15 18 20 22 15 19 15 18 17 12 5 9 9
45 44 42 41 42 40 38 38 36 34 29 29 23 26 28 31 24 20 10 12 22 25 22 28 7 12 16 18 14 22 27 27 30 28 24 19 22 23 18 18 17 12 16 21 19 7 6
44 45 46 44 44 43 40 39 39 37 32 30 30 27 33 32 28 23 8 18 25 30 27 15 27 14 18 17 17 24 23 25 28 31 23 16 16 14 13 10 11 12 5 13 10 12 11
44 45 45 45 45 46 44 41 40 39 35 33 33 17 22 28 28 19 12 19 25 34 34 29 24 23 15 15 21 20 17 16 28 29 24 20 11 16 13 16 18 10 12 9 8 13 10
44 43 43 43 46 46 45 45 42 42 39 40 34 10 21 40 18 13 15 33 46 28 40 19 19 21 28 21 13 21 23 21 16 26 27 26 13 14 17 17 21 17 17 18 10 13 12
45 40 37 39 41 44 48 46 43 46 47 49 23 18 23 44 12 14 25 34 39 38 26 29 26 22 18 18 18 15 21 18 13 18 25 20 18 12 18 15 10 12 16 15 12 13 6
40 39 35 40 36 38 40 42 46 52 52 54 20 9 15 40 39 25 28 32 38 50 31 23 24 24 26 18 15 11 16 8 14 17 31 24 17 21 16 17 15 18 18 18 16 10 12
41 41 40 39 38 38 41 45 46 55 59 62 24 9 15 15 22 32 33 26 34 35 41 38 23 24 24 21 19 17 11 5 6 14 7 15 21 17 24 20 20 22 24 22 20 18 18
44 44 43 44 45 42 43 43 45 53 69 55 15 12 25 20 38 31 27 31 33 35 32 30 26 25 20 23 8 2 10 2 11 11 13 16 15 20 22 22 21 19 18 20 22 23 21
48 48 47 47 47 46 45 46 44 49 71 33 24 31 31 19 26 23 26 34 38 34 39 39 31 22 20 20 2 14 9 7 12 8 10 14 12 13 17 20 19 19 17 19 19 21 17
53 50 50 47 48 48 48 46 45 45 73 42 46 43 21 13 17 26 34 32 35 37 32 35 39 23 25 3 5 1 3 13 14 16 13 8 12 8 10 4 14 10 16 22 22 20 19
41 41 47 45 45 46 50 48 47 46 59 60 45 41 19 10 22 27 30 28 30 40 25 26 40 31 26 9 6 4 1 5 10 19 18 11 8 6 9 11 13 18 13 12 15 17 17
35 40 42 43 44 46 49 49 48 48 49 62 44 47 26 14 15 33 22 31 20 24 14 28 33 14 20 7 7 10 9 7 7 7 10 12 9 8 7 15 18 12 16 15 14 14 13
15 15 34 40 43 45 46 50 50 48 48 58 36 47 29 13 13 17 16 22 35 25 18 19 15 12 19 9 7 7 12 10 9 7 5 5 5 11 13 9 9 11 13 15 13 12 6
12 15 22 38 40 46 45 47 47 46 58 53 40 37 31 13 19 7 20 24 30 29 16 21 19 11 11 11 8 6 6 9 11 16 10 7 8 6 10 12 14 8 10 14 15 17 7
4 3 20 35 45 44 49 47 43 38 68 37 39 31 22 9 7 9 7 15 21 43 33 21 19 20 13 9 6 5 4 2 12 9 17 9 9 6 8 6 9 19 20 23 22 13 10

GFSGBSN_850_spd_036.txt.gz
Wind_Speed
22 22 24 25 22 20 19 20 21 21 22 22 20 21 20 19 19 19 21 23 24 24 23 23 22 21 21 8 17 14 11 10 7 9 8 10 10 12 16 12 9 11 14 12 13 8 5
18 19 21 22 24 27 22 20 20 20 21 21 22 22 21 19 18 18 19 20 22 23 22 21 20 21 14 19 8 14 14 13 9 11 10 11 11 12 11 16 13 8 13 15 17 9 3
19 20 20 18 19 21 23 25 21 20 21 21 21 22 22 21 19 18 19 18 20 21 20 20 18 19 18 29 9 7 10 13 11 13 12 10 9 9 14 14 14 13 14 16 14 10 3
22 21 21 22 20 19 18 20 28 24 21 21 21 20 22 22 19 19 19 18 19 18 19 18 16 15 15 13 11 20 16 15 14 14 13 8 8 11 15 16 19 16 18 16 4 9 9
24 24 24 23 23 24 21 20 20 21 27 21 21 22 22 23 21 19 19 18 17 17 19 16 14 7 14 13 20 20 18 19 16 15 14 11 9 14 15 14 13 15 15 8 6 12 11
26 26 26 26 25 25 25 23 21 21 21 25 22 20 21 22 22 20 18 16 14 20 16 9 9 9 17 15 13 16 19 20 18 15 15 15 11 12 13 12 13 7 13 16 7 7 12
28 29 29 29 28 27 25 25 25 24 21 19 25 22 20 18 21 20 17 13 9 4 9 11 9 14 17 5 3 12 20 21 17 19 16 20 12 15 18 18 19 16 8 16 7 4 6
32 32 34 34 32 31 29 26 26 24 25 21 19 22 19 17 17 19 13 5 5 9 14 21 28 29 30 18 10 15 21 22 22 20 19 17 18 18 18 18 18 16 12 18 9 12 8
32 33 31 31 30 30 30 29 28 25 23 21 20 19 19 16 16 20 15 17 9 14 11 25 30 30 33 27 26 18 27 30 20 20 20 20 18 19 16 19 15 12 16 14 9 6 11
35 34 32 31 30 29 28 27 28 27 24 22 19 18 19 13 13 9 13 13 11 9 7 13 17 13 33 28 29 30 29 32 19 23 23 19 21 15 10 13 13 15 15 5 12 10 8
37 35 34 33 32 32 30 28 27 27 27 24 19 18 16 15 9 4 2 6 5 3 7 6 25 11 11 31 7 31 32 33 25 23 15 20 19 18 14 16 17 14 2 13 12 13 13
37 37 36 35 33 33 32 31 28 25 24 25 22 19 16 19 19 14 9 8 9 5 12 7 10 12 11 24 32 12 35 33 33 24 22 22 24 19 16 16 17 13 9 10 12 11 9
39 39 39 37 36 34 32 32 28 26 24 23 24 20 22 16 15 7 16 9 7 13 8 13 14 10 14 15 23 23 23 25 23 22 21 22 24 18 16 18 17 10 9 8 10 9 7
41 41 40 39 38 36 34 32 30 27 24 23 22 23 22 18 19 8 9 7 16 21 30 5 12 18 17 15 19 22 22 23 25 24 16 17 17 23 15 19 18 15 16 8 7 4 7
41 41 40 40 39 38 36 33 32 31 26 23 21 26 23 21 25 15 7 10 17 27 21 28 24 7 14 17 17 18 24 22 23 26 21 18 22 20 17 17 18 15 16 16 18 5 3
42 41 40 40 40 39 38 36 34 32 29 25 27 27 28 22 26 19 5 10 24 29 30 27 26 22 19 16 18 17 23 18 23 26 23 19 13 21 21 20 19 17 12 11 11 10 7
43 44 44 42 41 41 40 39 37 35 32 28 29 15 19 27 27 20 13 21 27 44 33 31 24 23 21 26 16 20 22 22 25 24 24 20 14 11 17 21 18 13 12 7 16 10 6
45 46 45 44 42 42 41 40 41 40 36 35 33 8 19 36 18 11 17 39 40 25 41 30 26 25 23 19 23 17 22 18 20 24 27 25 11 13 17 14 17 17 16 17 10 9 6
46 45 43 42 41 40 41 42 42 43 43 45 25 14 25 49 14 17 22 31 33 29 31 31 28 27 23 16 12 16 21 19 23 18 25 20 18 10 17 16 19 19 18 13 15 10 12
45 42 42 40 38 34 37 39 41 46 48 51 20 7 15 40 38 27 27 32 32 43 29 35 29 29 21 20 10 13 19 15 7 10 13 11 13 21 15 14 9 14 20 17 18 9 11
40 37 35 36 36 36 34 38 39 46 52 58 22 7 16 14 22 30 26 19 34 27 36 38 28 30 25 21 10 16 21 28 12 14 8 6 16 18 21 20 20 17 20 20 20 21 17
36 37 38 39 39 38 37 35 41 48 51 65 15 8 26 16 32 27 26 30 31 28 26 32 29 30 26 22 14 18 11 15 11 10 11 5 12 15 23 21 19 22 22 20 21 22 20
40 41 40 41 41 41 42 42 41 45 51 34 28 32 27 22 23 20 25 31 35 27 25 34 33 24 25 21 15 3 6 5 12 10 8 11 10 17 19 19 13 21 21 19 16 18 17
41 41 42 44 44 45 45 45 47 50 53 47 32 37 12 11 18 24 31 35 34 31 25 27 35 28 32 6 8 9 4 11 4 14 14 12 12 11 7 2 20 10 14 16 16 16 15
42 42 41 41 42 46 48 49 49 52 52 55 21 34 19 9 18 24 31 26 33 30 27 24 33 41 34 21 2 1 2 4 4 12 17 12 10 7 9 13 13 18 13 14 13 18 18
37 38 38 39 41 44 48 51 51 53 51 50 33 43 22 15 16 39 19 29 18 19 19 26 40 34 33 11 8 9 8 6 6 6 6 18 14 8 5 15 18 5 11 15 17 13 12
35 34 37 35 36 42 45 51 50 53 50 51 42 44 25 8 26 26 14 18 30 26 15 19 30 20 28 4 3 8 8 9 7 6 5 2 8 11 10 6 7 7 13 23 17 8 8
31 29 27 27 26 37 41 43 44 50 47 49 45 46 39 5 20 18 19 20 25 31 14 18 10 9 8 11 12 8 6 8 11 10 8 7 3 4 7 8 12 7 13 17 10 12 9
11 16 22 25 27 36 35 37 40 49 47 43 25 45 37 20 2 11 14 20 22 26 26 23 19 16 7 5 6 6 3 4 6 4 5 3 8 3 5 2 5 17 22 20 14 11 14

GFSGBSN_850_spd_039.txt.gz
Wind_Speed
21 18 27 32 28 25 25 23 20 19 20 22 22 22 21 19 20 19 19 19 19 20 21 20 20 20 19 8 22 16 11 11 10 11 13 10 13 18 7 9 16 4 5 13 12 16 4
17 16 16 17 17 21 22 23 26 23 21 22 22 22 22 22 21 20 20 18 19 19 19 18 17 18 15 12 6 8 15 17 14 13 11 11 14 16 9 13 7 12 12 9 18 21 6
19 17 18 18 19 19 18 18 20 23 25 23 21 21 22 23 24 22 21 19 18 19 18 16 16 17 22 32 10 7 8 13 11 13 11 6 13 11 12 8 14 23 7 7 14 16 4
20 20 20 21 21 20 21 20 19 20 19 25 25 22 21 23 24 24 23 22 19 18 18 15 15 14 15 16 12 25 18 16 15 13 15 15 11 7 9 14 13 7 7 5 10 9 2
22 22 21 22 23 22 22 22 22 19 20 20 19 24 22 22 25 25 24 22 19 19 20 16 15 9 16 7 14 21 20 20 17 14 14 16 11 8 14 4 6 5 8 8 8 5 5
23 23 24 24 24 24 23 23 23 23 22 20 18 19 21 20 21 25 25 22 16 21 20 11 6 8 13 9 10 7 20 19 20 16 13 15 7 4 4 2 6 8 4 4 1 5 3
25 25 26 27 27 28 28 28 26 24 22 20 20 20 19 21 19 21 22 17 6 5 9 12 8 13 22 13 10 7 9 20 21 19 9 12 4 8 10 13 17 13 12 6 4 6 7
27 26 27 28 28 29 30 29 27 25 24 22 19 19 18 17 17 20 16 10 5 9 14 18 26 35 35 31 17 15 13 17 19 12 7 7 15 14 15 18 17 16 10 7 6 1 4
28 27 29 30 30 28 26 24 25 25 24 23 19 16 15 16 15 19 14 15 12 12 8 22 31 29 36 28 33 32 20 30 9 9 12 13 12 18 19 18 16 15 7 5 3 5 10
29 28 29 30 30 28 26 25 24 23 22 22 20 17 14 12 12 8 7 8 6 7 5 7 10 12 23 26 12 34 25 27 7 16 15 12 20 20 17 18 12 9 6 9 5 1 4
29 30 32 31 30 29 28 26 25 23 23 22 22 17 13 9 7 10 1 7 8 8 5 7 6 11 15 26 15 20 34 23 19 16 9 14 7 12 17 12 6 11 7 1 2 3 2
32 33 33 32 31 31 30 27 25 23 22 21 20 19 14 15 18 15 10 5 8 3 10 7 8 7 8 26 14 4 24 33 20 15 17 15 22 15 13 9 8 9 4 3 3 1 4
35 35 34 35 34 33 31 29 27 24 21 19 18 18 19 15 20 6 12 3 2 7 5 6 4 9 7 8 18 14 7 12 12 15 17 16 22 14 14 7 7 6 2 1 3 2 6
35 37 36 36 35 34 33 29 28 25 22 19 18 18 21 19 16 9 7 2 9 10 17 1 1 1 10 9 10 14 16 12 16 13 5 13 14 19 12 14 8 10 7 5 4 2 4
37 38 39 38 34 33 32 31 29 26 23 20 17 21 23 22 17 16 7 9 10 6 13 15 17 14 12 8 6 13 16 16 12 19 15 11 18 6 16 9 12 10 6 8 4 3 2
37 38 40 38 36 34 33 31 30 28 25 22 22 24 28 21 16 19 5 18 19 24 14 11 9 6 13 9 7 9 8 8 17 20 19 6 7 18 15 12 10 9 3 2 0 4 4
39 41 40 39 37 36 36 34 31 30 29 24 26 13 17 26 22 12 12 16 22 21 17 15 15 13 14 10 9 8 11 11 9 14 20 19 15 12 11 13 15 4 7 3 4 5 4
42 42 41 40 38 38 38 38 35 33 31 29 27 6 17 36 13 10 20 12 13 12 26 17 8 12 14 17 15 11 5 6 20 11 17 18 4 13 22 11 11 9 13 10 5 5 4
45 44 43 41 41 40 39 39 38 37 37 35 19 13 27 47 12 17 18 29 25 21 13 5 14 9 8 17 9 4 2 7 15 13 10 11 15 14 12 12 9 19 13 10 5 5 7
46 45 44 43 42 40 40 38 39 40 41 42 16 6 12 41 35 25 23 26 25 12 23 26 17 17 19 17 14 10 3 3 17 17 33 19 14 15 20 5 5 6 7 9 9 5 5
46 44 42 41 39 39 38 40 41 42 43 45 22 9 16 13 24 20 18 7 26 18 19 23 15 23 21 9 15 10 3 6 7 18 15 6 10 22 18 14 12 14 21 19 17 14 10
44 42 39 36 34 32 33 33 35 38 44 50 15 9 17 11 28 22 19 28 28 20 17 20 19 17 14 19 21 13 4 3 1 9 11 11 12 6 7 19 20 15 16 21 16 6 14
39 36 36 36 35 34 35 36 37 42 42 38 32 32 21 17 15 17 28 34 30 17 20 31 18 18 19 23 14 9 12 15 11 4 6 11 10 7 15 3 6 12 18 14 9 15 12
37 37 38 38 38 39 39 39 40 43 46 45 35 24 16 6 18 23 28 27 26 19 20 18 35 16 38 12 13 5 13 7 7 7 13 4 16 4 5 4 8 16 5 13 10 13 12
39 40 39 39 40 40 41 41 43 45 48 47 24 22 16 10 17 22 25 20 31 23 22 24 34 23 13 20 8 4 2 2 7 7 12 6 4 5 3 11 5 12 7 12 10 12 7
38 37 36 37 39 42 46 47 47 47 49 47 35 29 12 5 12 39 22 27 14 16 17 23 35 31 21 4 4 7 4 3 4 1 5 10 2 2 5 8 16 3 15 11 1 7 4
34 36 39 39 40 40 42 44 46 49 50 49 41 32 19 2 16 33 16 22 33 16 11 17 17 17 19 3 3 6 6 6 4 3 5 3 3 3 11 4 7 6 9 4 5 5 7
31 33 37 39 40 40 40 42 45 47 52 51 43 36 32 7 7 20 30 18 29 27 12 9 7 13 2 4 4 4 4 5 3 6 7 8 8 5 4 4 6 18 7 12 6 16 21
28 26 26 24 29 36 37 39 42 48 52 52 29 35 33 24 9 26 27 35 25 34 28 20 11 6 12 4 4 4 3 6 15 9 3 4 6 7 8 5 9 24 11 26 23 23 27

GFSGBSN_850_spd_042.txt.gz
Wind_Speed
15 15 16 15 20 24 26 25 26 26 24 22 23 23 24 24 24 24 21 18 17 18 18 17 18 18 18 6 24 17 18 9 10 9 10 14 10 6 3 5 8 4 7 13 6 6 12
16 16 16 15 15 15 18 24 21 20 22 22 23 23 24 26 25 27 23 21 19 19 18 17 16 18 14 8 13 8 12 12 11 12 12 15 9 5 11 5 3 10 15 11 10 8 13
16 18 17 17 16 16 17 16 18 20 20 21 20 23 24 25 28 28 26 24 20 19 19 17 16 17 17 30 17 9 15 15 9 10 14 13 12 10 6 6 7 13 6 9 9 7 6
17 18 18 16 17 17 18 18 18 19 23 21 21 22 20 25 26 27 29 25 23 19 19 17 16 16 16 14 17 20 25 21 12 10 15 13 7 15 5 4 9 5 5 2 6 3 6
19 19 19 17 18 19 19 19 19 20 21 22 22 20 20 21 23 26 28 27 22 19 20 18 14 12 17 9 11 9 22 31 15 11 15 12 12 7 3 3 4 2 5 5 11 9 6
20 19 19 20 20 21 20 22 22 23 24 21 20 21 21 21 22 23 28 24 19 19 17 14 8 8 16 12 8 13 8 21 17 10 14 13 7 3 2 3 6 5 4 4 7 5 3
20 21 22 22 20 21 22 24 25 26 24 23 21 19 21 21 20 18 25 17 6 3 3 10 8 16 23 14 17 8 12 20 15 15 7 5 4 8 11 10 8 5 7 10 14 10 6
21 21 23 22 22 22 23 24 23 22 22 22 21 19 19 18 18 15 17 14 3 7 14 22 22 35 39 29 16 15 6 16 11 9 6 3 14 10 9 8 8 9 10 17 10 4 5
22 22 23 23 22 24 24 23 22 21 20 19 19 19 16 18 19 11 12 10 11 16 7 15 29 28 32 25 25 28 12 20 5 6 9 12 8 14 10 11 10 13 10 13 9 3 3
23 25 23 24 23 25 25 24 23 20 19 19 18 17 14 14 14 8 6 4 13 11 4 8 8 14 24 20 11 34 29 16 6 14 8 8 13 12 8 11 11 11 13 10 7 3 4
25 28 26 25 25 26 25 24 23 21 20 19 18 16 15 12 11 12 3 11 11 5 5 6 6 6 14 24 14 19 34 23 14 10 8 9 7 12 16 19 11 14 15 9 5 4 2
26 28 28 27 25 26 25 25 23 22 19 18 18 16 14 17 20 16 17 15 3 2 9 6 5 7 9 14 4 6 20 18 7 6 9 9 14 6 8 10 10 10 3 3 3 2 1
28 28 27 27 26 26 27 29 25 23 20 17 17 16 17 19 22 9 10 6 2 7 4 4 2 6 6 8 4 2 7 11 8 7 13 12 20 15 9 7 13 5 5 2 3 2 6
29 28 28 27 26 27 28 27 26 23 21 18 17 16 19 22 15 9 8 3 11 3 11 4 6 9 1 4 5 4 6 5 10 4 4 12 6 17 12 17 6 8 9 6 6 4 5
30 30 28 28 27 28 30 27 25 23 22 19 16 19 22 22 15 11 4 8 6 5 6 7 13 6 4 1 5 9 8 8 7 14 7 6 8 8 15 11 8 6 5 8 5 2 2
32 32 30 30 29 30 32 27 26 23 23 20 20 22 27 20 18 14 5 18 7 7 4 9 3 2 3 5 4 6 2 4 7 10 14 5 6 6 16 6 12 13 5 2 1 6 4
34 33 32 30 31 31 31 28 29 26 25 22 22 12 16 26 21 14 11 12 10 17 11 3 6 4 3 5 6 3 4 6 2 3 17 9 10 8 5 5 15 2 4 1 5 5 6
35 34 32 33 34 33 33 31 28 28 26 22 23 5 18 31 13 11 19 12 6 10 12 12 5 5 9 4 3 3 3 5 6 2 4 5 7 12 23 17 10 7 11 11 6 4 3
37 34 35 37 37 36 35 32 31 30 30 25 12 9 29 42 12 19 15 16 21 3 6 3 7 10 2 4 3 5 6 2 7 4 4 6 4 4 7 9 5 8 5 10 5 4 9
38 36 39 40 39 37 35 34 33 33 32 30 7 5 11 35 18 18 20 21 20 16 22 23 12 9 5 3 6 7 2 3 3 6 11 8 5 5 11 7 5 5 11 10 11 6 5
38 40 42 41 39 37 36 36 35 35 35 33 19 7 11 9 20 14 15 10 24 19 16 14 6 19 9 5 5 7 4 2 2 2 5 4 6 12 17 14 18 19 9 9 14 7 9
42 43 42 40 39 37 36 36 36 36 35 40 13 10 9 1 21 22 20 23 24 17 12 13 15 4 17 20 9 8 7 5 5 2 3 2 2 10 10 13 16 20 20 16 15 10 7
45 43 41 38 37 35 33 33 35 37 38 32 35 21 15 14 11 17 31 34 16 16 13 32 15 15 13 7 14 14 11 10 6 7 3 5 3 5 6 16 13 11 27 19 6 7 6
43 40 37 34 33 32 32 33 35 36 43 43 26 23 11 6 15 27 16 20 21 19 22 16 25 15 19 24 13 7 1 1 3 2 5 6 6 4 7 14 8 18 4 16 16 9 7
37 35 31 32 33 34 34 34 35 35 37 44 37 17 19 10 15 20 23 21 25 27 21 24 32 30 15 17 1 5 3 2 6 6 8 4 5 3 4 7 16 5 12 3 7 14 8
32 33 34 35 34 34 36 36 38 40 40 43 38 42 15 4 17 29 19 21 13 16 14 30 25 29 26 2 3 9 5 3 4 4 7 7 3 4 3 4 6 9 7 19 2 8 9
35 36 34 36 37 36 37 39 41 41 43 46 35 39 26 4 14 22 14 19 22 16 9 6 26 11 16 4 5 5 7 6 6 9 6 3 0 7 4 4 8 11 23 15 11 7 19
34 34 35 36 35 36 38 39 40 43 46 45 43 30 37 12 17 13 28 15 24 30 12 7 5 8 2 7 4 4 4 6 4 7 7 8 8 5 5 4 10 2 13 5 6 9 21
24 27 30 33 35 35 38 41 41 44 46 48 32 39 30 21 5 19 19 28 25 38 31 19 9 8 12 4 4 2 2 1 6 3 4 4 7 5 9 7 4 3 1 10 5 9 13

GFSGBSN_850_spd_045.txt.gz
Wind_Speed
12 14 13 13 14 15 17 19 17 15 19 22 23 26 26 26 26 28 28 24 24 23 22 19 20 22 20 8 20 13 12 12 9 9 10 13 12 7 4 4 2 5 4 14 20 10 8
13 14 14 14 14 16 17 19 20 21 17 18 20 23 22 23 26 29 29 27 27 23 23 19 19 21 16 8 10 10 16 22 15 12 13 14 7 5 5 4 4 3 10 18 14 11 8
14 14 14 15 15 15 16 18 19 19 21 23 21 21 21 22 22 26 27 29 27 25 22 19 18 19 21 30 15 12 13 14 15 14 15 12 16 4 1 3 1 3 6 9 5 7 7
16 15 16 15 15 16 17 20 19 18 18 19 23 23 22 22 24 24 25 28 25 24 20 18 18 15 16 17 21 17 20 18 19 14 13 11 10 7 6 3 4 4 0 4 2 4 3
16 15 16 15 16 16 17 19 22 20 21 21 22 21 23 22 25 27 28 28 25 21 21 16 14 11 18 14 12 4 8 25 21 15 13 9 6 7 5 5 3 3 4 4 8 3 4
16 16 15 17 19 20 19 19 22 21 23 25 23 21 22 23 25 25 27 26 18 12 11 9 7 8 20 15 9 11 12 10 22 12 13 9 8 4 2 4 6 6 4 3 4 5 3
18 18 17 19 20 20 18 18 21 20 21 21 20 20 20 21 22 24 24 26 6 2 3 11 9 15 11 10 14 6 8 6 14 13 6 7 4 9 12 8 3 3 2 4 7 9 4
19 19 16 18 19 21 18 20 20 19 19 20 19 19 19 21 20 21 18 9 9 10 14 22 28 37 40 31 19 22 2 10 9 6 6 1 16 6 8 5 5 4 5 8 11 12 8
20 20 17 21 22 22 19 21 20 20 19 19 17 16 17 18 20 18 10 3 9 17 8 13 27 31 38 23 26 36 18 7 5 7 10 7 5 14 11 6 6 7 6 8 8 6 1
21 21 19 22 24 22 21 20 21 20 19 18 17 15 16 17 17 9 7 3 10 13 4 7 7 11 16 17 9 37 24 13 6 14 7 6 16 5 5 10 8 6 9 12 8 1 5
22 24 21 23 24 23 21 20 20 20 19 18 17 16 13 15 13 15 8 12 14 1 5 3 5 4 8 18 3 15 35 21 9 7 8 9 6 9 10 16 7 9 4 9 11 6 3
24 25 24 24 26 23 21 20 20 20 18 18 17 16 14 18 21 16 18 13 5 2 8 6 4 5 7 12 4 5 17 15 16 3 2 10 3 6 9 7 10 8 4 5 1 3 3
26 25 25 26 24 22 22 20 20 20 22 19 17 16 16 20 19 12 11 8 3 6 6 5 4 1 3 6 4 2 9 12 8 6 9 4 10 3 1 2 2 4 3 3 3 1 6
27 27 26 24 24 23 22 21 19 19 21 20 17 17 19 24 16 12 8 2 11 3 7 5 5 10 2 4 5 2 6 8 5 3 4 10 6 11 6 14 6 7 9 5 6 3 5
28 27 26 26 25 24 23 22 21 20 19 20 18 20 23 25 17 12 3 9 4 4 4 6 9 3 4 5 1 3 4 7 9 8 6 5 6 4 6 9 11 5 5 7 3 3 2
28 28 26 28 26 25 24 22 22 22 18 18 19 22 27 24 18 15 4 14 9 3 7 4 5 5 7 8 5 3 1 2 3 7 9 4 3 5 5 6 6 8 4 2 2 4 5
30 32 30 29 27 25 23 21 22 21 21 19 20 11 13 25 20 15 9 9 10 26 16 6 1 4 3 5 6 7 2 2 5 5 4 6 5 4 5 4 6 2 3 3 3 4 8
33 33 32 30 28 25 24 24 24 23 19 23 18 4 16 28 10 6 13 12 15 6 7 10 3 5 5 2 5 2 4 3 5 3 3 1 1 5 17 14 5 1 5 6 7 7 4
32 34 32 31 29 28 28 26 27 24 23 22 8 7 23 36 11 14 8 11 10 3 2 1 4 1 3 3 4 5 4 2 4 4 3 3 3 4 7 6 2 6 7 8 2 2 16
37 35 33 33 30 30 30 30 29 27 26 28 6 4 10 29 11 16 11 14 13 18 15 5 2 4 2 3 3 4 4 5 10 4 9 7 2 3 2 5 8 7 15 8 12 7 3
38 36 35 33 32 33 34 33 31 29 28 27 12 6 8 8 15 7 17 10 20 15 13 9 9 13 6 4 3 4 7 6 5 3 3 2 3 2 5 6 10 15 16 18 16 12 13
38 36 36 34 35 37 37 35 34 32 29 33 12 6 8 2 14 19 16 21 17 18 11 16 7 2 9 13 14 6 3 1 5 2 3 3 5 1 4 6 2 13 20 18 19 14 8
37 37 37 38 40 40 38 37 36 35 34 29 30 22 10 8 10 17 22 18 16 14 21 21 14 14 10 18 18 25 24 22 11 5 4 5 4 2 5 2 6 8 5 13 17 17 9
41 41 42 43 41 40 38 37 36 35 39 43 26 21 14 8 15 13 16 22 22 19 17 20 31 9 17 17 20 15 11 14 12 8 7 6 6 3 4 1 3 9 3 14 18 20 15
48 47 44 41 39 37 35 34 33 34 37 45 34 28 19 13 8 17 15 13 23 28 20 23 20 20 14 13 4 4 3 1 7 8 8 5 5 2 2 2 7 9 6 2 8 24 23
45 41 39 37 35 34 32 32 31 32 34 40 39 35 19 8 14 9 8 20 8 14 11 20 22 22 16 3 1 3 4 4 3 4 5 5 3 3 3 2 6 18 5 16 12 20 5
35 33 32 32 31 31 32 33 34 34 34 37 32 35 22 8 8 20 11 10 9 13 4 11 21 12 17 3 3 4 5 4 4 8 5 3 1 7 4 4 8 8 1 7 1 7 22
26 29 32 33 34 34 35 34 35 35 36 39 38 24 35 10 9 8 20 13 22 28 7 10 6 8 3 6 4 4 4 5 5 6 7 7 8 4 4 4 8 7 4 7 5 36 27
27 28 27 29 30 32 36 38 36 37 39 38 29 40 29 14 7 23 29 21 17 29 31 23 11 9 13 4 4 3 2 1 5 4 4 4 6 5 9 7 7 7 5 12 6 12 32

GFSGBSN_850_spd_048.txt.gz
Wind_Speed
10 11 12 13 13 15 16 17 18 19 20 20 19 21 24 23 25 26 31 27 28 26 26 23 21 23 25 11 17 12 10 10 7 10 11 10 14 7 4 5 6 4 4 5 14 20 9
11 12 12 13 13 15 16 17 18 20 20 20 22 21 23 25 25 23 26 25 25 28 26 22 19 23 18 8 10 12 17 24 19 14 12 13 7 13 6 4 6 5 7 12 8 10 5
13 13 13 13 14 15 16 16 16 17 18 19 20 21 24 23 23 24 26 25 21 27 24 23 17 19 21 31 20 18 13 14 15 16 14 13 13 6 2 2 7 4 5 6 4 2 3
12 14 14 15 13 15 17 18 19 20 20 19 21 23 24 24 25 26 27 24 22 22 27 25 19 14 16 20 26 25 18 19 16 16 14 11 11 7 4 3 3 1 3 3 3 4 2
14 14 14 15 15 17 19 21 21 20 19 21 22 25 24 24 25 25 28 31 28 21 24 20 16 12 16 13 16 3 4 17 19 17 11 4 9 5 3 4 4 5 4 5 5 3 3
15 14 16 17 17 18 19 19 17 20 21 20 20 21 22 23 24 26 29 27 15 10 6 6 6 7 17 13 8 8 7 8 10 19 9 10 7 4 3 4 7 5 4 5 5 2 3
17 16 17 17 14 18 18 19 16 21 20 19 19 20 21 21 22 25 29 23 5 2 9 11 8 9 5 8 9 7 5 2 10 12 7 8 5 12 10 7 4 5 2 3 5 3 3
19 17 18 18 14 20 20 20 17 20 20 19 18 19 20 22 22 22 21 6 8 11 15 27 30 37 36 14 12 23 8 7 7 6 6 3 16 7 8 7 6 3 3 6 9 3 4
21 17 19 19 16 21 20 20 19 20 19 19 17 17 19 21 22 21 11 1 3 20 7 15 21 23 28 27 22 33 15 8 4 6 9 8 3 12 8 6 7 5 6 5 8 5 4
22 19 20 20 18 21 23 22 19 18 17 17 17 16 18 19 17 8 10 2 13 19 5 7 5 6 12 14 9 37 21 15 5 11 6 7 5 4 4 10 8 8 9 8 5 2 3
22 22 20 22 21 20 24 22 19 17 17 17 17 15 15 16 16 17 16 17 14 3 5 1 2 1 10 15 6 7 33 19 10 7 7 8 6 11 5 5 8 7 7 9 5 5 1
23 23 21 22 21 21 24 20 18 18 16 18 17 16 14 18 20 18 17 13 9 1 7 7 2 3 3 8 5 5 11 8 16 5 2 8 4 8 11 7 11 4 4 4 1 3 3
25 24 23 23 21 24 20 19 19 17 16 17 17 16 16 19 14 14 11 11 2 5 6 5 4 2 8 4 5 3 6 6 7 8 7 1 5 2 3 5 2 3 4 1 2 1 5
26 25 24 25 23 23 21 18 20 17 15 16 18 18 18 21 19 14 8 1 10 2 6 6 6 12 3 3 4 4 8 6 5 4 4 9 5 11 5 7 5 5 7 5 6 4 4
26 27 26 24 23 24 23 19 19 17 16 14 19 21 23 23 17 11 3 5 3 5 5 7 8 5 6 6 5 3 5 7 6 6 5 5 5 1 4 7 11 5 4 6 3 1 2
28 26 25 24 25 25 25 21 18 16 15 12 19 20 27 21 18 13 3 8 5 2 5 6 3 5 6 8 7 7 2 4 1 7 2 3 1 2 0 5 3 7 5 3 2 4 5
29 28 26 26 27 27 24 22 18 15 12 12 17 10 13 16 18 11 6 6 5 22 12 4 4 5 4 5 6 6 7 3 6 5 3 4 3 4 2 3 5 3 3 0 4 5 4
30 29 28 28 30 29 26 21 18 14 13 16 15 5 10 17 11 4 9 5 6 4 4 8 4 6 3 5 4 3 4 5 18 6 4 3 3 4 10 7 5 1 2 6 4 5 4
31 31 31 31 30 29 26 23 20 16 16 16 7 9 9 30 8 9 3 9 6 3 3 3 3 2 1 1 3 3 4 6 20 8 3 1 2 2 1 1 6 5 3 6 4 3 7
33 34 33 30 30 30 27 25 22 20 21 20 7 3 13 28 14 14 8 9 8 11 7 2 3 3 3 4 2 4 6 3 14 5 6 2 3 4 2 2 3 3 6 5 1 3 4
34 33 32 32 33 32 29 27 25 25 24 24 13 6 7 6 11 8 14 9 14 8 11 2 3 5 1 2 5 3 4 6 3 5 4 1 4 3 3 5 4 8 9 6 5 6 7
35 33 34 35 35 33 30 29 29 29 27 30 11 7 9 4 12 14 15 13 17 17 10 7 6 2 6 8 8 7 6 1 4 6 3 4 1 3 4 9 10 11 7 8 6 5 8
35 36 38 38 33 31 31 31 32 31 31 27 28 23 14 12 5 13 14 15 17 12 14 25 10 8 8 13 13 21 19 19 9 4 7 3 3 2 2 2 3 7 7 12 7 5 5
35 36 36 36 37 36 35 35 35 36 39 39 19 20 9 7 12 11 15 18 17 19 14 17 25 6 6 3 14 8 16 18 12 12 11 2 3 2 1 0 3 6 3 5 8 9 8
38 39 41 41 40 39 39 39 39 39 42 43 33 25 17 9 11 14 14 11 24 27 21 17 16 32 14 6 4 4 2 2 5 13 9 6 4 2 3 3 7 10 6 6 8 17 5
44 43 44 44 43 42 41 40 40 41 41 42 45 40 18 4 14 22 8 16 10 12 14 21 30 17 8 2 3 3 3 3 3 3 6 6 3 3 3 2 5 4 3 5 3 9 3
40 35 34 39 41 41 40 39 38 37 39 42 32 45 26 8 17 24 11 9 8 10 4 6 15 12 16 2 3 4 3 3 3 5 5 5 1 8 3 3 7 6 6 1 2 6 13
34 29 27 24 30 34 34 34 35 33 35 38 37 30 42 12 13 18 25 16 12 16 4 8 6 6 3 6 3 4 3 4 3 4 6 6 6 4 4 4 8 7 2 6 7 11 11
28 30 30 28 27 26 27 27 27 28 29 31 23 28 37 15 4 28 22 30 25 33 28 23 12 9 13 3 3 2 2 1 6 3 1 3 6 6 8 7 4 7 10 11 16 18 19

GFSGBSN_850_spd_051.txt.gz
Wind_Speed
9 7 8 9 10 12 13 14 15 15 16 18 19 19 20 21 24 26 24 25 23 23 23 21 22 25 24 13 20 18 11 7 9 15 15 16 19 8 7 7 8 6 4 8 13 12 11
11 10 10 10 11 12 13 14 15 15 16 18 19 20 22 24 23 24 25 26 24 22 22 21 18 24 19 7 10 9 6 18 16 13 16 16 12 13 7 6 9 6 9 9 9 10 5
11 12 11 12 12 11 13 15 15 16 16 17 19 20 22 26 26 27 27 26 27 24 22 22 22 19 21 31 19 29 23 18 16 18 18 17 11 10 9 3 10 3 5 7 7 5 4
12 13 13 11 11 12 14 16 18 18 16 18 19 21 22 25 27 26 28 30 29 23 24 22 21 16 15 23 25 25 23 21 18 15 17 12 15 11 5 3 3 3 2 6 1 3 1
15 15 14 15 16 14 15 17 16 15 15 17 19 20 21 23 25 28 31 31 24 21 15 18 13 12 11 14 18 11 8 15 16 16 16 5 11 7 6 5 2 1 7 5 5 4 3
16 17 15 16 16 13 13 15 15 14 16 18 19 19 20 21 25 27 30 28 12 9 9 2 4 5 12 5 5 6 2 8 7 19 12 8 6 4 3 9 11 8 4 4 7 1 2
18 18 17 17 17 15 13 17 17 15 16 18 17 17 17 21 25 26 29 20 9 4 14 9 10 10 2 13 11 9 9 4 8 13 11 6 7 14 17 14 5 6 5 5 3 5 3
19 19 19 16 18 14 14 19 18 17 16 17 15 14 16 19 23 24 15 8 9 12 16 25 31 34 32 12 8 13 11 7 7 10 8 4 15 11 8 8 9 6 6 7 5 3 7
20 20 21 16 18 16 14 18 20 18 15 15 14 13 14 18 20 11 13 3 6 21 8 15 13 14 20 26 21 28 10 11 6 9 14 16 4 14 11 8 10 10 12 6 8 5 3
21 20 22 20 17 18 17 16 20 18 15 14 12 12 14 17 12 11 8 11 17 19 5 6 4 5 8 11 9 35 25 13 6 15 10 11 6 10 9 15 12 12 10 7 6 3 4
20 21 22 21 18 20 19 18 20 17 14 13 12 12 13 12 16 14 13 12 12 5 5 3 1 1 7 9 9 2 30 24 8 7 7 9 8 12 9 11 13 10 8 12 9 7 3
23 21 23 22 19 21 17 18 17 14 14 13 12 13 13 13 12 14 11 12 7 2 7 6 3 2 5 13 5 4 7 12 14 4 1 8 3 8 11 5 16 5 5 3 3 2 7
26 21 23 22 20 20 20 19 16 15 14 13 13 12 13 12 10 14 13 8 0 4 5 7 6 6 10 4 4 5 6 12 7 11 11 5 7 2 4 8 5 7 6 2 4 5 8
26 23 23 23 23 22 20 19 16 16 15 12 12 14 15 16 12 11 6 1 6 0 5 5 7 14 3 5 3 5 5 9 9 1 7 10 5 12 5 5 6 13 10 5 7 5 3
26 26 26 24 24 23 18 19 18 16 15 11 12 16 19 15 11 9 5 3 2 1 4 10 12 4 6 7 5 4 4 3 6 6 4 6 7 4 6 5 9 6 8 5 0 1 2
28 27 28 25 23 21 20 19 19 17 13 9 13 15 19 13 8 11 3 5 4 2 4 6 4 6 6 10 8 9 5 4 5 2 1 4 3 2 4 4 1 8 8 3 1 5 8
27 27 28 26 24 21 21 21 19 16 10 9 11 5 4 2 13 10 4 7 5 16 6 1 3 5 5 6 5 6 10 3 12 6 1 3 2 2 3 4 9 4 7 2 2 3 4
29 30 32 28 25 24 23 23 21 15 12 13 7 3 5 13 9 3 3 6 7 4 4 5 3 6 4 4 7 6 6 5 19 6 3 3 3 4 6 1 2 2 1 3 7 6 1
31 30 29 28 27 25 25 22 21 16 16 12 6 9 11 14 6 8 3 3 7 4 3 1 2 1 2 5 5 3 3 6 13 11 5 5 2 3 2 2 4 6 3 2 2 1 5
31 33 32 30 28 27 25 24 21 19 20 17 6 3 9 19 20 11 8 9 8 10 9 1 2 3 2 2 2 3 4 4 18 7 11 2 2 2 3 3 3 1 3 3 1 2 1
32 31 31 29 29 27 27 25 22 22 24 20 13 6 6 3 10 13 9 7 14 10 11 13 4 8 2 2 3 3 2 6 8 12 6 2 2 2 2 4 5 5 7 7 5 8 6
31 32 30 30 30 27 30 27 25 26 27 27 9 6 10 5 9 13 11 9 18 14 11 8 11 6 9 12 10 10 2 4 4 6 5 8 2 2 3 9 8 7 8 10 13 14 13
36 33 31 33 33 31 31 28 27 29 30 23 24 19 6 7 9 8 14 18 14 13 13 18 12 9 13 15 16 19 21 15 8 5 3 4 2 3 2 2 1 6 8 14 8 9 6
33 31 31 31 32 31 31 31 30 32 36 34 21 14 11 7 10 13 13 16 17 20 13 13 19 13 4 4 10 11 10 10 11 9 10 2 2 2 2 1 5 2 4 4 7 12 14
36 34 33 32 32 33 33 34 34 35 36 38 35 23 9 8 12 15 16 15 12 20 22 17 21 19 16 3 3 4 1 1 6 10 10 10 3 2 2 4 8 10 6 4 6 10 3
36 36 36 35 37 37 36 36 37 38 38 38 40 36 20 4 14 19 13 17 11 7 5 15 11 12 14 2 3 3 3 2 2 3 3 9 4 4 3 3 5 3 1 1 2 6 4
36 37 39 39 42 40 40 42 41 39 41 39 39 40 30 10 15 22 12 15 8 9 5 6 15 11 12 3 3 4 3 2 3 3 5 6 3 10 4 4 7 10 8 3 2 2 2
39 39 39 37 37 37 38 39 43 43 42 41 42 38 42 15 11 22 28 18 18 8 4 8 7 6 6 6 5 4 4 4 3 3 5 8 8 5 6 5 8 4 5 4 2 14 13
38 36 36 34 32 27 28 30 39 41 40 39 38 38 36 21 7 23 23 26 30 25 23 18 7 8 10 4 4 3 3 2 6 4 2 5 6 5 8 6 1 4 3 12 16 14 15

GFSGBSN_850_spd_054.txt.gz
Wind_Speed
10 11 8 9 8 9 10 11 11 13 14 15 17 17 18 19 21 22 22 22 22 22 22 23 22 20 20 8 16 22 17 8 3 18 12 14 17 21 17 16 13 18 11 11 16 14 13
10 10 11 11 10 10 9 11 12 12 14 15 16 17 20 21 22 24 24 23 23 23 21 21 24 19 15 14 11 19 12 3 10 13 13 12 10 19 12 12 17 9 21 15 14 15 12
10 10 12 13 9 10 10 12 14 15 17 13 15 18 20 20 21 24 25 26 25 23 23 23 21 19 14 26 13 26 29 26 20 15 15 14 14 11 10 10 18 14 12 14 16 17 15
13 12 13 14 11 15 14 13 15 16 15 14 17 18 20 19 21 24 26 26 24 22 21 20 16 12 13 15 13 29 25 26 19 15 17 13 11 14 13 8 6 13 14 15 15 10 9
16 13 16 14 13 16 13 12 13 14 14 15 17 18 19 19 21 24 26 25 21 16 13 14 7 9 11 12 20 19 18 15 16 22 14 8 10 16 14 13 12 12 14 16 12 9 6
17 16 16 17 17 15 14 9 15 16 16 16 17 18 17 18 21 24 26 20 10 9 9 5 1 6 13 4 4 6 4 5 6 14 11 14 13 12 15 16 17 16 15 15 13 9 10
16 17 17 19 17 16 16 10 15 16 17 17 16 16 16 17 19 22 21 11 7 2 11 12 12 14 12 9 10 8 11 8 7 18 16 22 14 20 25 22 20 11 12 14 7 4 7
19 20 22 20 20 15 17 11 15 19 20 17 14 14 15 16 16 13 13 7 7 9 15 25 30 32 30 18 11 12 12 13 14 15 19 10 20 21 17 18 20 18 15 13 6 6 10
21 20 20 18 21 16 18 17 14 17 20 16 14 13 13 15 14 6 9 5 8 14 8 14 8 11 9 20 16 11 13 10 11 17 20 21 9 18 14 16 19 21 19 14 12 3 11
20 20 19 20 21 21 17 20 19 19 20 16 13 12 12 13 5 9 3 10 10 13 5 4 2 2 3 5 8 21 19 14 11 16 14 16 22 5 19 22 19 19 17 16 12 9 11
23 21 22 20 20 22 21 20 19 18 17 14 12 12 11 9 9 6 9 8 8 2 6 6 3 3 4 6 9 3 15 29 18 12 9 12 12 20 17 18 18 16 7 13 14 13 13
26 24 23 21 21 21 20 21 20 21 14 14 13 11 11 8 7 8 7 9 3 4 5 3 1 7 4 9 5 2 2 14 22 15 15 15 5 13 19 13 12 4 8 7 6 7 12
26 27 26 23 21 21 20 22 21 18 17 14 13 12 11 9 4 7 8 5 4 5 5 6 6 12 11 6 4 7 6 13 11 16 17 13 14 5 10 16 13 15 12 7 9 9 10
28 27 24 23 22 21 21 22 22 17 16 15 13 13 13 12 8 6 3 4 6 2 4 7 7 13 5 8 1 5 5 9 17 12 9 14 9 15 13 14 9 21 17 6 6 9 9
27 25 25 24 24 25 22 22 21 18 18 15 13 12 15 11 8 9 4 5 3 3 4 8 12 6 3 9 6 4 5 3 8 14 8 12 13 10 14 9 13 13 19 16 10 2 4
28 26 26 24 26 23 20 19 19 18 18 12 10 10 16 10 11 13 4 7 6 6 2 4 4 4 5 10 9 7 3 9 3 10 9 6 6 9 16 18 17 11 11 8 10 10 13
28 26 25 27 26 22 22 18 22 18 18 10 8 5 5 7 16 10 6 9 11 14 5 3 3 5 4 8 10 9 5 5 12 7 7 8 5 6 10 14 17 14 12 8 6 10 8
28 28 28 27 25 30 25 21 22 16 13 13 8 4 7 13 9 4 6 9 7 8 8 11 7 7 8 8 8 6 4 7 14 16 2 6 3 7 10 4 5 12 17 18 10 11 6
27 28 27 25 25 24 21 23 23 19 16 13 8 10 8 14 5 8 4 8 10 11 10 6 7 3 5 8 6 7 5 4 10 11 9 5 7 9 10 6 5 4 3 4 3 2 10
29 26 26 27 27 26 23 25 22 23 18 20 6 4 10 13 14 9 16 13 13 12 14 10 8 6 5 10 11 6 4 4 9 8 13 10 3 6 10 3 2 7 5 3 5 6 8
28 28 28 28 28 27 25 25 22 27 21 21 12 5 8 5 13 15 12 4 17 12 15 16 10 15 10 7 12 11 6 6 6 8 4 2 3 2 1 1 1 4 7 7 6 6 6
30 29 28 26 26 27 27 25 25 30 24 27 8 7 7 15 11 15 18 14 17 12 11 13 14 9 13 17 15 8 6 10 7 5 6 6 4 4 5 5 6 8 9 9 10 11 11
32 30 29 29 30 27 25 24 27 30 26 24 22 18 8 10 16 13 13 15 15 12 15 21 14 11 11 15 17 16 16 14 13 8 5 4 3 5 9 3 5 8 15 16 13 12 9
33 33 33 31 29 28 29 28 32 30 31 28 20 18 13 9 9 13 15 16 15 15 17 14 12 13 3 8 12 16 15 15 16 15 13 5 4 3 3 3 7 1 3 0 6 9 8
34 34 34 32 30 28 28 30 34 33 31 32 31 22 10 12 19 20 19 16 18 14 15 16 20 17 7 4 4 8 6 7 12 15 15 12 6 3 4 11 9 12 6 8 7 4 0
37 37 35 34 33 31 31 31 31 30 30 34 38 36 22 7 7 20 16 20 13 13 12 7 15 14 11 3 4 5 5 3 5 7 14 13 12 7 5 7 6 4 5 1 1 3 7
41 40 38 36 34 33 34 34 34 33 34 35 33 36 29 18 28 23 13 14 16 6 4 3 10 10 17 4 5 5 5 1 4 7 8 10 11 14 11 7 3 9 6 2 5 4 11
41 42 38 36 35 35 34 34 35 36 36 37 40 33 36 18 25 16 29 22 16 16 8 4 7 5 4 6 5 4 4 5 5 3 9 10 9 8 11 6 6 6 3 4 7 9 16
28 33 39 38 37 36 36 37 37 38 40 39 40 38 34 25 15 25 34 24 25 25 16 9 4 7 11 7 6 4 4 2 8 6 11 7 7 6 7 7 3 3 3 8 10 12 15

GFSGBSN_850_spd_057.txt.gz
Wind_Speed
9 8 11 10 11 10 10 10 11 12 15 17 18 18 19 20 21 22 23 24 24 23 23 23 23 21 21 10 22 19 17 14 8 6 15 20 23 24 22 21 22 21 21 22 19 16 13
11 11 9 9 12 9 10 12 13 14 16 18 17 18 21 21 21 22 24 24 24 23 23 23 22 20 11 18 16 12 16 9 4 8 13 17 19 19 21 23 18 23 20 25 17 18 19
13 12 11 12 12 11 13 13 14 17 17 16 17 19 20 22 22 23 24 25 24 23 23 22 20 15 14 31 11 11 14 17 13 15 19 18 17 15 15 17 19 20 21 17 20 21 16
13 14 15 15 15 13 16 16 13 16 19 19 17 19 22 23 23 24 25 24 23 22 21 18 14 8 13 13 13 23 22 20 27 21 17 18 16 19 20 16 18 15 20 18 19 19 20
14 15 16 16 16 18 17 13 10 14 19 21 21 20 21 22 23 23 25 21 20 17 14 11 2 10 11 10 9 18 19 19 15 22 19 15 16 19 19 16 14 17 15 21 18 15 10
19 16 15 17 19 19 16 17 13 13 17 20 21 21 22 22 21 22 23 17 16 12 8 4 6 7 8 6 7 5 8 13 10 15 15 18 13 15 18 16 16 17 18 18 17 13 12
15 15 17 18 18 18 16 17 15 14 18 20 22 20 21 20 19 18 22 21 7 7 9 16 18 19 15 5 10 7 8 8 10 14 17 20 15 21 25 24 22 20 18 15 13 5 8
20 18 18 17 17 20 20 16 17 18 17 20 19 17 19 20 18 13 15 9 6 8 16 19 21 22 25 22 14 12 10 16 17 14 15 15 22 21 22 24 23 24 24 15 14 2 7
20 19 22 22 19 18 19 17 18 19 22 22 20 15 16 17 17 5 10 8 10 12 8 11 6 5 5 10 18 16 16 16 13 15 19 23 19 20 22 21 22 21 22 18 17 7 9
19 19 20 19 20 19 20 21 20 21 23 23 18 15 13 14 10 10 8 11 10 10 5 5 3 2 1 1 6 23 12 15 7 17 18 19 23 10 20 24 18 21 18 19 16 15 13
20 22 20 21 21 22 19 20 23 19 20 21 16 15 13 10 13 11 11 12 11 5 6 4 5 1 1 5 9 4 15 23 16 14 13 19 10 18 23 19 20 21 15 15 16 17 15
21 21 23 22 25 20 24 20 20 19 19 20 16 15 14 7 10 11 12 13 8 5 5 3 1 5 7 8 8 2 5 15 15 20 16 18 17 14 14 19 18 16 11 11 13 14 15
24 23 24 25 24 23 21 20 20 20 18 18 15 15 14 11 11 7 11 8 7 6 5 2 2 7 10 7 4 9 6 10 10 12 21 20 21 14 13 19 18 18 14 9 11 12 14
23 28 26 21 24 21 19 21 20 20 18 19 18 17 15 14 12 10 8 9 10 3 4 3 5 11 5 5 3 6 7 8 15 16 12 18 15 22 12 15 18 20 18 9 14 11 14
27 25 25 26 24 22 20 20 24 19 19 17 19 15 15 14 13 11 11 10 5 6 3 6 11 10 3 3 6 4 8 1 5 18 14 12 21 10 14 12 15 17 21 21 18 10 7
19 20 22 24 24 21 22 19 18 20 18 12 13 14 19 14 14 16 7 14 12 6 4 5 7 1 5 5 6 7 2 7 2 10 17 13 10 15 14 14 19 22 12 18 11 12 12
25 26 26 26 23 22 26 23 17 18 16 11 10 6 6 13 17 13 10 15 12 10 7 8 8 7 7 6 5 7 2 5 10 9 10 14 11 9 11 18 19 15 18 13 15 14 9
25 23 24 24 24 24 23 18 17 21 17 10 11 4 8 16 12 8 11 17 18 10 16 14 9 12 11 9 9 5 5 4 7 12 8 15 6 11 18 20 20 18 21 20 10 9 12
25 24 26 25 25 23 20 19 19 23 19 10 12 15 13 15 8 12 13 16 19 15 16 13 13 14 13 11 6 7 10 3 6 7 9 13 8 9 15 11 9 14 19 20 20 14 12
25 25 26 25 26 23 21 19 21 20 19 18 7 4 16 16 17 13 15 14 17 18 19 17 12 12 10 12 11 9 8 3 5 3 6 13 11 14 12 12 13 15 7 10 10 10 13
28 27 27 26 23 26 27 24 22 23 23 20 12 7 8 8 15 17 15 7 19 17 17 18 13 16 15 15 14 15 15 12 7 4 4 5 6 11 9 5 5 6 14 11 12 12 10
28 28 28 28 27 26 25 26 24 23 22 26 7 7 19 18 15 18 19 17 16 14 15 16 16 16 16 17 14 9 8 6 10 5 5 7 3 9 8 6 6 7 9 11 13 12 12
29 29 28 27 27 26 26 26 25 26 26 22 28 19 9 10 16 13 12 18 21 17 13 19 13 13 13 12 11 13 14 10 13 12 10 8 7 4 4 7 8 8 14 14 13 14 13
31 30 30 29 29 29 28 27 27 26 33 33 16 21 13 10 11 13 19 17 14 15 17 14 18 13 9 4 9 13 17 18 18 18 16 12 10 10 5 5 4 6 5 3 12 13 11
35 34 32 31 31 30 30 28 30 28 29 30 32 17 13 9 18 17 15 14 14 13 16 13 14 13 3 3 4 8 10 12 14 20 18 15 11 5 5 7 10 5 3 9 7 7 3
36 36 36 34 33 32 31 27 29 30 32 31 32 26 15 10 14 20 19 20 12 12 12 11 7 3 6 2 3 7 8 11 10 8 19 16 12 9 5 11 11 5 3 2 3 7 11
41 41 40 40 37 33 33 30 30 30 29 30 29 31 23 12 28 19 8 10 14 13 9 2 3 5 13 4 5 6 8 4 5 9 15 14 12 14 11 8 6 8 9 0 11 5 10
38 37 38 41 40 38 35 32 31 31 30 30 29 24 30 17 29 20 21 21 16 7 4 2 3 6 4 6 5 6 4 4 6 3 15 13 10 9 13 10 13 8 3 7 8 5 8
34 29 29 28 39 39 37 34 33 33 32 31 29 25 27 22 16 16 29 30 22 20 12 8 9 2 12 7 6 2 4 2 7 5 12 9 10 8 11 9 3 3 8 9 7 7 10

GFSGBSN_850_spd_060.txt.gz
Wind_Speed
11 12 11 10 10 12 8 10 11 13 16 17 18 18 18 21 23 24 25 25 25 25 24 25 24 25 22 10 27 23 24 16 11 8 9 15 19 23 22 22 25 25 23 29 30 27 23
11 12 13 11 13 14 11 12 13 13 16 18 17 18 19 21 23 24 25 26 26 25 26 25 24 23 14 16 14 13 14 17 6 5 7 12 15 21 27 23 22 27 25 26 29 27 21
11 12 13 14 15 15 13 15 17 15 15 18 20 20 21 22 23 24 24 25 26 26 26 25 20 15 15 33 16 14 15 11 10 9 6 11 14 18 21 19 25 26 22 21 19 22 24
12 12 13 15 16 16 18 19 18 11 13 19 22 24 22 23 24 23 26 25 22 23 22 16 15 7 13 12 14 20 20 24 19 17 12 8 14 19 22 18 23 22 19 18 21 22 21
13 16 17 18 17 19 20 20 17 15 13 18 21 23 22 23 23 24 25 25 17 20 19 12 4 5 12 10 10 11 14 14 11 15 14 9 17 17 16 13 13 14 16 21 22 22 21
15 16 16 12 15 17 19 19 16 17 15 18 22 24 22 22 21 22 24 22 14 17 8 7 10 7 12 6 8 10 6 10 9 9 13 9 12 12 12 13 14 17 19 20 19 19 21
18 19 17 16 17 20 22 21 18 17 20 20 22 24 22 21 19 19 19 25 23 1 7 16 21 20 27 23 16 11 6 5 5 3 13 16 13 17 21 18 20 21 22 21 16 17 15
15 16 19 20 19 18 17 17 18 17 20 21 25 25 20 19 17 13 12 15 13 12 17 22 25 23 25 20 20 15 10 10 7 4 13 13 20 19 18 18 21 24 23 22 22 15 3
16 16 18 17 18 20 21 18 18 21 22 24 26 23 20 17 13 5 12 8 13 17 9 16 8 10 6 8 17 23 16 13 12 10 12 18 14 16 18 18 20 23 23 18 22 18 14
18 17 17 18 17 17 17 19 18 20 22 23 24 21 17 15 10 10 7 10 12 17 6 6 10 6 7 3 5 15 14 15 10 9 6 12 20 14 19 23 20 22 22 22 20 17 14
19 20 18 19 20 19 19 18 20 19 19 19 22 23 17 8 13 9 9 15 13 11 5 7 8 3 5 7 6 8 13 14 12 10 6 4 9 15 23 19 23 23 18 16 15 16 16
19 19 20 19 19 19 20 23 21 21 19 19 21 23 17 7 8 9 12 13 11 3 7 7 5 3 8 14 9 4 5 16 8 14 14 18 14 21 20 17 22 20 16 17 14 13 14
22 19 20 21 20 20 20 20 20 18 19 19 19 21 16 14 14 11 9 12 4 6 3 7 1 2 8 12 7 11 9 9 9 7 14 17 20 21 18 18 17 16 14 9 7 10 10
21 21 20 21 24 20 20 19 18 17 18 18 18 21 22 16 13 9 9 4 10 10 8 6 4 7 11 6 6 9 7 8 13 13 9 5 11 21 15 18 15 18 15 7 8 7 13
16 19 22 22 21 20 22 20 17 16 19 20 20 19 17 15 7 8 11 9 5 14 7 4 8 11 13 6 4 7 11 6 5 16 8 3 8 10 16 16 15 14 14 17 15 7 5
19 18 18 17 20 20 19 19 15 16 17 17 15 15 22 17 14 14 9 15 15 15 9 6 10 6 9 1 5 4 3 8 2 5 15 6 6 15 15 18 17 17 15 10 5 5 6
22 22 21 22 21 20 20 19 18 15 14 15 12 8 15 12 17 14 9 14 16 26 19 7 10 13 7 9 6 9 3 3 8 7 11 14 11 6 14 12 16 13 15 11 13 10 5
20 23 22 21 21 20 19 20 15 14 13 11 12 4 7 15 13 9 10 17 27 19 14 13 8 12 12 9 9 13 11 4 6 6 7 12 6 10 18 18 14 16 14 18 7 9 12
23 24 23 21 21 21 20 19 16 16 16 12 9 19 17 11 7 12 16 20 24 22 18 17 13 12 15 13 13 12 14 10 6 4 8 10 6 9 9 8 13 17 19 12 14 8 6
23 22 22 22 22 21 21 19 15 15 15 17 7 4 18 17 20 16 16 19 18 23 19 25 18 14 14 13 12 11 11 3 3 3 7 6 8 10 9 4 6 7 16 20 16 6 5
24 24 25 24 23 22 20 20 17 17 14 16 9 7 10 5 14 16 19 9 18 18 21 19 18 18 15 13 15 15 15 17 12 7 5 3 5 12 15 17 16 12 15 13 9 13 9
23 24 25 24 24 22 22 21 20 21 19 21 9 7 15 19 21 14 19 19 21 17 19 16 18 17 15 17 16 15 12 12 7 5 2 5 3 12 11 9 9 9 10 7 17 15 5
27 27 26 26 25 24 22 22 22 21 23 21 23 22 10 8 12 15 13 18 22 19 15 18 13 15 15 9 7 13 6 5 8 10 10 2 3 4 3 8 9 8 11 14 16 8 5
29 29 28 27 26 25 24 24 25 24 27 28 21 14 10 13 12 14 18 13 16 19 19 16 14 14 6 10 10 11 12 14 14 15 15 13 9 3 4 6 5 4 2 8 12 7 11
29 29 28 29 29 28 28 26 26 26 26 31 27 19 11 10 17 20 17 16 15 18 13 13 7 4 3 6 4 6 9 9 17 19 19 15 12 4 4 4 8 10 4 2 3 6 11
33 32 32 32 32 30 30 28 27 27 26 29 30 25 20 8 13 22 18 15 12 11 10 13 4 5 3 2 1 4 6 9 7 6 21 17 14 10 7 4 3 7 3 2 1 2 10
35 35 35 36 36 34 32 32 29 28 26 31 26 28 18 8 16 14 5 7 8 6 8 7 6 5 3 3 3 7 11 13 8 11 10 15 12 13 11 8 6 6 3 3 6 5 15
36 36 36 38 38 40 38 35 32 29 29 31 30 25 25 14 21 17 18 17 14 11 4 2 3 1 4 4 4 6 5 6 7 7 6 13 10 8 10 9 12 3 4 5 12 18 13
37 38 38 38 34 32 37 39 35 32 31 29 27 25 24 19 13 10 18 26 24 23 11 5 5 2 3 4 6 3 5 3 5 3 4 3 9 7 9 8 6 7 18 16 17 17 10

GFSGBSN_850_spd_063.txt.gz
Wind_Speed
11 11 11 10 11 12 13 12 10 12 15 16 17 17 18 20 21 21 22 22 21 21 24 25 24 25 25 4 25 14 12 15 15 12 10 8 13 17 12 12 18 17 16 26 31 32 32
10 11 12 12 12 13 13 12 14 16 17 17 18 20 22 22 23 23 22 22 21 22 23 24 23 21 14 10 1 2 12 6 16 10 16 9 12 15 23 15 15 19 20 23 29 26 28
10 11 11 12 15 15 15 16 18 19 16 14 20 21 23 23 23 22 23 23 22 22 21 19 19 13 15 30 12 14 12 6 11 8 12 10 12 12 16 5 17 20 13 15 15 21 19
10 10 12 14 15 16 17 19 20 17 18 16 20 23 25 25 23 23 22 22 22 19 18 18 17 10 13 8 8 15 7 13 11 14 16 14 15 13 7 11 7 5 5 7 11 14 14
11 13 14 16 15 14 17 18 18 15 18 18 20 23 25 25 22 23 23 21 18 15 18 15 11 7 12 7 8 6 8 8 9 12 16 13 12 6 8 3 4 3 5 10 13 15 14
15 16 16 14 14 16 18 20 21 19 18 20 23 25 27 24 19 19 19 19 19 11 6 8 6 9 14 4 6 11 5 4 9 8 6 14 6 3 2 3 5 5 6 8 15 18 15
16 16 14 17 18 17 17 17 17 16 17 21 23 26 27 23 16 14 18 22 24 6 13 14 14 16 25 25 25 15 6 3 6 1 3 11 4 6 6 9 12 14 14 16 20 19 12
15 13 15 17 18 20 21 22 17 18 18 20 24 27 27 19 11 6 12 16 13 12 17 25 34 36 40 29 14 10 8 8 5 2 4 4 10 9 9 13 16 17 17 19 19 16 9
15 15 16 15 13 14 16 16 17 16 20 20 23 23 24 18 7 1 8 15 16 20 6 20 13 14 13 9 15 12 14 17 5 6 6 10 11 10 11 20 17 17 17 15 17 19 18
16 16 17 16 16 16 17 17 17 18 19 19 19 21 24 18 5 3 5 11 14 20 5 7 7 8 8 5 5 9 17 12 8 10 4 7 16 14 15 17 13 17 13 17 18 17 12
17 16 18 19 18 18 17 19 20 21 21 19 17 20 22 14 9 7 11 14 11 11 5 10 8 13 11 7 1 4 16 15 8 6 4 4 1 8 16 16 12 14 10 13 18 23 9
20 19 17 19 18 17 16 18 19 22 19 16 17 18 21 9 6 4 13 13 9 2 7 4 7 8 9 13 6 9 6 11 3 6 10 11 11 6 14 13 16 13 13 17 19 9 10
20 21 22 20 19 20 19 18 18 18 18 17 16 17 19 19 15 6 7 10 2 4 9 6 5 4 5 9 12 8 8 6 6 3 7 13 16 11 10 12 20 14 12 4 5 6 5
18 18 19 20 21 19 19 20 19 18 16 16 18 19 21 18 11 4 5 3 9 9 10 3 4 4 7 10 2 12 10 6 10 8 4 6 4 13 14 14 9 7 15 5 3 2 4
15 17 15 16 17 18 18 18 17 17 15 15 19 21 22 6 2 10 4 5 5 7 8 9 8 2 8 12 4 2 10 8 8 14 7 2 4 5 8 7 8 8 16 11 8 8 4
18 17 17 16 17 17 19 21 17 14 14 15 18 20 25 12 9 13 5 10 10 13 17 16 5 7 8 6 2 3 0 3 4 7 5 4 4 6 11 15 14 13 9 5 1 3 3
16 19 21 21 20 20 17 16 16 14 14 12 14 9 14 8 22 15 8 8 13 28 24 7 9 11 12 10 3 4 4 4 4 4 4 3 5 6 6 5 15 7 8 3 3 6 2
16 18 17 17 18 18 17 16 16 13 11 12 8 3 7 13 10 6 9 7 10 23 29 17 10 5 8 12 6 5 3 5 5 3 4 4 4 5 14 16 12 10 13 10 2 2 3
18 19 20 20 20 18 17 18 16 15 13 10 6 11 20 16 5 6 7 11 19 19 20 10 10 11 7 10 5 4 6 6 7 2 3 4 4 3 7 5 5 2 5 12 14 6 4
20 20 19 18 18 18 18 17 16 13 14 14 4 3 8 18 20 6 8 11 16 23 20 23 17 15 14 8 7 5 6 1 11 4 7 4 1 5 4 9 1 4 9 11 13 5 5
18 20 19 19 19 18 17 16 15 14 13 13 7 4 9 2 7 7 9 10 16 7 18 19 12 13 17 10 6 4 5 7 8 10 4 3 3 4 11 14 6 9 13 13 9 11 8
19 19 20 20 19 18 17 16 15 17 14 17 6 5 8 12 15 8 9 10 18 18 8 11 9 13 12 10 3 3 5 3 2 5 4 2 3 5 4 9 12 7 17 14 10 6 15
22 23 23 22 21 20 19 18 17 17 17 14 16 19 13 8 6 3 3 8 10 14 20 18 13 10 10 7 7 7 6 4 3 1 2 1 2 3 3 11 12 6 3 7 4 5 6
25 24 24 23 23 22 21 19 19 19 21 24 19 12 6 8 7 8 14 18 15 16 13 19 18 13 6 10 10 8 10 10 10 7 7 5 5 2 3 5 3 7 17 12 14 16 20
25 24 23 23 22 21 22 22 21 21 21 24 26 20 6 2 7 12 15 11 19 13 13 15 13 1 4 7 1 2 3 3 7 15 12 10 5 2 2 2 9 9 9 4 8 4 8
26 27 27 26 26 25 25 24 24 23 23 23 26 26 14 5 8 14 14 17 7 6 4 7 5 7 5 3 3 1 3 4 4 4 17 12 6 4 2 4 4 3 11 15 3 5 14
27 27 28 28 28 28 28 28 27 25 25 24 27 22 21 7 17 24 6 6 1 4 5 6 3 3 2 2 2 3 3 4 4 4 2 8 7 13 7 4 5 6 9 11 3 2 12
30 30 30 30 30 30 32 31 31 29 26 26 29 24 23 10 16 14 16 20 10 6 4 11 5 2 2 2 2 4 3 4 4 6 3 5 7 5 4 4 8 8 5 2 9 16 19
30 31 30 32 32 33 34 32 33 34 29 27 27 25 24 19 10 8 16 21 16 16 15 4 6 8 3 3 1 3 2 2 1 2 4 2 4 2 8 6 4 16 16 23 23 21 20

GFSGBSN_850_spd_066.txt.gz
Wind_Speed
9 8 7 8 7 9 11 13 12 14 16 17 16 18 18 20 20 21 22 22 22 21 21 21 21 24 22 9 19 12 17 10 8 7 13 10 9 7 5 6 12 12 15 23 28 29 30
6 6 7 7 8 10 12 12 14 17 17 15 14 19 21 22 21 22 22 22 22 20 20 18 18 21 15 6 6 2 10 8 7 11 14 8 4 4 11 8 9 11 17 23 27 29 24
6 7 9 8 10 11 12 14 15 17 15 17 17 19 21 22 21 21 22 22 21 19 20 15 17 18 18 25 8 11 11 11 10 10 13 6 4 5 7 5 5 7 9 13 15 12 11
6 7 10 12 13 13 11 14 15 15 15 17 18 21 23 24 22 20 22 21 19 16 19 17 14 14 12 9 5 4 3 12 13 12 14 12 8 11 6 6 8 4 3 6 7 6 13
9 11 11 12 11 11 12 14 17 19 18 19 20 22 25 25 21 20 20 20 19 18 17 11 10 7 13 5 5 4 5 6 7 13 13 12 7 5 6 1 3 3 5 6 8 8 7
12 13 13 14 14 13 13 14 14 15 18 19 21 24 27 25 18 17 17 18 12 3 5 1 3 5 13 4 2 8 6 7 6 6 6 6 2 1 3 4 8 5 4 5 9 1 7
11 10 10 11 12 13 16 18 20 15 17 19 21 25 27 22 14 11 17 14 13 4 23 13 8 13 8 10 17 19 11 8 6 2 3 1 3 11 10 7 6 7 9 9 13 8 9
11 11 11 10 10 11 11 13 15 15 17 19 22 23 27 20 11 4 12 14 16 15 18 27 35 36 40 35 18 27 9 10 6 4 2 1 9 9 9 9 10 9 9 14 16 10 6
11 10 12 12 11 11 13 15 15 15 16 20 21 22 26 21 7 3 7 13 13 16 6 20 12 12 11 19 15 21 13 15 4 5 5 5 3 6 12 12 11 8 10 12 14 15 13
14 15 15 14 13 13 14 14 15 17 18 20 20 20 22 22 5 6 2 11 8 14 4 8 6 6 10 8 6 22 16 15 5 9 6 5 3 7 8 10 7 9 12 16 19 11 5
14 13 12 13 14 15 14 14 15 17 20 18 17 17 20 16 14 7 10 12 8 6 5 3 4 5 11 10 6 5 15 15 6 5 5 4 2 5 9 14 10 12 7 5 5 5 3
13 13 15 16 15 14 15 15 16 17 18 16 16 15 16 16 13 10 12 9 4 1 7 4 7 7 5 7 2 8 9 7 5 5 4 7 5 4 8 11 8 10 7 5 5 4 4
14 14 13 14 16 16 17 16 17 19 18 17 15 15 15 19 17 9 9 6 2 4 7 2 5 6 10 7 5 7 7 7 6 3 5 3 14 6 4 4 9 8 2 1 3 3 5
12 11 10 9 11 12 16 16 15 16 17 17 16 16 18 21 17 7 2 1 6 5 8 12 10 9 7 4 6 10 8 5 5 3 2 4 6 11 9 8 9 11 6 4 5 1 2
12 11 10 12 11 12 12 13 15 16 15 15 17 19 23 17 6 5 3 3 6 5 5 12 15 4 3 4 6 6 10 6 7 10 7 2 4 2 11 7 9 5 6 3 3 2 1
10 13 10 14 12 14 15 16 17 17 14 14 17 19 23 2 13 8 5 7 5 5 8 7 4 8 9 8 8 6 8 1 4 2 4 3 4 5 6 7 5 7 4 3 3 3 4
14 11 13 14 14 17 17 16 13 12 11 13 13 8 10 0 15 9 8 6 7 14 12 5 4 7 7 5 8 7 2 2 3 4 6 3 3 6 4 8 11 4 4 3 1 2 1
20 11 11 14 13 12 13 13 11 12 11 11 5 2 4 2 8 4 9 4 9 15 14 7 7 8 8 5 3 5 3 3 5 5 3 1 1 4 6 9 4 8 8 7 2 5 4
14 13 14 14 14 14 15 14 13 12 10 9 4 9 20 16 2 6 6 11 15 14 14 5 5 2 9 6 4 3 4 1 2 3 4 2 2 3 6 3 3 4 9 13 5 2 5
16 18 16 15 14 15 14 14 14 13 10 13 4 2 5 6 15 5 4 8 11 12 13 14 12 14 11 5 4 5 6 1 2 3 7 4 1 2 3 3 3 6 6 8 9 3 2
16 11 13 14 15 13 13 15 14 12 10 12 7 5 3 2 3 4 8 5 12 12 4 13 5 12 11 5 6 6 2 5 6 4 4 3 1 2 7 12 12 12 8 12 16 12 6
14 14 14 14 15 15 14 12 12 11 13 17 6 3 2 6 11 7 7 3 8 9 9 13 6 15 7 4 4 8 4 1 2 5 3 4 1 3 3 5 8 7 13 12 13 16 14
17 18 18 18 18 17 16 15 14 13 14 12 9 10 4 5 3 5 5 5 12 12 10 10 14 12 8 6 3 7 4 6 4 3 2 2 1 2 3 7 9 5 3 10 8 7 11
20 20 20 19 19 19 19 18 16 15 17 20 13 5 4 4 4 4 9 15 17 14 7 16 17 3 6 11 10 7 7 8 6 4 5 3 2 2 3 5 3 4 13 11 13 9 8
19 19 19 19 17 18 18 17 18 17 16 20 21 17 7 4 1 4 6 8 15 13 10 12 12 10 4 6 2 2 3 3 5 9 9 9 4 2 3 3 6 10 4 5 4 3 7
21 22 22 20 21 20 19 19 18 18 17 19 22 20 13 5 6 17 4 7 4 4 5 5 10 3 5 1 2 3 3 3 2 4 10 6 3 3 2 2 4 3 6 19 6 2 10
22 22 22 21 20 20 21 20 20 21 20 21 23 21 19 6 11 14 4 3 6 3 3 4 14 5 3 2 2 2 3 3 3 2 1 3 2 10 4 3 6 6 2 9 2 2 6
22 22 22 23 24 25 25 25 24 24 23 23 26 24 21 5 16 12 7 6 4 11 1 7 9 5 2 1 2 2 3 4 2 4 3 5 4 3 3 3 8 14 9 5 5 6 17
23 23 24 24 25 24 26 27 27 28 27 25 27 25 22 21 9 6 15 18 24 26 10 3 3 3 4 1 1 2 2 2 2 2 4 3 4 2 6 4 7 22 17 20 21 19 15

GFSGBSN_850_spd_069.txt.gz
Wind_Speed
8 8 7 7 7 7 9 11 12 13 16 17 16 16 20 22 23 21 20 20 21 21 21 20 22 22 21 9 15 12 17 13 7 8 6 6 6 6 4 4 14 8 4 17 21 19 24
7 5 6 6 7 8 10 12 13 14 16 16 17 18 21 24 24 22 22 22 20 19 20 19 21 19 15 7 3 5 10 18 9 7 7 8 6 6 10 7 7 6 13 21 22 25 22
6 6 7 8 9 10 13 13 14 15 16 17 19 21 23 25 22 21 22 22 22 19 19 19 19 16 16 28 9 10 11 12 12 9 9 6 3 5 4 5 11 9 7 8 9 5 9
5 5 7 10 11 12 9 9 12 16 18 18 20 21 24 26 24 21 21 21 21 20 21 19 16 12 13 15 10 2 3 13 14 12 12 10 11 11 8 10 6 4 3 6 4 8 9
8 10 11 11 12 11 10 10 12 14 16 18 20 23 26 26 21 20 19 19 18 18 16 10 9 9 13 9 8 2 2 2 4 11 13 10 10 8 5 3 4 3 5 4 5 8 6
12 11 10 9 10 11 13 14 14 18 18 18 19 22 26 24 19 19 18 19 11 8 9 5 3 6 12 2 6 4 2 4 4 2 6 8 6 2 0 3 10 5 4 5 5 1 4
11 8 10 8 9 10 10 10 10 12 15 16 20 24 25 23 18 15 19 18 10 4 18 12 15 19 22 7 11 9 3 1 5 2 4 1 2 8 8 6 4 7 5 7 4 5 4
10 9 10 10 9 11 11 10 13 12 14 16 19 22 24 21 15 8 10 10 12 14 18 27 36 37 40 25 14 24 16 4 5 4 1 2 6 8 5 6 7 8 11 12 11 11 4
12 10 9 10 12 11 11 13 12 13 15 17 21 21 21 21 10 4 6 12 11 15 7 21 13 14 12 21 17 18 17 9 4 5 5 5 4 2 6 8 9 11 10 9 10 5 8
12 12 11 12 14 12 13 13 12 13 15 18 19 19 19 19 4 12 2 8 10 13 5 7 5 5 7 5 7 13 13 11 3 8 4 5 4 4 6 5 7 12 7 10 8 6 4
10 12 12 11 12 12 11 12 13 13 14 15 16 16 16 16 17 13 14 12 8 4 5 1 1 3 11 7 3 2 16 14 7 5 5 6 4 4 5 6 7 7 5 6 3 3 3
11 10 11 12 14 14 14 12 12 15 16 16 16 14 14 14 15 10 14 10 3 2 6 6 4 4 4 4 1 5 6 7 6 3 4 6 4 4 7 5 6 5 9 10 5 3 6
12 11 10 10 9 9 11 12 13 14 14 13 15 14 14 16 17 15 11 7 3 3 6 7 4 6 7 3 5 5 6 7 5 3 5 4 11 5 4 3 6 9 4 3 5 4 6
6 9 7 7 7 7 8 8 10 11 13 12 12 14 15 17 19 11 2 2 3 2 6 7 7 12 7 6 6 6 6 4 6 2 1 3 5 9 7 12 5 13 6 3 4 3 2
8 9 8 7 8 7 10 9 10 13 14 13 13 15 17 15 4 4 4 3 5 4 4 9 11 4 6 6 3 4 8 5 6 11 7 3 4 2 6 5 7 4 11 2 1 4 2
6 4 7 7 10 11 11 10 12 11 11 11 13 15 13 10 7 7 3 5 4 4 8 5 3 4 4 11 7 7 7 2 4 7 3 2 4 2 3 6 6 4 3 4 2 3 3
8 10 8 9 8 9 9 10 9 9 9 9 9 6 3 6 8 6 4 4 4 12 14 4 4 5 5 9 9 3 4 3 1 3 8 3 2 6 4 5 7 3 3 2 2 2 2
10 12 7 7 9 10 8 7 7 6 8 8 2 2 4 5 1 4 5 3 2 7 7 5 5 7 9 4 7 2 4 4 4 4 4 1 2 3 7 7 11 10 7 4 2 4 2
13 13 9 9 10 9 9 9 7 7 8 5 2 6 7 6 2 2 5 6 11 13 16 5 5 6 5 2 5 9 6 5 4 1 4 3 1 3 7 4 5 3 10 9 6 1 4
17 14 13 14 11 9 9 8 7 8 7 5 2 2 2 4 3 3 4 7 6 10 11 8 9 11 12 6 3 9 5 4 14 2 6 3 2 2 2 3 2 6 11 7 8 2 2
13 13 11 7 9 9 8 7 9 9 7 7 6 3 3 2 1 2 4 5 7 4 7 8 5 3 4 4 3 10 4 2 3 3 3 3 2 1 6 7 8 11 12 11 8 6 4
15 12 12 10 9 10 10 9 8 7 8 13 5 3 2 3 6 3 5 2 8 6 6 6 5 13 5 5 4 10 2 2 2 3 2 2 1 2 4 4 8 10 11 11 13 11 11
12 13 13 13 13 13 12 11 10 10 11 9 8 6 2 2 1 2 2 5 9 13 8 11 10 10 8 11 13 14 10 6 4 2 1 2 3 2 4 6 10 7 0 6 5 11 6
15 17 16 15 15 15 15 15 14 13 15 15 8 5 2 2 3 4 7 10 11 12 12 20 14 7 6 15 20 16 10 9 4 5 3 4 4 3 3 4 3 5 12 8 5 5 8
18 18 17 16 16 16 16 16 16 16 16 18 16 13 5 3 8 6 9 5 14 16 9 13 9 14 23 13 3 4 3 3 5 8 9 7 4 2 2 3 6 11 3 3 8 8 2
16 17 19 18 18 17 15 15 15 14 15 19 18 16 11 2 6 18 7 8 3 4 5 5 14 14 4 2 2 3 3 3 2 4 2 5 3 3 1 2 3 4 8 4 6 6 3
20 20 21 22 21 20 19 19 18 17 16 19 19 17 15 6 10 14 5 5 3 2 3 4 13 8 3 1 1 2 1 2 2 2 3 3 2 8 6 3 6 5 12 12 3 5 13
22 21 21 20 18 19 20 20 20 19 19 21 23 21 19 8 15 14 9 9 5 4 1 7 6 5 4 3 1 0 1 3 1 3 2 5 4 3 3 4 7 15 11 3 4 17 15
22 24 23 21 21 21 22 22 23 23 23 23 25 23 22 17 11 11 14 21 28 24 14 4 3 2 4 3 2 2 2 3 0 2 1 1 1 2 5 2 5 10 10 13 11 20 10

GFSGBSN_850_spd_072.txt.gz
Wind_Speed
10 10 8 7 6 7 8 9 11 12 15 16 17 18 19 21 22 22 23 23 22 21 21 21 21 22 22 11 13 12 16 15 7 6 8 6 8 7 4 4 5 7 4 9 14 18 18
10 8 6 5 5 7 9 12 13 13 15 17 19 19 20 22 22 22 23 23 22 20 21 21 21 20 14 6 6 8 7 20 18 12 10 8 6 6 5 5 6 7 9 17 20 24 21
8 7 6 7 6 9 11 11 11 13 17 17 18 19 21 24 24 22 21 22 22 22 23 21 20 18 17 25 10 13 14 11 15 13 14 9 6 5 1 4 9 9 8 8 7 7 8
7 7 5 5 6 8 9 9 10 13 14 17 19 20 22 25 25 22 22 21 21 23 22 18 16 14 13 12 12 10 4 9 13 13 12 9 9 6 3 7 7 4 3 5 4 8 8
7 8 8 11 12 11 13 11 11 15 17 19 20 20 24 25 25 21 21 21 20 16 14 11 7 8 12 6 7 3 1 0 4 9 11 8 9 6 3 0 4 2 8 7 5 6 6
10 11 11 9 7 8 10 10 11 12 13 16 16 20 24 25 23 21 20 21 10 9 9 7 4 4 7 3 2 4 1 2 2 4 6 8 6 3 2 3 7 4 5 6 4 3 1
13 11 9 8 6 7 6 8 10 13 13 16 18 21 23 22 18 16 20 15 9 2 15 12 21 18 32 21 10 7 3 1 2 2 3 2 3 7 9 7 5 4 7 11 4 7 5
11 10 10 9 8 8 7 8 11 13 14 15 19 22 21 19 13 9 9 10 11 12 16 31 34 35 36 24 11 20 13 3 4 4 2 1 6 7 5 5 7 8 9 11 6 9 10
12 10 10 8 10 9 10 10 11 12 13 15 19 21 21 18 6 10 6 13 13 15 6 17 11 10 6 12 12 11 17 8 4 6 5 5 3 4 3 4 7 9 11 7 9 10 10
13 12 11 11 12 11 9 10 12 11 13 15 16 19 19 17 4 12 3 8 10 11 3 7 5 3 2 3 6 7 11 11 4 7 5 5 3 3 0 4 5 8 7 11 9 7 5
12 10 11 11 10 10 9 9 10 11 13 15 15 15 15 17 13 10 14 9 7 2 6 2 1 3 2 3 3 2 14 6 7 5 5 5 3 3 3 4 5 6 3 6 5 5 3
10 9 8 9 9 10 10 11 11 11 12 12 11 12 13 14 11 16 14 7 2 5 6 7 2 4 2 3 4 3 3 2 4 4 2 6 3 5 6 4 5 5 4 6 4 2 6
11 11 9 5 5 4 4 6 8 7 9 11 12 12 13 15 17 17 10 3 4 3 6 7 5 7 4 5 3 5 4 5 4 2 3 3 8 4 4 3 3 2 2 2 3 3 4
8 7 7 5 4 4 3 3 4 7 10 12 12 11 13 14 16 11 3 4 3 1 5 5 7 10 2 8 4 4 4 3 4 3 1 2 5 6 5 10 5 6 6 3 3 3 2
7 6 6 8 5 4 4 4 5 8 11 12 11 11 11 7 11 4 3 3 3 2 6 9 10 4 5 6 6 5 5 4 7 9 6 3 4 2 5 3 6 1 7 4 4 3 2
9 8 4 3 6 6 7 6 6 8 9 10 10 10 7 9 4 5 4 3 3 4 9 3 3 4 4 9 8 9 3 2 2 7 4 3 3 2 2 6 4 2 2 2 3 3 4
5 6 4 8 5 4 3 2 4 5 7 8 8 5 10 6 7 3 2 4 4 10 12 4 5 6 6 6 5 4 5 2 5 2 6 2 2 3 5 5 7 4 2 1 3 3 3
7 6 4 6 5 4 3 2 2 3 6 6 4 3 1 4 2 1 1 3 2 5 17 5 5 6 7 6 3 3 6 7 3 2 1 4 2 3 8 4 7 3 5 5 3 2 3
11 10 7 6 4 4 4 4 4 3 4 4 3 3 2 2 2 2 2 3 6 4 6 3 4 3 7 6 5 2 7 15 23 3 4 7 3 2 2 3 6 4 1 2 3 1 3
13 13 12 9 8 6 5 5 4 4 4 1 2 2 1 2 1 3 3 3 4 3 4 7 8 6 8 5 8 4 2 6 16 18 2 4 2 2 2 3 2 4 8 6 2 2 2
18 11 9 7 6 7 6 4 5 5 4 3 3 2 1 2 1 1 3 3 6 5 3 7 3 2 5 3 5 6 7 5 9 23 3 3 2 2 3 3 1 4 8 11 8 9 4
12 14 11 11 8 8 6 5 5 4 6 7 4 3 2 2 4 2 4 3 5 4 3 6 4 11 9 5 6 4 5 3 7 6 7 4 2 0 3 2 6 5 10 9 11 12 10
14 14 12 11 10 9 8 7 7 8 8 5 4 7 4 1 0 1 2 3 4 10 8 10 12 14 8 10 10 19 13 13 13 6 3 1 4 2 2 4 7 6 4 5 5 5 6
18 15 13 13 12 12 11 10 10 11 10 9 8 5 3 1 3 3 4 7 9 9 9 22 18 9 4 21 27 16 18 16 15 10 5 2 3 2 2 3 1 5 10 4 1 4 10
16 15 16 14 14 14 13 13 13 13 13 13 13 10 5 2 5 6 10 7 11 18 5 9 11 16 23 11 3 4 3 3 5 7 7 4 3 2 2 2 5 8 3 4 3 9 3
18 17 17 15 13 12 10 10 11 12 13 14 14 12 7 2 5 15 6 6 3 4 5 5 20 18 10 3 4 5 4 3 3 2 6 5 4 2 1 2 4 5 4 14 5 5 7
17 17 17 16 16 15 15 14 14 14 13 15 15 16 10 6 10 9 4 4 3 3 3 6 15 10 10 3 2 1 2 1 2 3 3 3 2 5 4 3 6 4 9 9 1 4 9
20 19 18 17 18 19 18 17 16 15 15 17 18 18 18 6 13 13 7 8 8 3 2 8 9 4 4 3 3 3 2 3 2 1 3 4 4 3 3 4 7 13 7 0 1 8 16
21 21 20 20 18 17 17 17 17 17 18 18 21 19 20 17 9 8 14 22 25 22 14 5 6 5 4 3 3 3 2 3 4 2 2 1 3 3 5 2 5 9 6 10 11 11 13

GFSGBSN_850_spd_075.txt.gz
Wind_Speed
13 12 10 9 6 5 6 7 9 11 12 13 15 17 17 18 18 20 20 19 19 18 18 18 18 20 20 11 15 12 15 11 5 6 10 10 11 6 5 5 4 8 8 11 15 14 19
14 11 9 7 5 6 6 8 10 10 12 14 15 16 18 18 18 19 20 19 19 20 19 20 20 18 11 6 6 8 12 18 18 13 9 13 7 10 5 6 6 5 7 8 11 19 18
13 11 9 7 7 6 6 7 6 9 11 14 16 19 19 19 20 20 20 19 18 19 20 17 16 15 13 23 16 11 12 12 13 18 14 13 11 9 5 4 6 7 8 10 11 12 10
11 11 8 7 6 5 5 5 6 9 12 17 19 18 19 21 22 20 19 19 18 19 17 12 12 11 10 10 12 12 9 10 14 15 14 11 11 8 6 7 4 4 4 5 2 3 9
10 8 10 9 9 10 11 12 11 12 13 13 14 16 19 21 21 19 19 19 18 12 9 12 8 5 10 4 4 5 3 3 4 13 14 8 12 7 4 2 4 2 6 6 9 7 8
12 11 10 9 9 8 7 7 6 6 10 13 14 17 20 21 17 17 18 18 8 8 7 6 2 4 7 1 1 4 2 4 4 8 7 9 5 2 1 6 7 4 5 5 5 4 6
13 11 9 6 6 5 3 4 6 9 11 13 15 18 19 17 15 14 17 8 4 2 11 11 11 13 20 15 15 5 6 4 7 5 5 5 7 12 11 9 12 12 13 17 15 12 17
11 11 10 8 7 7 5 6 7 10 11 11 14 17 18 14 8 11 11 9 8 8 14 20 21 23 22 23 11 13 13 6 7 6 4 2 10 11 6 6 9 11 14 17 12 13 13
11 9 8 7 9 8 8 10 12 11 10 11 14 16 17 13 3 9 8 14 10 10 5 11 6 6 3 3 7 8 15 7 3 6 8 6 2 5 7 6 6 9 11 13 12 15 18
10 11 11 11 12 11 9 8 8 9 9 12 14 13 13 12 4 10 4 10 10 6 3 5 1 2 1 0 3 3 6 9 4 10 6 6 4 6 6 5 4 3 5 10 12 9 5
12 11 11 11 10 10 9 8 7 7 8 9 11 9 11 13 6 9 10 7 5 1 5 5 2 3 3 2 5 1 7 6 6 5 5 3 3 4 8 7 7 4 4 7 10 11 11
9 8 7 6 7 8 9 7 6 7 7 8 10 9 10 10 9 12 9 3 1 2 5 5 3 6 7 3 1 4 3 4 2 4 3 5 2 3 5 4 6 2 5 11 8 6 6
9 8 8 6 3 2 1 1 3 3 5 7 8 8 11 12 12 11 5 1 2 2 6 7 5 8 8 4 3 3 4 4 4 3 3 3 5 4 5 5 4 5 4 3 2 4 5
8 9 8 6 5 4 3 2 1 3 6 7 6 7 9 10 12 7 2 2 3 3 3 6 7 10 4 9 4 5 2 4 5 2 1 2 1 5 4 10 3 7 6 3 3 3 3
8 6 5 8 6 6 4 2 2 4 6 7 6 5 8 9 10 5 2 3 1 3 5 10 11 3 3 6 5 9 2 3 4 10 6 4 3 2 3 3 7 4 5 1 3 5 5
8 8 6 3 8 5 5 6 3 4 7 7 7 8 11 9 10 7 4 2 1 4 6 5 3 7 4 9 7 10 3 2 6 5 3 2 3 0 2 4 4 1 5 2 3 3 5
6 7 5 8 6 3 1 2 0 2 6 8 5 5 9 7 7 8 3 1 3 6 4 4 3 5 5 7 7 6 5 3 12 8 3 1 3 1 5 5 8 4 2 2 2 4 3
6 4 3 7 7 4 3 1 1 2 5 7 4 3 3 6 5 3 1 1 4 6 6 5 4 6 7 8 6 6 4 4 15 12 2 2 1 5 8 3 7 4 2 4 3 2 4
10 7 4 5 5 3 3 4 3 1 4 6 4 3 3 3 3 2 3 3 4 3 5 2 4 3 6 5 4 6 5 7 9 13 7 3 1 2 7 4 4 3 3 3 3 2 5
15 12 8 6 8 6 4 4 3 2 2 5 3 2 4 6 4 3 1 2 4 2 2 4 6 7 12 12 10 8 4 3 7 13 20 6 4 5 2 4 3 2 4 3 5 3 5
12 10 8 6 8 10 6 5 4 3 3 4 3 1 2 1 2 1 3 2 3 4 3 2 1 6 10 5 7 12 12 9 5 3 5 2 3 7 6 4 4 2 6 8 8 9 5
16 20 13 10 8 8 7 6 5 3 5 4 4 3 2 0 2 0 2 1 4 3 3 5 3 11 15 6 9 9 9 5 5 4 2 3 3 5 3 6 1 4 9 5 6 9 13
10 11 14 13 10 9 9 8 6 6 6 4 5 4 2 0 1 0 1 1 3 9 6 6 11 16 12 10 10 17 22 19 12 5 2 3 1 2 1 3 7 4 5 6 5 6 9
16 14 12 15 11 10 9 8 8 8 7 5 6 5 4 2 4 3 3 6 10 9 8 16 15 5 7 24 29 17 19 19 15 16 10 3 5 1 1 2 3 2 8 3 3 4 9
17 14 16 13 12 11 10 10 9 9 9 8 8 8 4 2 6 6 10 7 7 11 7 11 7 15 21 10 4 6 2 3 9 9 10 12 4 1 1 2 6 3 4 4 3 5 10
15 15 15 14 13 13 12 12 12 12 11 11 10 10 5 3 5 10 4 5 4 3 4 5 16 19 7 3 3 4 5 5 5 6 2 7 2 1 1 2 4 0 2 10 4 6 11
19 20 17 16 15 13 12 10 10 10 12 13 11 14 7 4 9 7 3 3 2 2 3 5 13 7 5 3 4 4 3 2 3 4 5 5 3 8 6 4 6 5 13 6 4 3 13
21 19 17 17 16 14 13 13 13 12 14 14 15 14 16 7 11 12 10 11 10 3 2 8 9 3 3 4 4 4 5 4 2 2 0 2 5 3 5 5 6 12 4 2 6 6 9
22 19 19 17 15 14 14 16 16 15 15 15 16 14 16 13 9 10 12 17 24 22 13 6 5 9 4 3 3 4 3 4 4 1 3 1 2 1 4 1 6 9 8 7 11 9 9

GFSGBSN_850_spd_078.txt.gz
Wind_Speed
24 21 19 16 13 11 10 9 8 9 9 11 12 12 13 13 14 16 16 15 15 16 15 16 16 19 17 7 12 14 12 8 4 8 10 12 14 13 13 9 16 17 19 21 21 24 27
23 20 18 15 13 11 9 8 8 9 9 10 11 13 15 14 15 16 16 14 14 16 15 17 16 16 9 9 9 6 8 15 11 9 9 11 8 12 9 11 13 4 9 15 16 19 23
21 20 17 13 11 10 9 8 8 7 8 9 13 15 16 15 16 16 15 15 15 16 17 15 12 13 12 17 14 12 11 13 13 14 15 13 11 10 5 8 13 12 14 15 18 21 19
22 19 16 14 13 11 10 8 6 8 10 12 12 13 14 15 16 15 14 14 15 15 15 11 9 9 10 9 10 12 10 11 16 15 13 12 11 13 13 11 11 10 12 15 6 5 9
21 19 17 16 14 12 11 10 11 11 10 8 11 12 13 14 13 13 12 13 13 11 8 9 4 5 8 3 3 2 4 5 7 14 13 4 8 14 8 11 11 10 10 11 11 11 13
21 18 18 16 13 13 11 9 8 6 7 9 10 11 12 11 11 11 11 12 9 8 6 3 1 3 4 1 4 3 4 6 5 8 11 11 10 9 10 10 9 7 10 11 10 4 14
22 18 15 12 10 10 8 5 4 6 8 10 10 11 12 11 8 11 11 6 4 3 4 9 8 13 17 13 13 4 3 5 8 12 11 15 11 15 16 16 17 14 13 17 16 16 19
23 17 12 11 9 8 7 6 7 8 10 10 10 11 11 9 7 9 10 7 4 5 9 6 6 9 11 9 7 10 10 9 12 13 8 7 15 14 12 13 16 16 15 16 16 12 12
18 14 12 12 11 10 10 10 11 12 13 12 11 10 7 5 5 6 10 7 6 6 5 4 3 3 3 3 4 4 11 14 10 13 12 14 5 3 12 13 13 14 14 12 13 14 19
17 14 13 11 10 8 8 9 9 9 8 8 7 6 5 3 4 5 2 7 8 4 3 3 1 2 1 4 4 3 6 9 8 10 9 10 10 11 9 12 10 10 3 6 9 9 9
16 14 10 12 11 10 10 9 7 6 5 6 5 4 6 9 4 3 4 3 4 1 4 3 4 1 6 6 7 2 5 9 8 8 6 2 5 6 13 17 10 9 3 7 10 12 14
9 8 10 11 10 10 11 10 8 6 1 1 3 4 6 7 6 3 1 2 2 4 2 3 2 6 11 1 2 4 5 5 4 7 11 13 5 6 9 5 9 3 8 12 12 9 8
10 9 8 7 6 6 6 6 6 4 2 1 3 4 6 7 2 2 4 3 4 4 2 4 3 8 11 6 4 4 7 8 7 5 7 4 13 11 10 10 8 10 8 5 7 5 6
10 9 8 6 6 6 6 5 4 3 2 1 1 3 5 7 7 4 3 4 6 4 3 5 5 13 6 6 3 6 5 10 10 9 7 6 5 8 9 13 3 10 11 6 6 4 6
11 9 10 11 9 8 6 5 3 1 3 3 3 5 7 8 7 5 2 3 5 3 4 9 12 9 6 2 6 6 8 8 3 10 7 4 5 4 8 4 9 6 7 4 6 13 7
12 10 7 11 12 9 8 7 3 4 4 4 7 6 6 8 8 4 1 3 1 3 6 4 5 3 7 7 8 7 6 4 4 3 7 3 8 5 3 6 6 7 2 3 5 4 5
11 8 9 10 12 7 3 5 5 6 4 3 6 2 3 7 8 4 3 3 1 2 5 4 4 7 9 11 9 10 7 5 8 7 7 7 8 5 6 10 8 7 7 3 2 5 4
9 7 8 11 10 8 6 5 6 6 4 3 3 1 2 5 3 3 4 2 3 3 2 4 6 8 11 12 16 15 16 9 10 10 7 3 5 11 16 8 8 10 8 8 4 4 2
12 8 3 11 11 8 7 7 6 5 4 4 3 3 3 5 3 4 4 3 1 2 4 3 4 5 9 12 8 11 16 17 6 4 6 7 5 7 8 7 10 11 7 5 3 2 3
13 11 7 5 9 8 5 6 6 7 5 4 3 3 3 7 7 6 3 3 3 2 2 3 6 7 9 10 13 11 14 7 6 13 4 9 7 11 9 2 2 9 11 10 5 3 4
13 16 10 4 9 10 7 7 7 7 6 3 3 2 2 4 5 4 2 1 1 2 2 1 3 1 5 6 14 12 18 18 18 5 2 3 7 12 5 2 13 4 7 8 11 10 6
13 13 8 6 7 12 8 7 7 7 6 4 3 3 2 8 4 3 2 1 2 1 3 2 3 10 12 9 13 14 11 12 10 4 3 1 4 10 7 8 16 9 10 8 8 5 9
8 13 15 13 11 10 10 9 8 7 8 2 6 7 3 5 4 2 3 2 2 7 4 8 9 14 11 7 13 22 23 22 19 14 4 3 5 10 5 8 8 10 11 5 4 4 4
6 12 13 15 15 12 11 11 8 7 7 4 7 6 3 4 3 2 2 6 8 9 11 14 15 9 9 22 24 23 24 24 23 19 13 3 11 4 3 3 6 7 3 1 3 2 8
11 15 14 14 16 13 12 11 10 9 8 6 6 4 3 2 3 4 6 7 8 8 12 13 11 9 21 15 7 9 7 9 13 18 12 12 4 3 2 3 6 3 6 5 6 4 10
14 19 14 20 15 14 13 12 11 10 9 8 6 6 4 2 3 5 4 3 5 5 5 6 11 15 6 3 4 5 4 5 6 5 6 7 12 7 3 1 1 7 3 9 7 4 11
19 16 21 21 17 15 14 13 13 12 11 9 6 9 5 2 4 5 4 4 3 4 5 7 13 6 3 4 4 5 8 8 4 8 6 5 7 10 6 3 2 6 10 7 6 4 14
18 20 22 17 16 16 15 13 12 12 11 11 7 9 6 4 6 7 7 8 9 7 5 8 8 2 5 4 3 4 3 4 2 2 5 6 6 4 3 3 3 15 2 4 7 6 8
19 23 24 18 19 17 16 14 13 13 13 11 6 10 10 7 5 7 11 15 16 13 10 3 6 7 4 4 4 4 4 6 6 3 3 2 5 3 5 4 6 11 10 6 8 8 6

GFSGBSN_850_spd_081.txt.gz
Wind_Speed
38 36 33 28 25 23 21 19 16 14 14 14 14 14 14 13 14 15 16 14 15 16 16 16 17 18 14 9 14 13 13 7 4 6 11 13 17 19 19 19 23 23 22 26 27 26 23
38 37 34 28 23 21 20 17 15 14 14 13 12 13 14 15 15 17 16 14 15 16 16 16 17 16 9 15 6 6 5 8 9 9 11 14 13 14 18 16 18 19 16 20 23 26 23
39 37 35 27 23 20 18 16 14 13 12 11 11 13 14 14 16 17 15 15 15 16 17 16 14 11 12 21 8 8 8 8 10 14 16 13 14 12 7 13 18 21 21 21 22 23 23
42 37 35 30 22 18 17 15 13 12 11 12 13 12 13 15 17 15 14 14 15 16 15 12 10 6 9 7 8 11 11 11 14 14 14 15 13 16 18 17 21 17 19 19 17 18 13
38 31 27 22 21 20 16 14 12 13 14 12 11 11 12 15 14 11 11 11 13 13 10 8 1 9 7 5 2 3 7 9 10 12 11 9 12 17 16 13 14 15 16 17 15 9 12
32 29 26 25 24 20 16 14 13 12 12 11 10 10 11 11 9 7 6 7 7 7 1 3 5 7 5 0 4 5 6 8 7 7 11 12 10 12 15 14 15 12 17 18 13 6 10
32 28 27 25 23 18 17 15 13 11 11 10 8 9 9 7 5 3 2 6 3 6 8 11 12 15 13 12 15 12 9 8 9 10 11 15 12 16 18 17 20 19 19 21 18 17 19
27 27 25 21 17 14 15 13 11 10 10 9 10 11 7 3 1 5 6 1 4 3 8 6 7 8 9 6 6 8 13 10 14 13 13 10 15 17 13 15 16 17 19 20 20 17 15
28 24 21 17 16 15 14 12 11 11 13 13 12 9 4 1 1 6 7 3 2 4 6 5 5 4 2 4 3 2 11 15 13 13 14 15 15 2 9 15 16 18 18 18 19 17 19
24 27 22 19 17 13 13 12 12 12 11 9 7 3 1 6 3 1 0 4 5 1 5 9 7 4 2 4 4 2 3 9 8 13 13 15 15 17 16 18 16 17 17 12 13 14 13
21 17 17 16 15 14 12 12 10 9 8 6 3 1 3 5 2 2 3 4 3 1 4 4 7 2 3 5 8 5 2 6 10 12 8 14 10 10 14 16 14 14 8 11 16 16 18
19 18 18 15 11 10 11 12 11 9 8 5 2 2 3 3 2 3 5 1 1 5 3 6 3 1 6 4 2 3 4 5 8 10 14 16 16 9 14 9 10 14 8 17 20 15 14
17 17 14 9 10 10 12 12 10 7 6 6 3 2 1 2 4 7 2 1 6 6 4 5 1 2 8 12 8 5 9 11 10 9 14 18 17 17 7 13 9 9 10 7 9 10 11
14 14 12 10 9 9 8 7 5 7 6 5 4 4 3 2 2 1 0 6 6 5 4 3 5 12 14 11 11 10 13 14 15 15 13 14 10 12 10 16 11 12 13 8 7 6 12
11 9 9 10 10 10 9 7 6 6 5 4 5 2 1 2 0 0 6 6 6 6 4 7 11 15 12 4 3 15 14 16 15 5 12 13 13 9 9 7 12 6 10 16 15 18 12
10 9 9 11 11 11 9 7 7 6 5 6 4 3 1 1 0 1 5 3 1 4 5 4 6 3 9 9 7 12 8 5 5 6 12 17 17 14 14 8 12 14 4 5 6 5 9
10 8 7 11 13 10 8 8 8 7 5 6 5 4 2 4 6 4 3 3 1 3 5 4 5 9 11 13 13 15 13 10 6 9 15 17 15 18 11 12 16 10 12 8 5 6 4
10 7 7 9 11 8 6 6 10 7 5 6 3 1 2 5 1 2 3 2 0 2 1 2 4 5 6 9 12 14 18 20 8 11 13 10 8 14 21 17 16 9 13 13 6 7 5
10 8 7 11 12 10 7 7 8 6 6 3 1 3 2 3 2 3 4 4 0 2 1 1 3 3 8 10 8 9 13 16 22 12 2 6 6 10 17 14 14 12 17 10 6 2 11
14 11 8 12 11 8 6 8 8 7 5 6 2 2 3 2 3 6 5 3 6 2 3 2 3 4 6 8 10 9 15 12 11 12 3 1 5 14 15 6 3 9 20 11 13 5 7
16 14 12 9 8 8 6 7 8 7 6 6 1 1 2 3 4 5 7 5 4 3 5 4 1 4 3 5 14 12 13 12 18 19 14 5 9 14 20 25 7 1 15 16 16 11 7
15 20 15 8 4 11 8 9 9 7 7 2 2 2 3 7 7 4 2 4 2 3 2 3 3 7 10 12 12 16 14 15 10 12 5 4 9 11 19 22 12 8 14 12 8 9 10
12 15 10 8 4 9 11 10 9 10 8 1 1 1 4 7 7 5 4 3 3 3 4 7 6 10 13 13 14 23 25 26 20 17 16 6 5 6 11 18 8 4 17 17 8 5 6
11 7 8 11 10 12 11 11 10 10 8 3 3 3 2 4 5 4 3 5 6 6 7 9 9 11 15 18 26 27 29 29 26 21 20 9 10 3 12 15 11 7 4 0 3 1 8
10 7 9 13 16 14 12 12 10 8 8 4 3 1 1 2 2 5 7 8 7 8 8 9 10 10 16 21 12 11 12 16 18 19 18 13 7 4 6 10 7 12 6 3 5 6 11
11 11 12 11 19 15 13 12 10 8 9 5 3 2 1 4 4 1 5 4 6 4 4 4 5 12 9 3 5 8 6 11 3 8 16 11 12 4 9 3 5 9 8 4 7 4 11
13 15 18 17 21 17 15 13 11 9 9 6 2 5 1 2 2 4 1 4 2 3 5 5 9 8 3 4 7 6 5 13 6 11 9 8 8 12 7 3 8 13 9 8 7 5 13
16 16 18 20 20 17 14 12 12 11 9 8 3 6 2 3 4 4 5 5 4 4 4 9 7 4 5 4 4 4 4 3 4 3 7 6 4 4 5 3 3 23 5 6 7 5 10
13 20 18 22 19 16 14 13 12 11 10 10 3 6 6 5 5 5 7 10 10 10 10 6 6 5 3 4 5 4 5 5 8 2 4 2 4 3 6 4 12 16 12 10 10 10 11

GFSGBSN_850_spd_084.txt.gz
Wind_Speed
50 48 45 43 39 35 31 28 25 24 23 22 20 19 18 17 16 17 18 17 18 19 17 17 17 17 14 9 15 12 15 14 6 6 10 12 14 17 17 19 24 24 24 31 29 31 33
51 51 50 48 42 36 31 26 26 24 22 21 19 18 17 17 17 18 18 18 19 19 18 17 17 16 10 13 7 5 9 7 8 8 10 13 14 15 18 19 18 23 24 24 24 26 29
52 52 52 45 43 38 33 25 25 24 20 18 17 16 17 17 18 18 18 18 18 19 18 17 15 12 11 26 9 8 10 10 11 13 15 13 13 15 12 13 19 23 21 20 22 26 26
56 57 48 43 38 37 34 25 24 21 19 16 15 16 16 17 18 18 17 17 18 18 17 13 10 6 10 6 9 11 12 14 15 14 14 15 13 14 17 18 22 19 19 18 18 23 26
63 60 49 44 37 34 27 26 23 19 16 15 15 14 15 17 17 15 14 15 16 14 11 6 2 8 9 6 8 4 7 12 12 14 13 11 10 15 16 14 15 15 18 21 23 24 20
62 56 48 41 34 28 26 24 22 19 17 15 13 14 15 16 13 11 10 9 9 9 3 1 7 7 11 6 3 5 5 7 7 6 9 11 8 11 14 14 15 15 17 18 19 14 14
61 51 42 36 28 28 27 23 20 16 14 14 15 14 13 13 8 6 6 3 3 4 14 12 5 16 15 8 13 14 13 9 9 12 12 17 11 15 18 19 19 17 19 20 22 20 19
53 45 35 28 30 26 24 21 17 17 16 14 13 12 12 10 5 2 1 4 3 4 9 21 18 13 10 5 5 5 11 8 15 14 16 14 15 16 16 16 15 16 19 20 19 21 20
48 38 34 31 28 25 21 17 15 15 14 15 13 11 9 5 4 3 2 1 4 3 7 10 11 6 1 3 3 2 8 16 15 16 16 17 17 12 8 13 15 17 18 18 22 20 21
30 26 26 25 21 20 18 19 15 13 12 11 11 9 4 7 1 0 2 4 6 1 4 11 8 6 5 3 5 4 4 11 13 16 17 14 17 17 16 18 14 17 17 19 17 16 14
22 19 19 18 19 20 16 11 9 10 12 10 8 6 5 10 6 1 4 7 5 2 4 13 10 7 5 6 7 8 3 6 13 11 7 11 11 12 14 16 16 18 17 15 13 16 19
28 25 20 17 18 16 14 10 9 11 12 9 6 4 7 3 3 4 7 3 2 3 5 5 8 6 7 17 9 7 6 7 9 12 14 18 19 15 13 13 15 9 13 16 15 14 13
22 20 21 21 15 11 8 9 12 12 10 8 5 5 8 7 2 9 1 2 4 5 8 8 3 2 3 7 13 10 10 13 8 10 13 17 19 19 17 11 12 10 11 8 11 10 13
17 17 18 15 13 12 15 13 9 10 8 5 4 6 3 2 6 3 4 5 6 3 9 5 2 7 12 14 15 10 16 13 16 17 16 16 16 16 18 14 10 14 13 8 9 7 11
16 13 12 11 11 6 5 8 6 6 5 3 5 3 2 6 3 5 3 5 6 9 5 6 9 12 13 12 3 4 12 15 16 19 16 11 17 8 3 9 10 10 12 14 18 17 14
11 10 9 9 8 8 6 5 5 4 3 6 5 1 3 4 2 5 4 4 2 5 6 4 4 4 6 11 10 7 11 11 16 18 19 11 14 19 15 13 14 15 7 5 3 4 8
8 8 11 9 9 8 6 5 5 3 3 7 3 2 4 3 2 5 4 2 3 6 5 4 4 7 8 9 10 11 8 17 12 12 14 13 8 13 22 10 15 13 13 12 5 8 3
10 8 6 8 10 5 2 3 7 5 6 7 2 2 2 4 4 4 2 3 2 3 1 1 3 3 4 6 9 10 13 12 20 23 15 8 4 13 20 20 21 20 15 16 8 7 6
7 5 8 9 9 6 5 6 7 7 7 4 4 4 1 2 2 4 3 4 2 1 2 1 2 1 7 6 5 6 10 11 15 15 11 1 5 8 15 16 16 8 11 20 18 3 9
11 8 7 11 9 6 5 5 7 7 8 1 2 1 3 4 1 3 4 4 5 2 2 2 4 3 4 5 9 8 15 6 9 16 3 7 9 11 14 10 14 14 17 17 12 6 5
13 9 10 11 7 5 4 6 7 9 10 3 2 3 1 2 3 5 4 2 3 1 4 7 2 4 6 7 11 14 12 13 14 16 13 11 16 17 21 24 16 16 22 10 17 15 8
13 11 10 7 3 5 4 7 8 10 8 4 1 4 3 6 6 5 2 5 3 5 2 4 2 9 11 10 13 15 14 14 16 13 11 10 12 17 20 20 19 25 20 6 9 10 7
12 13 11 6 2 1 7 8 9 10 6 1 1 4 5 8 5 5 6 4 2 1 5 9 8 9 11 14 20 22 23 26 22 19 16 11 4 8 14 14 14 12 18 10 11 19 10
14 13 11 8 5 4 7 9 11 10 7 3 1 1 2 2 6 5 3 0 4 5 6 10 10 9 13 17 23 25 29 29 26 21 19 15 11 7 7 9 7 12 12 13 6 17 12
16 12 9 10 8 9 9 10 11 11 6 8 2 5 2 3 3 5 3 5 7 7 9 11 10 10 14 19 10 10 9 14 16 17 16 16 10 5 4 5 15 17 7 8 6 9 16
15 10 9 10 11 12 12 12 10 10 8 7 3 3 3 3 2 5 1 3 6 4 3 7 3 5 13 4 5 7 10 15 5 8 16 15 10 3 3 2 4 7 17 5 3 6 14
15 11 9 11 13 14 12 11 9 8 9 6 3 2 2 2 3 2 4 3 4 3 5 5 11 10 3 3 6 6 5 11 3 4 13 8 4 9 9 6 3 17 18 8 1 5 14
13 12 14 15 16 15 13 11 8 7 8 6 3 2 2 1 2 1 2 2 2 5 4 8 6 7 5 4 4 4 3 4 7 1 9 7 6 5 7 6 5 29 13 7 6 15 12
14 16 18 16 18 15 14 11 8 8 10 9 3 3 3 2 4 7 6 8 8 8 8 6 6 6 6 4 5 3 6 4 8 3 7 2 4 3 6 3 8 17 15 12 12 13 13

GFSGBSN_850_spd_087.txt.gz
Wind_Speed
48 49 49 48 48 46 45 44 39 33 32 28 27 25 24 23 21 20 20 19 19 18 19 18 18 18 15 8 20 18 13 13 12 6 9 8 13 15 10 6 17 15 15 24 26 28 25
55 51 51 51 51 49 47 45 40 34 32 30 27 23 25 24 22 20 20 19 19 19 19 18 17 17 12 8 4 7 10 13 7 6 3 8 14 18 17 14 12 18 18 18 19 20 19
55 54 55 51 50 52 48 45 40 34 32 28 25 25 25 23 22 20 21 20 19 19 18 17 16 13 13 28 8 9 10 12 10 13 18 18 17 18 17 8 12 15 9 11 8 14 14
56 57 58 53 60 53 48 44 38 32 30 25 23 23 22 22 21 21 20 19 18 17 16 13 10 8 12 10 5 13 16 16 15 11 15 17 16 15 11 13 15 7 7 7 5 10 20
54 58 54 52 59 55 47 42 32 27 26 23 21 20 19 19 19 18 18 16 15 13 10 8 7 6 11 4 10 4 3 11 12 15 12 11 11 11 14 5 4 5 8 11 18 14 16
48 52 49 54 57 51 46 38 27 25 23 23 20 18 17 18 17 16 16 12 11 9 4 5 6 6 11 5 4 5 6 7 8 6 16 14 5 4 3 2 6 6 7 8 7 7 14
44 45 45 57 55 51 43 28 27 24 22 22 18 18 17 17 16 13 9 7 6 3 13 13 12 9 10 12 13 13 12 9 8 12 7 13 4 8 9 11 16 16 16 15 12 12 10
35 38 51 53 53 47 32 27 27 22 19 15 14 14 17 21 13 8 4 4 2 2 8 21 24 23 22 13 7 13 11 14 11 8 8 5 9 13 13 16 16 17 13 8 8 9 12
32 37 47 54 45 31 29 27 22 18 16 16 15 18 16 10 8 9 2 4 10 6 3 11 19 23 14 13 7 8 10 14 5 7 10 9 10 16 17 16 10 9 6 8 13 13 14
33 45 42 35 32 33 26 21 19 18 15 16 16 13 9 6 7 5 7 11 6 2 0 5 9 9 9 9 6 11 5 5 5 8 10 10 12 13 12 11 7 11 8 14 14 12 9
37 37 35 32 28 20 18 17 17 15 11 12 10 6 7 13 6 4 5 7 0 3 2 13 10 12 9 8 1 8 8 4 5 9 4 7 9 8 7 8 5 13 9 8 7 13 9
12 14 16 17 20 21 21 20 13 9 11 10 9 8 9 10 7 6 6 4 5 1 4 10 9 8 8 13 10 12 9 8 6 5 9 12 17 7 8 8 4 6 5 7 8 7 9
20 20 18 21 21 20 18 15 12 10 15 12 9 9 12 10 4 10 5 7 2 2 10 4 7 5 3 3 7 3 7 7 4 3 7 14 16 19 16 10 3 4 2 3 3 3 8
18 19 19 16 16 16 15 14 13 15 14 5 6 8 9 6 9 6 7 2 3 7 7 5 6 6 3 5 6 11 4 4 5 7 6 8 14 9 14 17 9 7 8 4 4 3 10
13 15 16 15 14 12 11 9 10 13 10 5 5 6 5 6 2 10 3 2 2 5 5 4 5 5 5 5 3 5 4 5 6 13 6 6 6 12 11 4 9 4 6 14 11 10 8
10 9 7 7 8 10 10 4 6 4 4 7 6 4 5 5 4 8 1 2 4 9 6 6 2 5 4 9 7 9 6 6 11 7 7 6 8 7 10 10 6 8 4 3 2 4 5
11 11 10 11 12 10 7 7 5 4 6 10 6 3 3 3 7 2 2 1 9 8 9 7 6 5 6 5 5 5 3 10 11 12 8 7 1 9 11 3 6 5 6 4 4 5 3
5 10 12 12 9 6 4 6 6 6 9 9 2 1 2 4 2 4 1 4 2 7 4 4 1 1 1 5 3 3 4 5 16 12 5 3 3 6 16 21 18 17 10 5 7 6 5
10 9 8 6 7 6 4 5 9 8 11 5 2 4 4 2 2 1 3 7 6 2 5 2 2 5 6 3 2 3 7 12 11 5 2 5 3 5 10 7 7 8 8 11 15 0 8
9 8 11 10 8 7 5 6 9 9 7 1 2 2 2 2 3 4 5 6 5 5 6 2 3 3 3 3 4 3 5 4 12 9 3 2 3 6 8 13 11 11 20 17 6 4 4
12 8 9 12 8 5 4 6 9 9 7 4 2 1 1 1 2 6 5 2 9 4 3 6 1 3 1 2 5 6 9 11 12 9 8 2 5 8 13 18 19 17 21 17 14 16 5
13 11 12 11 7 6 3 7 9 10 6 7 2 3 1 7 7 6 3 2 1 7 1 4 3 4 5 4 5 7 9 8 4 5 4 3 3 5 11 17 18 21 19 16 14 15 8
13 11 9 8 7 8 6 9 11 11 8 5 4 5 3 6 2 2 4 3 4 7 4 2 4 4 6 6 13 17 20 18 13 12 11 7 3 2 8 13 12 10 13 16 10 7 1
11 11 11 7 5 7 9 10 11 9 10 9 7 4 4 1 2 4 7 7 4 5 2 11 12 4 5 15 20 21 24 25 22 19 20 12 5 3 6 10 5 3 14 9 18 11 12
13 11 13 8 7 9 11 12 13 11 11 11 8 6 6 1 1 8 6 4 5 4 4 7 10 4 11 10 4 6 5 4 9 17 14 16 7 2 3 3 8 5 9 8 0 9 16
16 12 10 11 10 10 11 13 13 10 9 10 7 7 7 3 6 12 7 4 1 3 2 4 8 9 11 2 2 2 3 4 4 7 6 10 12 6 2 3 4 10 17 32 20 6 13
18 15 12 11 11 11 11 13 11 10 7 6 9 7 7 5 10 10 5 3 4 4 1 5 10 8 8 2 1 2 3 7 3 5 3 4 4 9 6 2 3 9 27 34 3 4 13
18 15 12 11 13 12 12 11 10 10 8 7 8 5 7 3 7 6 3 4 4 7 2 8 4 7 5 4 3 3 2 3 4 2 6 3 2 3 4 4 1 27 10 7 6 14 13
17 14 13 13 14 13 11 10 8 8 10 8 8 2 5 4 2 2 3 4 3 2 2 5 3 3 3 3 3 2 2 3 8 2 6 3 4 2 5 3 7 12 13 15 14 14 12

GFSGBSN_850_spd_090.txt.gz
Wind_Speed
51 52 50 48 45 43 44 44 44 43 40 37 34 32 29 26 23 23 23 22 21 20 21 20 19 19 16 11 26 19 21 12 9 6 7 9 9 5 3 4 7 8 14 22 28 30 31
50 51 51 51 53 48 46 48 46 45 44 38 33 31 27 25 24 24 23 23 21 21 20 19 17 17 13 10 4 4 5 7 7 7 5 11 5 5 10 6 6 14 14 12 15 16 15
50 51 52 54 49 49 50 50 50 46 45 39 32 29 26 25 25 23 22 22 22 21 19 18 16 15 16 31 9 6 11 9 7 9 10 9 12 9 10 5 9 7 5 7 5 7 5
52 51 50 52 51 52 51 53 56 45 43 35 32 29 25 23 23 22 20 21 21 20 18 15 13 10 15 14 11 18 21 18 12 14 13 13 10 11 5 7 10 6 3 3 1 5 11
50 51 50 49 50 50 51 55 53 47 44 32 25 22 25 24 20 18 19 20 19 16 13 11 8 10 14 8 11 6 13 14 17 13 13 9 9 4 4 3 5 4 5 10 9 5 8
46 46 47 48 46 47 49 58 51 47 38 29 24 28 27 25 20 17 14 13 12 14 8 6 8 6 17 4 3 6 10 7 10 12 18 12 4 2 2 4 7 5 4 7 7 5 5
38 41 41 43 38 45 51 51 52 46 36 27 26 25 25 22 18 14 12 13 9 8 18 16 14 10 5 4 12 11 13 11 7 4 5 5 3 8 10 9 6 8 9 14 15 11 5
31 34 34 35 36 42 47 51 53 38 30 26 23 21 17 15 15 15 18 9 9 4 9 26 29 24 24 12 10 12 14 11 6 5 3 1 10 14 11 10 10 10 13 17 16 13 6
20 21 26 29 35 44 50 55 40 32 28 23 19 16 14 13 15 18 14 8 10 10 5 9 25 29 23 12 12 10 14 15 4 8 6 9 11 11 13 13 11 10 9 6 11 8 7
19 18 23 28 38 48 45 36 33 29 22 19 17 15 14 14 13 13 12 11 8 7 2 5 9 9 14 11 6 14 11 11 5 7 7 8 14 14 13 9 14 12 8 7 7 5 10
20 23 24 34 31 35 32 25 23 20 19 17 16 13 14 16 8 10 7 10 5 4 2 6 9 9 18 11 3 9 15 11 7 8 4 7 4 4 5 4 4 7 6 5 5 5 6
12 20 22 18 29 23 23 19 18 19 18 16 14 14 13 13 10 11 7 7 5 2 7 7 7 11 8 10 3 12 8 6 5 5 5 8 5 4 6 6 5 1 2 4 3 0 9
2 9 10 11 9 14 18 22 21 18 16 16 14 11 12 13 9 10 6 8 4 4 10 7 7 10 11 6 8 6 6 3 2 2 3 5 6 4 6 8 3 4 5 3 4 0 6
16 17 17 17 16 17 17 15 14 13 13 9 10 12 17 16 6 8 8 2 4 1 4 4 4 6 4 2 1 2 4 4 6 3 0 3 5 5 9 4 10 8 8 5 6 4 10
13 13 13 15 16 16 14 12 12 12 14 10 7 11 12 12 8 9 6 3 1 3 3 4 2 3 3 3 4 3 6 4 4 10 3 4 4 11 6 8 2 4 5 9 5 7 6
8 9 10 9 10 10 10 9 10 8 15 14 11 9 6 8 5 11 2 5 3 5 4 4 3 5 4 4 4 4 5 4 3 8 3 4 5 3 8 8 6 5 1 1 2 3 5
7 6 5 9 13 13 11 11 11 11 13 16 13 3 4 6 9 6 3 1 5 6 3 3 4 4 5 3 5 3 4 6 3 3 6 4 1 3 6 5 7 9 6 5 4 4 4
7 8 11 14 14 11 7 5 9 11 15 13 6 2 7 10 3 4 2 3 9 5 11 6 4 6 5 4 4 3 4 5 6 1 2 3 3 4 4 11 13 9 5 3 3 5 4
7 10 16 14 11 7 5 9 11 11 14 9 7 4 8 8 2 1 2 5 8 4 7 4 4 5 5 3 3 3 4 5 10 4 2 1 3 4 10 4 6 5 7 9 9 8 4
11 11 11 10 9 6 6 10 12 12 10 5 3 2 4 7 3 4 4 3 4 9 5 5 5 7 5 4 5 3 5 6 15 7 2 1 3 4 4 9 9 14 15 10 5 4 8
12 12 13 11 9 8 7 9 10 12 7 4 1 1 1 2 3 5 3 4 7 3 3 4 4 4 4 3 5 4 5 5 7 3 4 3 2 1 6 11 14 16 15 15 13 13 8
12 11 16 13 9 8 8 10 10 11 6 4 2 2 2 4 6 6 4 2 6 8 3 2 4 2 5 3 2 2 0 1 4 1 2 4 3 3 14 12 14 16 16 17 15 15 15
14 14 14 11 10 10 10 11 10 10 8 3 3 3 2 3 3 4 2 4 6 4 6 11 5 3 4 1 4 11 14 12 10 7 5 5 3 2 8 6 12 11 9 15 13 7 9
15 14 12 9 7 11 11 12 11 8 7 10 7 5 3 1 3 3 10 12 9 5 4 2 4 3 1 8 16 16 17 18 16 16 16 5 6 4 4 7 4 1 16 10 11 8 3
15 14 12 8 7 12 13 14 13 11 10 10 9 5 3 2 2 9 9 6 8 6 3 3 6 5 8 7 4 5 4 4 4 7 10 14 6 3 2 3 11 8 7 5 2 6 7
17 13 13 10 10 12 13 15 12 10 9 9 8 7 5 7 5 1 7 7 3 1 3 6 9 9 7 3 3 2 2 3 4 8 10 5 10 6 2 3 3 3 12 14 3 3 7
19 16 12 12 12 12 12 12 12 9 6 5 6 6 10 9 11 7 5 4 3 4 3 3 4 7 8 2 2 1 3 4 4 6 3 3 4 7 5 4 3 12 20 17 3 3 8
16 16 15 14 14 13 13 12 11 10 6 5 8 7 9 6 9 10 11 10 8 6 3 2 3 6 4 4 2 2 1 3 3 3 7 2 3 3 4 1 2 24 7 6 4 11 11
21 18 17 15 16 14 14 12 11 11 7 7 9 8 12 7 7 6 4 5 4 5 5 3 3 2 2 3 1 1 2 3 4 3 6 4 5 2 5 3 5 11 11 12 12 13 12

GFSGBSN_850_spd_093.txt.gz
Wind_Speed
40 42 45 48 51 50 48 45 43 42 41 40 38 37 37 32 28 29 27 25 25 23 23 21 21 22 19 10 28 22 23 22 12 8 8 10 10 7 5 4 7 6 10 18 23 24 24
42 44 46 49 50 51 51 48 46 47 44 42 43 41 39 35 29 29 26 26 24 23 21 20 20 20 15 8 10 5 10 15 9 9 9 14 7 5 8 5 6 7 7 14 11 14 12
38 41 46 50 52 51 50 50 47 47 46 45 43 46 40 36 30 27 25 24 22 22 19 18 19 17 15 34 11 9 12 13 10 7 10 9 9 7 3 5 8 7 6 5 5 5 6
35 40 47 48 50 52 51 47 48 44 43 47 47 43 36 32 30 29 23 22 18 18 20 15 16 12 14 21 15 23 26 20 14 15 14 12 10 11 9 7 7 4 1 3 3 5 7
40 41 45 46 45 47 49 47 44 42 48 49 51 41 34 29 28 26 24 21 17 17 16 13 10 7 15 12 16 12 23 27 21 17 14 15 10 10 4 3 4 3 4 4 7 4 3
41 42 40 41 40 42 44 45 42 45 45 48 48 40 29 27 27 23 22 16 11 10 10 7 7 5 17 6 5 8 12 14 13 13 16 12 7 3 1 4 6 5 3 3 4 6 2
39 37 38 37 37 37 40 39 36 40 43 52 47 38 33 29 23 21 21 12 9 9 19 16 17 10 6 12 6 6 13 14 11 7 6 6 3 10 11 7 3 4 4 6 7 10 4
37 38 34 30 31 33 33 35 35 41 44 52 45 39 28 24 19 19 15 12 10 4 10 26 34 22 21 9 5 10 15 13 9 7 4 2 9 11 6 5 6 6 7 11 7 13 6
41 37 27 23 22 25 27 33 38 41 46 50 41 29 24 17 17 19 17 20 10 9 6 12 28 33 29 16 11 12 19 21 4 7 7 6 9 4 7 5 5 7 6 10 12 5 6
32 36 22 17 15 19 24 30 43 48 45 38 31 25 19 17 13 15 16 12 5 7 3 6 9 12 17 19 7 24 21 11 4 12 6 6 11 12 7 8 8 7 9 13 7 4 5
21 18 16 18 19 22 28 41 41 38 31 24 21 18 17 16 6 14 9 13 8 4 4 4 7 8 19 24 7 15 19 13 8 7 7 7 2 4 8 8 8 8 9 7 3 4 7
6 9 4 18 28 33 28 26 27 25 23 22 18 18 15 11 12 12 13 12 8 3 8 4 8 8 10 11 3 9 12 7 3 5 2 7 4 3 6 6 6 3 2 3 3 2 5
10 5 7 11 17 18 16 11 12 16 18 17 13 7 10 14 14 13 10 12 3 5 4 5 6 11 10 7 4 5 7 3 2 3 4 2 4 3 1 3 2 4 4 2 3 1 6
3 3 7 8 10 10 11 12 12 13 14 14 14 10 14 17 15 15 13 1 7 9 4 3 4 14 5 3 3 4 6 5 6 2 2 3 2 3 4 2 3 5 7 5 6 4 6
4 8 10 10 11 11 11 12 13 13 13 12 11 12 13 17 13 16 11 4 4 4 4 5 4 5 2 4 4 5 4 3 3 5 2 2 4 3 5 2 1 2 1 4 5 2 3
6 6 6 6 7 8 10 10 10 10 11 15 13 14 13 16 18 14 2 5 2 4 6 4 3 5 3 3 4 3 4 3 4 4 1 1 2 3 4 1 7 6 4 3 3 3 4
9 8 9 9 11 10 9 9 10 10 14 16 14 7 12 15 16 7 3 4 1 3 3 5 3 3 4 3 3 3 4 2 4 3 6 1 3 3 4 4 2 4 2 3 3 4 3
8 8 7 11 13 13 11 12 8 11 16 19 8 3 14 19 4 3 3 4 3 4 5 3 4 6 3 3 3 3 4 4 2 2 3 3 2 1 1 8 5 3 2 4 1 3 3
10 9 13 16 14 11 12 8 10 15 19 11 10 7 11 11 3 3 2 3 5 2 3 3 3 4 4 3 5 4 5 6 15 4 3 1 1 2 1 4 5 4 4 3 3 6 7
10 14 16 16 14 10 8 10 12 15 14 7 5 3 5 11 6 3 4 3 4 6 5 6 3 5 4 4 6 3 3 4 9 5 9 4 1 3 4 5 1 6 9 8 6 3 5
13 14 16 14 11 10 9 12 14 15 9 4 3 2 5 4 3 3 3 3 5 3 2 5 4 5 3 3 2 3 4 3 3 4 4 3 2 2 5 5 5 9 13 14 14 13 11
17 15 14 14 11 10 11 12 13 13 7 4 4 2 2 2 6 6 3 2 7 6 3 3 5 7 7 4 3 2 2 1 3 2 3 3 1 1 6 5 8 13 16 16 17 17 15
16 18 17 14 12 11 12 12 13 12 8 2 2 4 2 3 2 4 2 3 5 6 9 7 5 4 5 4 6 9 12 10 7 6 4 3 3 2 5 2 8 11 8 11 16 16 10
16 19 17 12 12 10 12 12 11 11 8 5 7 5 4 1 3 2 9 12 9 4 5 4 8 4 1 6 10 7 8 13 11 11 11 5 5 3 3 3 4 2 7 9 5 7 5
18 16 14 10 11 12 14 14 11 9 8 9 9 4 4 2 3 9 11 9 10 10 5 9 8 4 3 4 3 4 4 2 1 5 9 12 5 2 2 3 8 7 5 6 5 3 7
19 16 12 9 12 13 14 14 11 10 9 6 7 8 7 7 3 2 5 8 4 3 4 4 7 7 2 3 3 3 2 2 3 7 7 7 5 4 4 3 4 1 13 14 5 1 9
19 17 13 10 12 14 15 14 11 7 6 6 7 9 9 9 6 6 4 5 5 4 3 3 3 4 5 2 3 2 1 2 2 3 3 4 3 8 4 3 5 10 17 18 2 3 9
21 19 13 12 14 14 14 13 10 6 4 6 8 13 8 7 9 10 10 9 7 5 3 1 3 5 3 3 2 1 1 2 2 2 6 3 2 3 5 5 3 22 7 5 3 9 8
21 18 16 14 14 15 13 12 10 6 4 9 12 11 16 7 11 13 12 9 8 6 9 3 4 2 2 3 1 2 1 2 1 2 4 2 3 2 4 2 5 9 9 10 10 8 8

GFSGBSN_850_spd_096.txt.gz
Wind_Speed
35 36 38 39 41 43 45 48 48 47 45 42 39 38 36 37 36 35 30 30 27 27 27 25 24 23 20 8 24 22 19 18 17 14 8 8 10 7 5 5 5 5 5 15 21 19 22
34 35 36 38 41 44 46 49 50 50 46 44 42 42 38 40 38 36 31 30 26 25 25 23 22 22 17 7 19 12 10 18 22 12 10 12 6 8 5 5 5 3 7 11 10 15 11
33 33 34 35 38 42 46 46 49 51 49 43 40 39 39 42 42 34 33 29 27 24 22 21 18 18 20 31 21 12 16 15 12 11 11 8 13 5 1 4 5 6 5 6 7 7 6
35 35 35 35 39 44 45 45 46 48 49 44 41 37 40 41 39 36 33 33 29 20 18 18 15 12 16 21 20 25 29 19 19 15 11 9 8 12 6 8 5 2 1 2 4 1 6
35 37 37 35 38 40 42 42 43 44 45 43 38 37 41 41 38 38 33 29 27 25 15 12 9 9 17 17 22 21 27 32 20 19 13 14 8 10 4 3 4 3 4 3 6 4 4
36 39 38 35 37 43 40 39 38 39 41 40 37 37 43 42 38 37 31 23 19 13 10 5 8 8 16 11 6 5 11 21 21 21 19 11 8 4 2 4 7 4 3 3 4 5 2
36 40 41 38 36 40 40 38 36 36 36 36 34 40 42 40 38 32 23 15 8 4 15 15 9 9 6 7 6 8 10 19 18 12 7 9 4 7 18 5 4 2 3 5 5 9 4
36 39 41 39 36 36 34 32 31 32 35 32 35 43 34 42 35 29 22 12 7 3 8 29 36 34 37 14 7 12 11 13 11 6 4 2 8 13 6 5 5 5 4 6 6 7 5
32 35 36 36 34 26 26 22 22 25 29 31 34 41 43 35 26 23 22 21 8 4 5 15 27 30 33 28 17 15 15 14 5 7 8 7 6 9 7 4 5 5 5 5 7 5 5
26 26 30 28 25 18 14 12 18 22 25 28 43 43 37 29 21 17 17 7 10 5 4 7 9 11 23 14 10 40 16 16 4 11 7 6 8 7 5 6 8 4 9 9 7 3 4
19 19 24 25 21 12 14 14 20 21 29 42 38 34 27 24 11 15 8 14 14 7 3 4 6 3 16 21 10 19 29 14 9 7 7 7 5 6 4 10 7 8 7 7 5 5 4
14 11 15 16 12 10 14 17 30 34 34 30 27 24 22 17 14 13 15 18 12 3 8 4 8 7 8 13 5 10 14 9 6 5 2 7 1 4 7 6 7 3 2 2 3 2 2
10 13 3 3 5 8 21 26 25 21 16 10 10 12 13 15 16 15 20 19 4 5 7 2 3 6 7 7 3 5 10 3 5 5 4 2 4 1 2 3 1 3 4 2 2 1 4
6 6 10 7 6 8 9 7 6 6 7 7 8 10 11 16 15 17 20 1 7 5 8 4 1 9 5 4 1 4 7 4 6 2 3 5 2 4 5 2 2 4 6 4 5 3 4
9 7 4 3 5 5 4 5 7 9 10 9 9 11 11 17 18 19 15 5 5 2 5 8 6 10 2 3 5 5 4 3 3 4 3 3 2 3 5 3 1 3 3 2 2 1 2
15 10 8 6 3 3 5 6 8 9 9 10 10 10 14 18 19 18 4 4 6 3 5 5 3 7 0 3 3 4 3 3 3 5 1 1 2 3 2 1 6 5 2 2 3 2 5
15 15 12 9 8 7 7 6 9 10 11 16 15 8 14 17 13 10 3 4 3 3 5 5 3 4 4 2 4 3 4 4 4 3 7 2 2 3 2 3 1 4 2 4 2 2 3
15 15 12 12 11 12 10 8 9 12 19 19 10 3 19 20 5 4 3 5 2 3 9 5 3 4 4 5 4 4 4 4 7 1 3 1 3 2 2 7 2 1 4 4 3 2 2
18 13 11 11 12 13 10 12 11 17 21 15 8 7 14 23 3 3 3 2 4 1 3 3 5 4 4 2 4 6 5 3 7 3 4 3 1 3 2 2 3 4 4 4 0 2 5
20 15 14 17 15 12 13 10 11 15 17 10 5 3 5 13 8 3 4 5 6 4 3 4 3 3 3 5 7 4 4 4 8 4 8 4 2 3 3 2 2 1 3 2 4 2 3
20 17 19 19 17 14 11 11 13 16 16 8 6 4 8 4 5 5 2 2 4 3 2 4 4 3 3 3 2 3 3 3 4 5 4 3 2 2 4 1 2 4 9 10 7 10 5
17 18 21 18 17 14 12 12 14 16 13 9 4 3 5 2 7 5 1 2 6 4 2 2 5 4 5 4 3 3 3 2 1 5 3 4 2 2 2 6 7 8 11 10 13 14 16
19 19 20 18 15 13 11 14 14 15 12 6 4 3 3 1 3 4 3 4 4 6 8 7 9 5 7 3 2 3 5 4 3 4 2 1 3 2 2 0 4 6 1 0 6 9 12
21 21 19 17 14 11 12 14 13 16 13 5 6 5 3 0 2 3 6 8 6 3 6 4 8 4 2 1 2 1 1 4 3 3 5 4 4 2 2 2 1 1 5 1 8 7 11
20 23 19 15 13 12 14 14 11 10 9 8 8 4 2 2 2 9 11 10 15 15 6 7 6 2 1 3 3 2 2 2 2 3 4 5 3 1 2 1 5 4 5 5 4 4 7
22 23 19 14 15 15 15 13 12 11 8 6 7 5 4 5 2 3 5 7 4 3 3 3 7 5 3 3 3 2 1 1 2 3 9 6 3 2 2 2 4 2 11 13 8 4 9
23 21 16 12 15 16 16 13 11 9 7 6 6 9 7 9 3 4 3 5 6 5 3 2 3 3 5 2 3 2 2 0 2 1 1 4 3 4 3 2 3 8 14 13 3 4 10
22 19 14 14 16 17 16 12 10 8 6 8 8 9 7 7 7 7 6 7 8 5 3 1 3 4 3 3 2 2 2 1 2 3 4 2 1 2 3 4 4 18 4 5 6 7 9
22 18 14 14 15 15 14 11 7 5 5 10 11 11 19 10 12 16 15 12 8 5 10 3 3 2 2 4 1 2 1 1 3 0 4 2 0 1 2 2 4 7 8 9 9 8 9

GFSGBSN_850_spd_099.txt.gz
Wind_Speed
32 33 33 34 34 35 36 38 39 40 42 44 42 40 39 36 33 35 34 32 33 31 29 27 26 24 19 9 20 19 14 13 15 12 9 11 14 8 6 5 6 9 6 9 13 13 14
28 28 29 29 30 31 32 33 35 38 41 43 44 43 40 34 37 37 37 33 33 30 30 27 22 21 16 9 21 21 18 21 23 25 23 19 11 15 5 6 6 5 9 11 8 14 9
27 28 29 29 30 31 33 34 37 40 40 41 42 42 40 33 34 35 38 34 33 30 31 27 21 17 20 29 21 17 18 20 17 16 17 18 13 12 8 3 6 5 7 6 9 9 8
28 29 31 32 31 32 33 35 37 39 40 39 40 40 40 33 33 34 35 33 31 28 25 23 18 13 15 16 21 28 32 27 20 17 17 11 12 12 6 4 2 3 1 4 1 6 2
29 29 32 34 33 32 33 36 37 38 38 39 38 36 35 32 33 31 35 33 31 25 19 14 12 7 17 14 21 20 30 35 27 22 20 11 11 8 5 5 3 3 7 5 4 6 4
31 31 32 36 35 35 34 35 38 39 36 35 35 34 35 28 33 29 32 29 25 16 10 6 8 4 16 12 11 11 9 23 23 23 14 9 8 6 6 9 10 7 6 5 4 3 3
30 30 31 36 35 34 33 33 35 39 33 31 30 31 32 33 40 29 34 21 9 6 16 18 14 10 8 5 5 10 10 16 16 17 12 8 8 16 17 14 9 3 3 7 7 9 4
26 25 31 32 31 31 32 32 33 30 29 25 23 28 31 30 34 36 31 15 11 7 9 24 28 26 29 7 4 6 7 9 11 14 15 6 19 14 11 11 10 10 10 11 10 10 7
23 25 27 26 28 29 32 26 21 24 21 18 21 24 26 34 36 37 30 21 14 5 4 12 26 35 32 30 15 25 14 10 11 10 16 16 3 17 16 11 10 8 10 7 9 4 6
23 25 24 22 23 27 27 19 16 15 13 15 19 25 27 39 36 29 21 19 14 4 3 7 8 11 16 13 13 37 23 18 2 14 8 10 11 10 14 15 11 13 13 14 9 3 3
21 19 19 20 20 23 26 14 15 12 13 17 24 34 40 38 24 24 16 20 16 5 3 2 5 2 7 20 2 14 41 15 19 11 7 10 6 13 13 12 13 8 9 11 7 5 2
17 15 15 14 18 18 20 14 6 15 22 27 37 39 36 24 17 20 22 29 19 5 7 4 6 6 8 19 5 6 28 21 15 7 6 11 3 6 7 9 17 5 6 4 2 3 6
15 12 11 3 2 4 5 3 12 24 33 33 28 24 19 13 17 28 34 19 5 5 2 2 4 7 9 10 12 9 17 12 7 10 10 3 11 2 2 4 6 11 6 4 4 4 5
15 9 8 10 5 5 7 8 4 4 5 5 7 10 13 13 29 30 29 3 4 4 6 3 4 5 6 8 6 11 16 8 4 2 5 8 4 1 3 1 4 9 7 4 5 5 2
16 12 12 7 7 9 8 6 5 5 5 9 10 12 14 26 25 28 14 3 5 5 6 7 4 4 3 6 3 6 4 3 3 2 2 4 3 3 7 4 1 4 4 1 2 1 3
19 17 13 10 8 4 3 4 8 11 12 10 15 13 18 29 22 21 3 3 3 1 3 3 3 5 3 1 3 4 3 3 3 6 1 2 4 2 3 1 5 2 3 3 1 4 7
23 19 17 15 12 10 8 9 9 11 10 11 12 6 19 14 22 7 2 4 3 5 3 5 4 1 3 4 3 5 3 5 6 3 3 2 2 1 1 5 2 3 2 4 2 1 3
26 22 18 19 16 13 12 11 10 13 14 18 7 3 20 18 3 3 2 4 3 2 3 7 5 4 1 5 4 6 4 3 2 1 3 1 2 3 3 4 3 1 2 2 2 4 1
33 27 19 19 20 18 13 13 13 18 23 16 5 6 15 13 2 3 3 5 2 2 4 1 2 3 2 2 4 5 5 2 5 2 3 2 1 3 2 1 2 5 4 5 3 2 4
36 34 19 18 18 19 13 14 15 20 26 14 6 3 5 10 3 1 4 5 4 3 3 3 4 5 1 2 6 4 4 4 5 6 10 4 2 1 4 2 3 4 4 3 3 3 3
31 29 22 21 21 20 16 16 17 23 21 12 6 4 8 5 6 7 2 8 7 5 3 2 1 3 4 2 3 4 3 3 7 5 4 2 2 1 1 3 2 3 8 7 7 8 7
42 28 23 25 23 18 15 18 18 21 18 13 4 4 8 5 9 11 6 6 10 4 2 2 3 1 3 3 1 4 5 2 2 4 2 3 3 2 3 6 6 9 12 10 9 10 13
29 24 24 25 21 20 17 18 19 19 17 8 5 5 3 2 4 5 4 4 5 7 4 5 9 7 9 4 6 7 7 7 4 4 2 2 4 3 2 1 3 8 8 9 2 5 9
23 25 26 23 21 18 17 18 18 19 18 10 4 3 3 2 2 4 5 5 10 2 6 3 4 3 2 4 8 9 9 7 5 3 2 4 4 2 1 2 3 4 6 2 4 9 3
25 25 24 23 16 15 17 17 17 17 15 11 7 5 4 3 2 7 10 10 13 13 5 5 5 4 4 4 2 3 2 3 5 5 2 3 3 2 1 2 4 4 4 3 4 3 8
26 25 24 19 16 14 17 16 15 14 12 11 11 10 3 5 1 6 7 9 7 3 2 3 6 5 3 3 2 2 2 2 3 2 7 6 2 1 3 2 2 1 11 10 7 3 10
25 25 20 17 17 17 18 16 15 14 12 10 8 9 4 8 3 5 3 4 6 4 3 1 1 2 3 2 3 2 2 0 2 2 2 4 3 3 3 2 1 6 14 11 3 5 10
27 24 20 18 19 20 18 15 13 12 11 10 8 9 7 7 7 7 6 6 7 5 3 3 3 2 2 3 2 2 2 1 3 1 2 1 2 2 2 3 2 15 2 3 6 6 9
26 21 18 19 20 20 17 14 11 10 11 11 9 11 18 9 16 19 17 12 8 5 11 4 3 2 3 3 1 3 2 1 2 2 3 1 1 1 2 2 4 7 7 5 6 9 9

GFSGBSN_850_spd_102.txt.gz
Wind_Speed
28 29 30 30 30 31 32 33 33 33 32 32 34 35 34 34 33 30 32 33 32 30 30 28 30 29 27 10 16 22 16 11 11 9 11 12 14 14 13 10 14 18 16 16 18 17 19
24 24 25 25 25 25 27 28 29 30 30 31 31 33 34 33 32 29 31 29 34 30 29 28 29 27 20 16 18 24 17 22 22 19 17 18 13 16 14 14 16 3 13 14 11 17 19
22 23 24 25 27 26 28 28 29 31 32 33 34 32 33 34 31 28 30 29 32 29 29 26 24 21 19 26 22 24 23 18 17 19 21 20 20 18 10 13 23 15 16 16 18 20 16
22 24 25 26 29 29 29 30 31 32 34 34 36 34 32 33 29 27 30 30 27 26 26 24 20 13 16 16 17 26 28 25 22 19 19 14 17 20 17 11 8 11 14 14 5 14 14
25 25 27 28 29 31 31 31 32 33 34 35 36 36 32 30 28 25 29 25 23 25 26 20 15 8 17 11 14 17 24 22 20 14 16 10 14 21 15 16 15 16 15 16 10 12 6
25 26 28 28 29 32 32 32 31 33 34 35 36 35 30 26 25 29 24 26 21 24 18 10 8 6 17 17 8 8 10 12 16 17 15 16 11 12 16 16 19 19 19 16 14 8 12
25 27 28 28 30 31 31 30 30 32 32 33 34 28 25 24 27 33 27 28 9 8 15 16 10 14 9 9 10 12 12 12 17 17 21 22 12 24 24 22 21 10 15 14 8 8 6
24 24 25 27 30 29 27 27 28 27 27 29 26 22 21 24 32 27 27 31 14 6 8 20 29 33 28 11 11 15 14 12 15 19 19 14 25 25 18 18 20 22 19 19 15 16 11
21 21 25 27 26 25 24 24 25 23 22 22 19 18 19 25 28 30 32 33 24 20 2 19 25 26 28 23 30 29 23 17 15 16 18 20 19 10 21 18 19 21 21 16 15 5 12
21 24 24 22 21 22 22 22 23 18 16 12 10 14 23 31 25 31 35 30 24 10 4 8 7 8 13 12 12 32 27 20 10 21 17 11 20 19 15 23 22 22 16 15 12 9 10
21 24 19 21 20 17 18 19 16 14 12 12 14 18 28 25 27 32 29 24 16 9 6 2 6 3 8 17 8 10 35 24 20 13 14 16 21 24 19 16 16 19 7 14 15 13 13
22 22 19 19 18 15 16 16 14 7 14 16 19 26 32 35 29 29 26 23 18 5 9 6 7 9 11 19 10 3 22 16 7 1 6 14 2 5 15 17 16 9 6 10 10 11 13
22 18 20 16 8 10 7 7 8 4 10 21 31 38 37 33 27 26 32 24 2 6 3 7 5 8 13 8 8 9 17 13 9 6 10 13 19 18 14 15 14 21 12 6 8 8 12
24 19 22 17 15 9 8 8 9 14 22 31 30 18 14 9 18 23 32 3 9 1 7 1 3 6 8 7 9 14 18 16 18 14 6 9 7 19 9 15 10 22 19 9 10 11 10
26 24 22 18 16 19 13 10 9 8 9 9 11 13 11 16 25 35 13 4 2 6 2 4 7 8 11 9 6 15 17 18 15 9 8 13 8 4 4 5 6 15 19 17 9 5 6
28 27 24 22 19 13 13 13 13 12 9 12 15 12 17 29 31 24 3 4 7 4 2 4 9 2 6 10 8 11 12 3 7 1 7 1 5 4 5 5 4 6 8 7 8 12 15
31 32 29 25 22 17 12 12 13 14 15 19 12 8 21 15 25 9 5 5 5 4 2 3 4 4 2 4 6 3 7 5 1 3 5 7 6 5 3 2 2 4 6 4 4 5 7
31 38 31 28 24 20 17 16 17 18 17 16 9 4 24 19 4 3 8 5 2 4 6 3 2 3 4 4 5 6 5 3 3 5 6 5 2 4 2 3 2 3 2 3 5 8 4
30 33 35 30 24 23 21 19 17 20 20 13 9 6 17 19 6 8 6 7 8 6 8 6 4 3 1 6 2 10 4 3 2 5 5 2 2 3 3 1 1 2 1 2 2 1 9
28 28 27 33 26 25 23 20 18 21 25 12 8 5 6 11 3 5 10 11 10 10 6 4 4 3 3 5 2 10 10 4 5 4 6 1 3 5 5 3 4 4 7 4 2 3 4
26 29 30 30 25 25 24 19 20 27 30 12 7 5 10 8 11 10 9 10 14 8 7 7 6 5 4 5 4 6 6 10 5 0 3 1 3 2 4 4 2 2 6 7 10 10 6
26 24 32 33 27 29 26 21 22 26 33 11 7 5 9 4 15 14 9 9 13 9 8 9 4 6 10 4 3 8 10 7 5 3 3 2 3 1 2 3 4 8 9 10 11 12 14
27 30 26 32 31 32 26 22 24 32 26 7 6 4 6 11 13 11 12 9 13 10 2 4 6 6 9 9 11 10 9 7 7 6 4 3 4 3 2 2 1 7 5 10 9 7 7
19 23 31 33 37 30 24 27 26 27 23 8 5 4 5 6 12 12 13 12 12 11 6 8 8 6 5 11 13 11 11 9 7 7 3 6 6 3 3 3 4 6 5 7 3 9 5
26 27 31 31 26 24 24 27 26 26 26 20 6 3 3 4 8 10 11 9 10 11 10 9 6 5 9 7 6 7 5 6 5 5 5 4 3 3 3 5 4 4 3 3 3 2 6
25 25 28 29 24 22 21 25 21 22 22 21 11 6 2 2 4 8 9 15 10 7 7 5 6 7 4 2 2 4 4 5 6 5 4 6 2 3 3 3 4 5 7 4 1 6 6
26 26 29 24 22 20 21 20 19 19 19 14 10 9 2 4 4 7 5 8 6 4 4 6 5 4 2 3 2 2 3 0 6 6 5 5 2 5 5 3 5 1 10 3 5 5 7
27 27 25 21 20 23 23 19 18 19 17 15 11 10 5 5 5 4 4 5 6 5 5 7 5 2 3 3 2 3 3 2 4 2 1 4 5 4 3 3 2 13 1 4 5 6 6
25 21 22 20 22 24 22 20 18 17 16 15 9 12 12 6 9 16 14 9 7 4 8 4 2 3 2 2 2 3 3 3 4 4 2 3 3 2 4 4 5 8 6 4 4 7 8

GFSGBSN_850_spd_105.txt.gz
Wind_Speed
25 26 26 27 27 27 26 27 28 28 29 29 29 28 28 27 28 29 29 30 27 28 27 27 26 23 21 12 19 23 23 20 15 11 12 13 15 17 21 17 20 24 22 26 24 22 26
24 23 23 22 22 21 22 23 24 25 27 27 28 28 28 28 29 29 28 28 26 26 26 25 25 22 16 21 14 13 17 13 13 15 18 18 19 20 26 28 24 27 20 22 28 24 23
20 20 20 21 21 22 23 24 24 24 26 27 28 29 30 30 28 31 27 24 27 25 24 23 23 19 18 29 20 18 20 22 20 23 24 21 20 21 17 20 26 28 29 25 25 25 23
20 20 21 22 23 23 25 26 26 26 28 29 29 29 30 31 29 29 26 22 27 23 23 21 19 14 16 19 20 27 24 23 21 22 23 22 20 23 26 27 35 24 23 23 20 25 28
22 22 22 23 24 24 27 28 28 29 29 31 31 31 31 31 30 26 24 20 26 18 21 20 15 8 22 10 13 16 22 26 22 21 19 20 19 23 20 19 20 20 22 25 22 19 13
23 23 24 25 25 26 28 29 28 29 29 31 32 32 31 31 26 18 20 23 23 18 20 14 11 7 19 16 10 6 5 15 17 15 20 17 14 16 20 16 20 21 26 26 24 20 17
24 24 25 26 26 28 29 29 28 27 27 29 31 31 29 26 17 23 31 29 9 7 16 18 9 16 3 3 7 10 11 10 16 17 18 20 16 23 25 27 29 27 25 30 25 17 14
24 24 24 25 27 29 29 30 29 27 27 27 26 23 24 17 20 29 29 32 18 2 10 24 29 38 35 28 30 23 12 13 18 20 20 17 20 29 23 22 19 27 28 28 24 22 12
22 22 23 24 28 29 28 29 28 26 26 25 23 21 18 20 20 26 31 22 16 11 5 19 30 33 28 24 37 39 25 26 22 21 24 25 25 12 21 17 18 23 27 24 22 25 22
23 22 23 25 29 27 27 27 27 25 23 21 21 20 20 19 24 37 35 25 20 15 2 12 9 9 18 20 16 27 32 34 23 27 21 19 22 23 11 17 21 20 24 21 25 21 17
25 23 23 24 25 24 24 23 23 21 20 19 19 19 22 28 25 37 29 26 17 9 5 8 7 4 7 21 6 6 11 30 27 21 6 15 15 21 28 28 12 19 18 23 27 22 21
32 27 25 24 22 22 22 22 20 19 18 20 19 20 22 35 25 25 27 21 16 4 10 9 6 8 13 21 17 5 3 20 6 2 6 16 4 9 25 17 15 12 13 18 20 18 16
28 30 26 24 22 21 17 19 15 14 10 20 22 24 32 35 30 26 24 25 3 7 1 10 9 13 16 14 15 15 10 17 11 6 13 13 17 6 9 15 20 18 8 4 5 8 11
28 29 28 25 22 22 15 10 6 7 11 25 34 38 37 33 29 29 35 3 9 10 21 0 5 12 17 15 16 14 17 17 20 15 3 10 7 19 20 19 12 26 19 6 5 5 8
28 28 29 27 25 27 21 14 9 6 17 29 28 17 14 15 22 33 18 6 9 7 5 6 8 13 17 16 14 16 22 19 18 18 9 5 9 14 12 17 20 10 21 24 15 16 10
29 29 28 28 30 33 29 27 19 16 15 15 13 10 19 26 31 30 3 6 8 6 4 7 10 5 13 15 16 18 17 12 21 20 14 5 3 7 11 9 15 16 14 16 7 5 10
30 28 28 28 31 33 26 26 21 21 18 15 12 6 17 29 31 8 5 9 9 9 7 7 9 9 12 8 15 13 7 4 8 10 9 3 4 4 3 9 5 12 9 6 6 8 6
29 30 29 31 36 35 30 26 24 21 21 21 9 3 28 27 5 4 9 5 3 9 10 8 6 7 9 10 9 6 10 3 2 7 15 9 4 6 12 4 4 9 10 4 3 6 7
30 31 30 30 30 34 35 26 24 27 27 13 8 6 27 27 5 7 10 12 9 9 11 8 8 8 6 12 6 3 7 4 2 5 9 8 7 8 8 8 6 7 7 7 5 5 11
29 31 30 28 26 28 34 28 28 27 27 13 8 4 6 15 11 10 18 12 13 15 8 8 3 5 9 10 9 8 7 4 4 4 1 2 5 8 6 2 2 6 9 8 5 5 10
28 29 29 26 24 26 38 30 29 25 29 16 6 6 14 7 9 12 13 10 17 9 14 13 6 11 10 6 9 9 10 11 6 4 4 5 6 6 2 1 1 2 6 7 8 9 6
26 26 28 23 21 30 45 33 29 26 26 20 4 5 12 6 25 20 13 11 18 16 14 11 8 8 12 6 4 10 9 10 6 6 5 2 3 5 8 4 6 8 9 11 11 11 13
25 29 27 24 25 26 41 32 29 29 36 13 11 7 11 9 16 16 14 16 16 11 4 5 7 7 11 6 3 4 4 3 3 9 7 4 4 4 7 2 4 9 6 8 10 10 7
26 31 29 28 26 23 36 30 26 31 32 14 10 7 7 6 12 15 18 14 12 16 6 6 16 8 9 10 12 10 8 7 6 4 4 5 5 3 1 4 5 6 8 4 7 7 8
21 27 25 34 29 30 38 31 27 28 36 14 8 3 5 5 12 15 15 14 9 9 9 9 5 7 15 12 7 8 6 5 4 4 5 5 4 3 3 7 7 6 6 3 3 3 6
22 15 20 34 28 37 36 27 28 27 37 21 7 4 6 4 8 17 12 15 11 10 8 8 8 10 10 4 5 6 5 6 6 6 5 3 2 4 5 4 4 6 6 6 3 4 6
18 26 28 39 43 29 25 27 30 27 25 20 16 7 4 2 4 3 6 11 9 10 7 12 9 6 6 5 5 4 3 2 7 8 6 5 3 7 6 5 5 1 6 3 4 5 6
24 26 30 30 22 23 23 27 28 25 23 20 15 7 5 2 6 5 3 7 5 7 6 13 7 3 6 7 5 3 3 3 4 3 5 7 7 5 4 4 3 10 1 2 3 5 4
25 30 24 24 23 24 23 23 22 23 23 23 5 9 6 1 7 10 10 7 5 3 7 16 2 12 4 5 2 3 3 3 7 6 2 2 2 2 4 3 5 8 9 4 4 6 6

GFSGBSN_850_spd_108.txt.gz
Wind_Speed
25 24 25 25 25 25 24 24 24 24 24 24 25 24 25 24 24 24 25 24 24 22 26 22 22 22 20 11 23 25 27 25 18 15 14 12 14 16 18 16 21 23 23 31 31 32 31
24 24 24 23 22 20 20 20 21 21 21 22 24 24 24 24 25 26 25 25 25 21 23 21 18 21 17 21 19 13 18 16 16 13 16 16 18 20 26 26 22 27 32 33 34 30 29
19 19 20 19 19 19 19 19 20 21 21 22 24 25 25 26 25 26 26 24 23 20 19 21 17 19 18 32 21 22 21 21 19 18 21 19 20 23 21 21 22 27 25 22 23 31 30
18 18 19 19 20 20 19 20 22 22 22 23 24 25 25 26 27 26 25 22 19 19 19 18 16 17 16 19 14 23 20 22 24 20 22 21 21 26 26 25 30 25 26 24 22 26 27
19 20 20 20 21 20 20 21 23 23 24 25 26 26 27 27 27 25 23 18 15 17 19 14 13 8 17 5 11 9 14 19 17 20 17 14 15 23 22 18 19 18 22 27 32 26 26
21 20 21 21 21 22 22 23 24 25 25 25 26 27 27 27 25 22 16 14 19 15 18 12 15 7 18 19 9 4 3 8 13 14 16 18 14 16 15 14 18 23 22 25 27 24 25
20 21 22 22 24 23 24 25 25 26 26 25 24 25 27 24 20 18 19 14 7 7 20 20 14 13 8 3 7 6 5 7 10 15 15 20 15 18 20 21 25 27 27 30 28 27 29
21 21 22 22 24 25 26 26 26 27 26 25 24 24 23 16 14 18 14 23 16 6 14 28 36 38 32 26 26 27 18 19 14 17 18 18 24 22 23 23 23 24 26 25 25 26 24
24 22 22 21 22 24 27 26 28 28 27 26 23 24 20 14 15 18 21 26 13 8 8 19 30 30 31 26 35 32 21 26 22 20 20 22 23 22 23 21 22 25 22 22 24 23 26
29 27 25 23 23 25 26 26 27 27 26 24 23 22 18 16 17 22 25 25 17 10 5 10 13 11 22 30 21 26 26 32 26 28 21 20 23 21 25 22 15 18 20 23 21 14 11
32 33 31 26 25 26 25 26 26 27 24 23 22 19 21 23 17 28 26 22 13 8 5 6 10 6 7 23 1 9 8 16 26 25 16 24 16 13 20 22 17 18 12 13 16 18 14
27 29 28 31 28 27 24 23 25 25 24 22 20 19 19 25 27 24 27 26 18 4 10 7 9 9 11 18 19 6 5 10 9 19 19 16 15 9 14 14 19 7 5 10 12 11 9
31 30 31 28 29 27 24 21 20 21 21 18 13 17 22 26 31 24 27 26 4 7 6 13 13 11 14 16 16 16 15 11 9 5 13 16 21 20 13 15 4 11 1 4 6 7 11
34 32 29 28 26 26 24 20 19 16 16 10 19 27 28 29 29 28 37 3 8 13 25 6 7 17 18 15 16 19 19 17 17 12 11 9 9 20 16 19 11 18 11 5 5 4 6
25 27 29 28 26 26 24 22 20 12 9 12 22 35 33 32 28 39 15 9 10 15 11 16 15 13 18 17 17 16 21 19 19 19 9 6 9 3 13 18 14 5 10 20 14 12 5
27 25 25 26 24 25 25 25 24 14 7 12 11 11 14 21 32 34 4 15 13 13 10 9 12 5 13 16 13 11 20 13 20 22 20 4 6 2 15 15 19 15 7 5 6 4 4
26 28 27 24 25 25 27 28 32 28 20 16 10 4 12 26 36 11 4 7 13 14 14 11 15 14 12 15 12 5 8 7 8 19 12 7 6 3 5 12 16 15 15 4 4 7 4
25 25 27 28 27 26 30 29 33 32 25 22 9 3 15 35 4 3 7 7 6 15 14 8 5 10 13 11 12 11 8 6 5 14 16 20 4 6 12 11 4 6 8 5 4 2 2
24 25 26 28 28 29 29 28 32 35 28 21 5 5 20 31 5 5 9 16 12 12 12 11 11 11 10 10 7 9 3 6 3 4 2 9 6 7 3 8 9 10 11 10 8 7 6
24 23 25 26 30 29 28 25 29 34 28 27 6 4 6 12 8 9 13 15 17 11 12 14 8 8 11 11 12 4 6 7 6 7 5 4 8 9 6 5 6 12 12 8 6 1 6
27 26 26 27 27 27 22 22 27 35 32 32 8 6 13 7 8 13 14 11 18 13 17 13 9 13 12 10 13 14 6 8 8 3 5 3 5 9 8 2 3 3 5 6 8 9 8
29 28 28 28 27 24 21 20 25 34 37 29 5 5 11 8 27 22 15 13 16 17 11 15 14 14 13 12 10 7 10 11 7 6 5 4 2 7 10 9 6 8 7 8 9 10 11
30 31 28 27 24 25 25 25 25 37 34 20 15 10 10 7 9 17 18 14 18 14 17 14 13 8 10 8 7 5 7 8 4 11 8 7 4 3 9 7 3 7 6 8 7 6 8
31 31 29 27 28 26 27 26 29 41 36 16 15 11 3 5 11 16 20 22 18 11 9 12 13 4 2 13 7 6 8 6 6 8 7 4 5 3 1 5 4 9 8 4 4 11 11
25 26 26 27 26 24 24 20 38 38 33 27 19 4 3 4 9 18 20 15 19 10 6 10 8 7 15 15 8 5 2 3 5 5 6 6 5 3 3 7 6 8 6 3 2 5 8
19 27 25 32 32 30 25 23 34 31 32 32 16 1 2 2 8 18 14 17 6 6 8 14 12 13 14 4 5 5 6 7 7 7 8 7 7 4 5 5 6 6 5 8 5 4 7
17 21 27 31 33 33 29 35 33 30 27 31 13 5 2 4 2 2 5 14 8 13 7 12 9 5 7 3 4 4 4 4 7 9 9 6 7 8 7 6 4 1 4 1 3 4 8
22 20 22 24 33 31 36 36 29 27 24 31 24 8 5 4 12 11 6 5 15 7 8 16 7 5 5 6 5 3 2 2 4 2 9 7 5 6 6 8 5 8 3 3 5 8 10
13 24 24 30 28 37 32 27 27 25 25 26 17 11 4 3 5 10 12 10 9 4 11 20 4 14 8 6 4 1 2 1 6 5 2 2 2 2 5 3 5 9 12 7 6 11 9

GFSGBSN_850_spd_111.txt.gz
Wind_Speed
27 26 25 26 26 26 25 24 24 24 23 22 21 20 20 20 20 21 19 20 21 20 19 19 17 17 14 8 28 21 30 25 17 14 10 8 12 14 9 8 16 12 11 22 26 27 24
24 25 25 25 25 24 22 20 19 18 18 18 18 18 19 19 20 21 19 20 20 21 20 15 15 16 14 13 16 3 6 13 15 16 13 9 10 14 17 17 14 20 27 29 28 30 28
21 21 21 21 19 19 18 16 16 16 16 17 17 18 20 20 20 21 20 21 21 19 16 16 13 18 19 35 23 21 14 16 14 16 14 12 16 18 17 13 19 20 17 20 16 15 9
23 20 19 18 17 17 17 16 16 16 16 17 17 19 20 20 21 22 19 20 20 16 13 12 12 18 17 23 14 15 13 28 28 18 20 18 18 20 16 18 17 12 11 15 5 13 21
19 19 18 17 16 16 17 17 17 17 16 17 17 20 20 20 21 21 20 19 16 7 13 10 12 12 16 4 12 6 11 16 15 15 18 17 12 13 12 5 7 6 13 15 26 15 19
17 17 17 17 17 17 18 18 18 19 19 18 19 20 19 20 21 19 18 12 7 7 13 12 17 7 15 11 13 6 5 6 11 10 11 16 8 4 1 4 8 6 8 14 21 13 13
17 17 16 17 18 19 19 19 19 20 20 19 19 20 19 19 19 16 14 7 5 5 20 18 15 11 5 5 9 12 11 9 8 7 6 13 6 8 14 13 16 18 18 19 21 16 12
19 19 18 18 18 19 19 20 21 21 21 20 19 19 19 17 16 14 10 9 8 6 14 24 32 36 34 24 9 17 11 9 12 8 9 7 15 13 15 16 17 18 17 19 22 18 11
23 23 22 20 19 19 19 20 21 21 22 20 19 19 17 16 13 12 16 14 7 5 7 12 30 32 30 29 28 33 29 26 13 11 12 14 7 10 15 15 13 18 9 17 19 16 14
35 29 26 24 22 21 21 21 21 21 22 21 19 18 16 10 17 17 21 13 11 3 4 7 9 12 17 17 9 28 37 27 10 19 12 13 16 16 16 16 6 17 7 3 12 9 9
28 27 30 30 30 27 24 23 23 23 23 22 20 19 17 21 15 20 18 14 10 7 2 4 7 9 14 19 4 6 24 26 19 16 7 13 9 7 2 2 5 3 7 5 3 7 11
29 28 26 25 27 25 27 26 24 23 23 21 20 19 18 20 26 20 12 16 18 3 11 5 7 7 9 25 7 10 9 11 8 4 8 16 4 4 2 3 2 4 4 3 3 1 9
31 29 29 27 27 26 25 24 23 22 21 19 17 18 18 25 29 19 16 27 4 6 5 6 5 9 12 9 10 9 8 6 6 3 4 2 8 3 5 4 5 5 5 3 3 4 6
31 32 35 32 30 27 24 22 22 20 17 16 12 14 24 28 23 24 32 7 7 13 18 3 5 6 14 11 11 15 13 13 7 6 1 5 5 11 10 13 5 6 8 4 5 2 4
27 26 25 28 30 27 25 22 20 19 15 11 10 20 26 27 27 30 26 12 11 8 11 9 17 11 16 9 11 13 18 16 12 13 9 5 6 5 8 6 10 3 6 2 6 5 4
26 27 26 24 24 25 23 21 19 18 13 9 13 15 23 24 33 33 10 17 12 15 14 7 4 3 11 10 8 5 2 5 16 13 11 2 2 4 5 8 9 7 6 2 2 3 4
24 25 25 26 21 21 22 21 22 20 20 15 9 4 10 23 36 15 9 8 11 22 15 9 5 4 5 3 4 3 3 5 4 6 18 7 4 1 2 5 11 7 9 1 3 3 2
23 24 23 24 26 25 21 21 22 21 23 20 14 4 7 23 7 4 7 6 5 12 22 7 6 8 9 8 8 8 8 5 6 5 15 4 1 5 8 3 7 9 17 14 3 2 2
23 24 24 23 24 26 25 24 21 22 24 28 11 5 13 27 6 7 4 13 14 9 12 6 7 7 3 3 2 2 4 4 1 4 4 7 3 3 1 3 3 5 4 5 6 3 4
23 23 23 23 23 24 26 25 24 21 22 33 11 4 4 14 4 4 7 8 8 14 12 15 5 10 2 5 5 2 3 4 4 4 1 4 2 4 5 3 1 3 10 10 6 3 1
23 24 23 22 21 23 24 26 24 20 21 31 11 4 9 5 10 7 8 5 16 9 9 17 9 8 6 5 6 7 4 2 3 5 1 2 3 3 3 6 6 8 3 5 8 5 5
22 23 25 25 24 23 23 23 21 21 23 35 7 5 10 5 20 18 13 7 16 17 9 16 8 8 10 7 4 2 7 5 4 4 5 1 3 0 3 8 4 5 6 5 4 5 1
24 26 26 27 27 25 24 23 24 23 28 16 21 10 6 2 8 12 17 17 8 13 13 14 10 9 8 8 7 7 10 10 3 6 5 6 3 3 3 7 3 3 2 3 9 13 4
27 28 28 27 27 26 24 26 26 25 31 28 18 14 2 2 4 13 12 20 16 11 8 10 7 6 6 12 11 9 15 7 11 7 6 1 5 2 1 5 4 4 6 9 12 10 10
32 31 31 29 28 28 26 28 27 27 25 35 12 13 3 4 3 8 17 11 22 14 4 8 7 13 23 20 6 3 3 3 2 4 7 8 3 2 3 3 6 6 3 2 4 4 6
24 24 24 24 25 27 27 28 26 29 27 36 19 13 5 2 5 9 7 14 3 4 3 3 14 24 23 4 3 4 4 5 5 5 7 5 3 3 1 3 5 3 7 9 3 2 6
17 20 22 24 23 22 27 23 21 30 36 34 23 16 5 3 5 11 3 6 10 6 3 7 6 7 8 2 2 3 3 7 6 8 5 3 1 3 2 2 2 1 7 5 4 3 10
13 14 19 21 25 28 29 24 21 30 33 31 23 12 5 2 9 8 7 6 7 12 4 13 6 2 2 3 3 2 1 1 3 2 7 4 5 3 3 1 4 7 1 3 8 11 13
20 21 23 27 31 31 30 30 25 28 27 26 19 11 3 3 0 15 14 16 11 7 11 19 10 6 8 3 2 2 4 1 5 3 2 1 4 4 2 2 6 8 12 10 12 17 14

GFSGBSN_850_spd_114.txt.gz
Wind_Speed
32 31 29 27 28 28 27 26 23 23 21 21 20 19 18 17 17 17 16 16 17 17 19 18 15 15 13 8 20 14 17 20 24 14 10 6 5 2 3 3 10 5 5 11 22 25 26
27 26 26 26 26 25 24 22 21 21 19 17 15 15 15 16 16 16 16 16 17 17 17 15 14 12 11 9 4 3 8 13 9 9 10 9 6 6 11 4 2 11 17 15 14 19 22
22 21 21 23 22 22 21 20 18 16 15 15 13 14 14 16 16 16 16 16 17 17 15 11 13 12 15 33 17 19 19 19 16 14 13 8 8 12 10 7 6 13 12 13 8 9 6
24 24 22 21 20 19 17 15 15 14 14 13 13 13 14 15 16 17 16 16 16 15 13 9 12 15 15 18 19 19 17 22 20 19 16 13 13 15 8 8 10 6 5 3 4 1 9
24 24 21 19 17 15 15 14 14 14 13 12 13 13 15 15 15 17 16 15 15 11 7 9 12 13 15 6 9 5 13 17 23 20 20 16 18 11 7 3 4 3 6 8 4 10 4
18 20 19 17 16 15 15 15 15 14 13 13 13 14 14 14 14 15 14 10 7 4 6 11 13 8 16 6 5 7 7 8 10 8 10 16 10 4 0 4 5 6 6 7 3 6 3
18 17 17 16 15 16 16 16 16 15 15 15 14 15 14 13 13 14 8 4 3 4 17 15 11 11 5 6 5 12 12 11 8 8 6 7 4 9 16 9 8 4 9 17 14 6 8
20 18 17 16 16 15 15 15 16 16 16 15 15 14 14 13 13 7 7 6 5 4 12 22 31 35 36 21 6 18 17 15 11 6 4 2 12 12 8 8 12 13 15 17 20 8 6
22 23 22 20 18 16 14 14 15 15 15 15 15 14 12 11 7 10 10 7 4 4 7 9 27 26 27 27 19 24 22 18 5 8 8 10 6 9 10 11 14 14 16 16 15 5 5
30 29 26 24 21 20 17 17 15 15 16 16 15 14 11 8 9 15 16 6 3 5 3 6 9 9 16 10 9 34 36 17 5 11 6 9 19 15 14 10 9 10 3 4 3 5 7
35 34 33 35 31 28 26 23 20 18 18 18 17 14 12 15 8 19 9 8 8 1 3 1 5 4 13 14 4 5 29 18 18 7 7 8 1 8 14 16 5 2 2 3 1 1 4
29 28 27 25 24 24 26 25 23 23 21 20 18 15 15 18 23 13 6 16 12 4 9 4 8 8 8 9 3 7 10 16 15 7 9 8 2 6 7 4 4 7 3 1 2 2 3
31 31 29 27 25 23 22 23 21 20 20 18 17 17 20 22 26 20 15 19 3 5 3 5 6 9 10 8 4 4 7 11 6 4 5 3 5 5 6 4 3 4 5 3 3 3 6
32 33 32 31 28 26 24 21 23 20 18 16 16 15 18 21 20 23 28 5 7 8 11 3 3 1 9 8 8 9 6 6 5 3 3 5 6 8 5 9 7 5 7 4 6 3 4
30 29 29 28 29 31 31 26 22 20 16 14 12 10 18 23 23 29 27 10 11 6 4 7 15 9 7 9 8 11 13 14 10 10 9 5 5 2 6 4 8 5 4 2 2 3 1
29 29 28 26 25 24 24 25 23 19 16 11 8 10 19 25 26 35 14 10 11 11 10 6 4 6 5 7 7 10 8 1 11 11 7 6 6 4 3 6 3 6 7 3 2 4 4
28 25 24 25 25 25 22 22 21 19 17 13 9 5 8 23 27 19 6 10 14 17 8 9 7 5 4 2 3 5 7 1 2 1 9 5 5 4 6 8 10 4 4 2 3 2 2
26 26 25 24 24 24 22 21 22 20 18 17 9 4 7 20 8 3 6 11 16 6 13 14 4 5 6 5 3 3 8 6 4 2 4 2 4 7 12 4 9 10 11 10 3 4 2
24 24 23 24 24 23 24 22 19 21 23 23 7 6 10 23 8 10 3 8 7 5 10 5 13 9 7 6 4 4 2 3 7 4 5 6 3 2 2 4 1 7 8 11 10 3 5
26 24 23 24 24 23 23 25 24 22 23 25 7 2 7 14 9 7 7 6 9 12 11 9 8 9 5 6 5 6 4 2 3 5 13 10 4 5 4 3 4 5 8 9 9 3 3
25 24 24 24 25 25 24 24 25 25 22 24 9 5 8 5 6 11 7 6 16 8 9 2 6 14 11 6 6 5 3 4 3 13 5 6 5 5 7 3 4 5 2 8 12 12 7
24 23 24 24 24 22 22 23 23 24 22 28 10 5 8 5 8 16 8 11 17 14 12 7 7 13 8 8 6 8 8 4 5 4 5 3 2 2 2 11 3 4 3 2 2 2 8
23 23 23 24 24 25 23 23 23 25 27 20 22 20 6 7 5 9 14 18 11 16 9 23 17 15 9 6 7 5 8 13 8 7 4 6 4 3 3 7 5 5 2 5 5 7 6
23 23 23 24 26 25 26 25 23 27 32 32 20 16 9 3 7 11 9 18 23 21 10 14 24 11 5 17 16 13 11 6 6 5 7 6 5 1 2 6 4 2 5 8 14 6 6
25 27 28 29 28 27 28 27 25 31 32 34 25 21 9 3 4 8 10 12 18 25 19 8 10 6 25 12 4 3 2 3 3 4 6 6 4 2 3 4 3 4 4 5 4 3 3
35 35 34 33 31 30 28 27 28 31 28 29 36 23 12 3 5 8 5 16 12 4 9 5 9 16 22 3 3 5 4 4 5 5 9 8 4 3 3 4 6 3 3 6 4 1 5
20 25 29 29 29 30 31 30 29 29 29 28 26 20 14 7 4 2 5 5 10 6 3 3 6 1 15 4 3 3 3 6 6 7 7 5 3 7 2 2 0 1 4 3 4 4 11
10 15 19 22 24 25 26 28 28 29 30 31 27 24 13 3 4 5 7 15 7 12 5 7 6 3 1 3 3 2 3 3 3 4 6 9 6 3 3 2 5 1 0 5 7 13 15
13 12 13 18 22 26 25 28 30 31 29 32 24 22 13 7 3 3 6 3 18 17 14 18 5 7 8 3 1 3 2 0 4 3 3 1 5 5 2 2 3 6 10 14 11 19 13

GFSGBSN_850_spd_117.txt.gz
Wind_Speed
25 28 30 31 32 30 30 29 28 26 23 23 22 21 21 20 19 18 17 16 16 17 16 18 18 16 16 7 13 9 14 16 15 16 11 5 3 3 1 3 8 5 2 11 19 20 25
32 32 32 31 30 29 29 27 24 23 22 21 19 18 18 17 16 16 17 16 16 16 15 17 17 14 12 7 6 7 17 21 25 20 7 6 3 1 3 2 1 5 9 14 11 26 25
21 24 23 22 23 24 25 24 22 21 20 18 16 15 15 15 15 16 17 16 16 16 14 15 10 11 16 28 13 15 16 16 13 11 11 7 4 3 4 7 2 8 6 6 10 11 7
23 22 21 20 21 21 20 21 20 18 16 15 15 14 14 14 15 15 17 15 15 15 14 9 6 10 14 14 20 19 23 25 23 17 14 11 9 7 3 6 8 5 3 1 4 3 5
28 28 26 23 21 20 19 19 18 17 16 15 14 14 13 13 13 13 16 14 14 13 8 7 8 7 15 9 7 4 9 10 17 20 15 10 12 7 6 2 4 2 3 4 6 6 4
28 25 23 23 22 20 18 18 18 17 17 16 15 14 13 12 12 13 12 10 8 7 5 8 12 6 15 7 2 1 5 6 4 13 9 13 7 2 1 4 5 6 4 3 2 6 8
27 22 22 22 20 18 19 17 17 17 16 16 14 14 13 12 11 11 7 4 3 4 13 13 11 8 3 3 4 9 9 11 9 9 6 7 4 9 17 8 5 2 4 5 5 9 8
25 23 21 20 20 19 18 17 17 17 16 16 14 14 13 12 10 6 7 7 6 4 11 21 31 29 27 8 6 15 14 12 10 5 6 1 8 10 4 5 7 9 12 13 6 10 7
26 25 22 19 19 18 18 16 16 16 15 15 13 13 12 11 7 10 14 10 5 6 6 10 22 23 28 18 17 25 18 18 4 7 7 7 6 9 8 6 8 11 9 10 14 2 5
30 31 28 26 25 22 20 17 14 14 14 14 13 11 10 8 7 13 18 5 7 4 3 5 6 7 11 9 7 28 25 17 3 12 5 6 12 10 6 5 10 9 7 6 4 5 2
36 30 29 28 26 23 21 19 17 17 15 15 14 11 10 13 6 18 4 14 8 3 3 2 5 3 8 11 4 2 23 17 10 7 7 8 3 7 7 12 6 9 5 3 1 1 2
35 39 39 37 36 35 33 29 27 23 21 20 16 13 12 16 16 10 10 17 11 5 8 2 8 7 6 6 3 7 17 5 8 3 6 7 1 6 8 4 4 6 3 3 4 3 2
35 34 32 32 30 27 25 24 24 23 21 19 18 16 18 19 26 17 16 19 3 4 3 5 5 6 4 5 3 5 6 10 7 5 7 3 15 6 6 4 3 3 4 2 3 1 5
34 30 30 31 30 27 24 23 21 21 20 18 18 17 19 23 21 25 25 3 5 6 7 4 4 5 7 6 5 6 8 6 7 2 3 5 4 8 6 12 7 7 7 4 5 3 3
33 33 34 33 32 29 27 25 23 21 19 17 17 17 16 16 22 30 24 10 8 6 4 4 3 2 5 6 5 6 7 9 9 10 7 4 4 3 5 4 10 4 4 2 3 2 1
34 33 32 31 29 27 26 25 27 26 20 17 16 13 17 20 24 31 11 17 8 7 1 4 8 6 6 6 8 9 9 6 8 11 4 5 5 5 4 5 4 6 8 3 1 3 5
41 36 33 31 30 28 26 25 24 25 23 19 15 6 8 22 28 21 11 13 18 8 5 5 5 2 4 1 3 4 7 3 5 5 11 6 6 3 5 6 9 3 3 1 4 4 4
30 31 29 25 22 23 25 25 22 25 24 22 17 4 9 25 10 3 11 15 15 6 21 6 2 5 6 5 4 4 5 4 6 6 9 4 2 4 12 1 5 11 10 7 5 5 3
29 26 26 30 26 25 25 26 24 26 28 27 10 8 13 28 9 10 6 15 11 7 9 4 11 7 4 6 4 6 5 2 10 7 8 7 3 2 3 4 3 7 9 12 5 2 6
31 29 29 28 27 26 25 25 25 27 29 28 10 4 7 18 11 5 7 6 11 12 11 3 4 4 6 10 7 5 4 4 6 4 4 8 4 6 8 3 1 4 13 14 10 4 5
34 31 29 27 27 26 25 25 28 26 26 32 13 4 7 4 9 6 5 2 15 9 10 9 7 10 8 8 10 10 4 3 2 10 5 4 6 5 5 5 2 4 13 14 15 12 8
28 30 29 27 27 27 27 27 27 28 27 30 10 5 7 2 9 14 11 11 11 13 8 5 12 5 8 11 12 11 7 5 5 3 3 2 1 2 4 10 9 10 14 8 13 15 13
24 24 25 26 27 27 27 27 27 27 31 16 17 9 5 6 5 10 15 21 16 10 14 19 14 9 13 15 12 19 18 16 8 10 6 6 6 4 7 4 7 7 10 11 3 1 6
18 21 24 25 26 26 27 26 26 27 33 30 18 14 5 3 6 9 9 11 19 17 13 6 17 12 11 6 9 6 4 7 10 6 7 6 6 3 1 3 7 1 3 4 6 2 3
18 21 24 25 26 27 29 29 27 26 30 33 28 14 9 4 11 9 12 9 14 19 20 19 24 14 12 15 3 3 1 3 1 4 7 5 4 3 3 4 2 2 4 5 4 4 0
20 23 25 27 28 28 29 29 28 28 29 30 33 30 11 2 5 7 6 14 6 6 3 12 18 11 10 3 3 5 3 3 5 4 6 7 5 3 2 3 6 5 3 6 3 3 8
25 28 30 32 32 31 31 31 30 29 29 31 30 31 19 9 7 9 5 6 8 7 2 3 7 5 9 2 3 3 3 5 7 8 6 5 2 6 5 4 4 2 6 4 5 5 11
27 26 37 37 41 38 36 34 32 30 30 32 33 28 30 7 10 13 11 8 6 11 5 6 5 2 2 1 2 3 3 5 4 4 6 8 7 4 4 3 6 3 3 6 4 10 16
11 12 18 21 30 33 34 35 34 31 28 32 26 31 26 11 4 10 13 14 21 17 16 18 4 6 7 3 2 4 2 2 5 3 1 2 6 4 3 4 1 2 1 9 13 20 14

GFSGBSN_850_spd_120.txt.gz
Wind_Speed
34 34 32 31 31 31 31 29 30 28 28 26 25 24 23 23 22 21 20 18 18 17 16 17 17 17 17 8 10 11 14 13 11 10 8 5 1 2 3 1 5 3 3 9 15 16 18
21 21 22 24 25 29 29 31 32 28 26 25 23 23 21 21 20 19 18 16 16 17 16 16 16 17 14 5 8 13 17 18 17 15 11 5 2 2 1 1 2 1 7 12 11 24 19
23 22 22 23 26 26 27 28 28 25 23 22 21 21 19 19 18 16 17 17 15 16 15 16 16 14 17 24 12 14 13 13 15 11 9 8 2 4 1 2 1 5 5 7 7 5 5
23 21 20 21 21 21 22 23 23 22 21 20 19 19 18 17 17 16 16 16 16 16 14 14 10 10 12 11 12 14 19 21 21 16 10 9 6 2 2 3 5 4 4 4 4 6 2
29 25 23 24 23 22 23 23 23 22 20 19 18 18 16 15 15 15 15 14 15 14 8 5 6 7 14 7 3 4 8 6 7 18 13 7 1 2 2 4 4 5 2 2 8 7 4
30 30 29 29 28 28 25 22 19 19 20 18 18 17 17 15 14 13 13 13 11 6 5 5 10 6 11 4 2 2 3 5 3 12 8 7 4 2 2 4 5 4 3 3 5 6 8
30 29 30 28 26 27 25 24 21 17 17 18 17 16 16 15 13 11 9 7 4 3 11 12 7 6 3 3 5 7 7 11 11 10 6 7 4 8 13 7 4 4 3 3 4 10 7
29 28 29 27 27 27 24 22 19 18 15 17 16 14 14 13 11 9 10 7 4 3 10 18 26 27 22 3 4 12 11 10 8 5 7 4 5 10 4 5 5 6 2 6 6 7 6
30 29 28 26 25 25 24 23 19 18 17 16 15 13 11 10 9 12 15 9 3 4 6 10 17 21 23 20 14 21 17 10 4 6 6 6 4 5 7 4 6 5 5 4 7 5 5
28 28 28 27 25 24 22 21 19 18 16 16 14 12 10 8 8 11 16 12 7 4 4 6 5 6 11 11 6 23 29 10 3 9 6 5 6 4 3 5 6 3 6 6 5 1 3
38 33 30 31 29 27 25 22 20 17 15 14 13 11 10 10 6 10 0 11 8 3 3 3 5 5 9 11 1 2 17 14 8 6 6 6 3 4 6 11 5 7 4 4 4 3 2
36 36 37 32 35 32 28 25 23 20 16 14 14 12 11 12 15 11 6 13 9 5 7 3 5 6 6 4 2 6 5 5 8 4 1 7 1 6 7 2 6 5 4 3 3 3 4
33 35 36 37 34 31 29 28 28 24 22 21 18 18 16 13 17 10 11 14 3 4 2 5 5 5 3 5 4 5 5 7 7 5 7 1 8 4 3 3 3 3 5 3 3 1 5
30 32 36 36 34 36 37 35 34 31 26 22 20 18 18 18 13 18 18 3 7 4 5 4 4 5 6 6 4 5 7 5 6 2 3 6 3 7 5 16 7 6 8 5 5 3 3
33 32 33 35 34 34 32 30 26 22 21 19 19 19 21 20 18 20 15 8 7 5 3 2 3 3 4 4 4 4 8 8 9 12 8 5 4 2 4 3 9 4 6 2 1 1 1
33 33 31 33 34 32 34 30 26 23 19 18 19 17 22 14 21 26 10 13 9 4 2 4 6 5 6 5 6 7 8 6 6 11 4 5 1 5 4 6 4 6 7 3 1 3 5
33 34 34 32 32 32 31 29 26 24 23 20 17 6 6 17 25 21 12 12 14 6 5 2 3 2 2 1 7 4 5 3 6 6 10 5 5 2 6 6 9 3 3 2 3 3 4
33 33 37 38 35 31 28 26 24 23 25 24 20 4 8 27 12 10 13 17 14 7 12 7 2 5 4 3 1 1 4 4 2 6 8 6 5 9 13 3 5 3 5 6 4 4 4
29 30 33 36 44 38 35 29 25 27 28 32 14 13 13 28 8 7 10 20 24 14 7 4 8 6 3 3 3 6 6 3 8 6 7 6 1 1 5 3 2 6 7 10 4 2 15
26 27 28 33 37 32 28 26 28 26 30 33 11 4 10 13 13 11 12 9 11 13 16 5 3 5 5 8 4 4 2 2 3 3 1 7 5 6 8 4 3 3 7 10 12 5 4
26 30 38 28 27 29 30 29 28 29 31 36 16 5 7 5 10 11 11 6 14 11 11 14 5 7 6 5 5 8 5 1 1 4 3 4 8 5 5 5 5 5 6 7 16 17 9
30 33 27 27 30 30 29 28 28 29 31 35 11 6 5 5 18 12 14 10 9 10 6 6 12 6 12 12 10 3 7 5 6 3 4 2 3 4 4 7 10 9 11 9 12 10 7
20 31 36 31 33 31 29 28 29 30 33 13 11 15 8 9 4 9 12 15 14 7 7 15 10 7 9 13 13 16 10 8 8 6 7 5 5 4 6 4 2 8 17 13 6 4 5
17 22 24 33 29 28 27 27 27 27 34 26 16 12 6 3 6 9 5 13 17 12 14 5 22 13 8 13 7 6 7 7 10 11 10 6 5 3 2 3 10 1 4 5 8 4 4
9 10 24 23 22 24 25 27 27 27 30 35 22 13 6 2 4 5 6 3 9 18 19 14 21 7 6 7 3 4 3 3 3 7 11 7 5 3 3 4 4 3 4 5 7 6 5
8 10 12 16 21 22 24 25 25 27 27 29 30 23 7 3 6 11 8 13 7 4 2 8 16 14 10 2 3 6 5 2 5 6 8 5 4 5 3 4 6 5 1 3 2 6 9
10 12 15 18 20 24 25 25 27 26 26 26 22 26 19 4 6 11 5 7 9 8 3 2 7 9 15 4 3 4 8 4 7 8 6 4 3 8 4 4 6 4 5 6 5 5 16
14 19 18 23 25 26 26 27 29 29 27 27 26 24 26 10 15 12 18 13 12 12 5 5 4 4 3 7 4 4 3 5 3 4 5 8 7 4 3 3 7 6 4 6 3 5 19
19 25 23 29 36 34 31 31 31 30 29 27 24 25 22 20 9 10 23 23 23 14 11 15 4 5 9 3 3 3 2 1 5 4 3 4 6 5 7 5 1 2 1 4 9 17 18